<?xml version="1.0" encoding="UTF-8" standalone="no" ?>
<gpx xmlns="http://www.topografix.com/GPX/1/1" xmlns:xsi="http://www.w3.org/2001/XMLSchema-instance" xsi:schemaLocation="http://www.topografix.com/GPX/1/1 http://www.topografix.com/GPX/1/1/gpx.xsd" version="1.1" creator="VisuGPX - https://www.visugpx.com">
  <metadata>
    <name>4 Moustiers a Manosque</name>
    <desc><![CDATA[4eme etape boucle Digne à digne transverdon-alpes provence]]></desc>
  </metadata>
  <trk>
    <name><![CDATA[4 Moustiers a Manosque]]></name>
    <trkseg>
      <trkpt lat="43.85769" lon="6.19123">
        <ele>748.1</ele>
        <time>2020-03-04T11:09:54Z</time>
      </trkpt>
      <trkpt lat="43.85729" lon="6.18994">
        <ele>733.7</ele>
        <time>2020-03-04T11:09:54Z</time>
      </trkpt>
      <trkpt lat="43.85626" lon="6.19017">
        <ele>731.1</ele>
        <time>2020-03-04T11:09:54Z</time>
      </trkpt>
      <trkpt lat="43.85497" lon="6.19169">
        <ele>732.6</ele>
        <time>2020-03-04T11:09:54Z</time>
      </trkpt>
      <trkpt lat="43.85484" lon="6.19181">
        <ele>730.7</ele>
        <time>2020-03-04T11:09:54Z</time>
      </trkpt>
      <trkpt lat="43.85464" lon="6.19161">
        <ele>727.9</ele>
        <time>2020-03-04T11:09:54Z</time>
      </trkpt>
      <trkpt lat="43.85403" lon="6.19159">
        <ele>720.1</ele>
        <time>2020-03-04T11:09:54Z</time>
      </trkpt>
      <trkpt lat="43.85431" lon="6.19141">
        <ele>723.3</ele>
        <time>2020-03-04T11:09:54Z</time>
      </trkpt>
      <trkpt lat="43.85413" lon="6.19119">
        <ele>721.1</ele>
        <time>2020-03-04T11:09:54Z</time>
      </trkpt>
      <trkpt lat="43.85421" lon="6.19089">
        <ele>721.4</ele>
        <time>2020-03-04T11:09:54Z</time>
      </trkpt>
      <trkpt lat="43.85379" lon="6.19097">
        <ele>718</ele>
        <time>2020-03-04T11:09:54Z</time>
      </trkpt>
      <trkpt lat="43.85386" lon="6.19073">
        <ele>718.7</ele>
        <time>2020-03-04T11:09:54Z</time>
      </trkpt>
      <trkpt lat="43.85352" lon="6.19073">
        <ele>716.3</ele>
        <time>2020-03-04T11:09:54Z</time>
      </trkpt>
      <trkpt lat="43.85347" lon="6.19031">
        <ele>715.9</ele>
        <time>2020-03-04T11:09:54Z</time>
      </trkpt>
      <trkpt lat="43.85321" lon="6.19031">
        <ele>714.6</ele>
        <time>2020-03-04T11:09:54Z</time>
      </trkpt>
      <trkpt lat="43.8527" lon="6.19073">
        <ele>709.7</ele>
        <time>2020-03-04T11:09:54Z</time>
      </trkpt>
      <trkpt lat="43.85254" lon="6.19097">
        <ele>705</ele>
        <time>2020-03-04T11:09:54Z</time>
      </trkpt>
      <trkpt lat="43.85235" lon="6.19079">
        <ele>707.5</ele>
        <time>2020-03-04T11:09:54Z</time>
      </trkpt>
      <trkpt lat="43.85227" lon="6.19133">
        <ele>697.3</ele>
        <time>2020-03-04T11:09:54Z</time>
      </trkpt>
      <trkpt lat="43.85195" lon="6.19137">
        <ele>696.3</ele>
        <time>2020-03-04T11:09:54Z</time>
      </trkpt>
      <trkpt lat="43.85179" lon="6.19181">
        <ele>687.4</ele>
        <time>2020-03-04T11:09:54Z</time>
      </trkpt>
      <trkpt lat="43.85142" lon="6.19209">
        <ele>685.1</ele>
        <time>2020-03-04T11:09:54Z</time>
      </trkpt>
      <trkpt lat="43.85116" lon="6.19161">
        <ele>701.9</ele>
        <time>2020-03-04T11:09:54Z</time>
      </trkpt>
      <trkpt lat="43.8509" lon="6.19171">
        <ele>705.4</ele>
        <time>2020-03-04T11:09:54Z</time>
      </trkpt>
      <trkpt lat="43.85073" lon="6.19159">
        <ele>709.5</ele>
        <time>2020-03-04T11:09:54Z</time>
      </trkpt>
      <trkpt lat="43.85047" lon="6.19223">
        <ele>695.4</ele>
        <time>2020-03-04T11:09:54Z</time>
      </trkpt>
      <trkpt lat="43.8502" lon="6.19249">
        <ele>691.9</ele>
        <time>2020-03-04T11:09:54Z</time>
      </trkpt>
      <trkpt lat="43.84998" lon="6.19322">
        <ele>673.7</ele>
        <time>2020-03-04T11:09:54Z</time>
      </trkpt>
      <trkpt lat="43.85005" lon="6.19346">
        <ele>666.7</ele>
        <time>2020-03-04T11:09:54Z</time>
      </trkpt>
      <trkpt lat="43.84991" lon="6.19368">
        <ele>665.2</ele>
        <time>2020-03-04T11:09:54Z</time>
      </trkpt>
      <trkpt lat="43.85005" lon="6.194">
        <ele>657.2</ele>
        <time>2020-03-04T11:09:54Z</time>
      </trkpt>
      <trkpt lat="43.84991" lon="6.19458">
        <ele>648.4</ele>
        <time>2020-03-04T11:09:54Z</time>
      </trkpt>
      <trkpt lat="43.84997" lon="6.1949">
        <ele>642</ele>
      </trkpt>
      <trkpt lat="43.8501" lon="6.19534">
        <ele>633.9</ele>
        <time>2020-03-04T11:09:54Z</time>
      </trkpt>
      <trkpt lat="43.84968" lon="6.19656">
        <ele>618.4</ele>
        <time>2020-03-04T11:09:54Z</time>
      </trkpt>
      <trkpt lat="43.84936" lon="6.19684">
        <ele>614.9</ele>
      </trkpt>
      <trkpt lat="43.84846" lon="6.19883">
        <ele>608.3</ele>
      </trkpt>
      <trkpt lat="43.84658" lon="6.20228">
        <ele>599.1</ele>
      </trkpt>
      <trkpt lat="43.84629" lon="6.2028">
        <ele>597.2</ele>
      </trkpt>
      <trkpt lat="43.84607" lon="6.2032">
        <ele>595.5</ele>
        <time>2020-03-04T11:09:54Z</time>
      </trkpt>
      <trkpt lat="43.84619" lon="6.20361">
        <ele>598.2</ele>
        <time>2020-03-04T11:09:54Z</time>
      </trkpt>
      <trkpt lat="43.84617" lon="6.20389">
        <ele>599.5</ele>
      </trkpt>
      <trkpt lat="43.84589" lon="6.20425">
        <ele>599.2</ele>
        <time>2020-03-04T11:09:54Z</time>
      </trkpt>
      <trkpt lat="43.8456" lon="6.20443">
        <ele>597.8</ele>
        <time>2020-03-04T11:09:54Z</time>
      </trkpt>
      <trkpt lat="43.84527" lon="6.20473">
        <ele>595.7</ele>
        <time>2020-03-04T11:09:54Z</time>
      </trkpt>
      <trkpt lat="43.84495" lon="6.20511">
        <ele>592.9</ele>
        <time>2020-03-04T11:09:54Z</time>
      </trkpt>
      <trkpt lat="43.84471" lon="6.20535">
        <ele>590.9</ele>
      </trkpt>
      <trkpt lat="43.84471" lon="6.20535">
        <ele>590.9</ele>
        <time>2020-03-04T11:09:54Z</time>
      </trkpt>
      <trkpt lat="43.84459" lon="6.20563">
        <ele>590.1</ele>
        <time>2020-03-04T11:09:54Z</time>
      </trkpt>
      <trkpt lat="43.84459" lon="6.20563">
        <ele>590.1</ele>
      </trkpt>
      <trkpt lat="43.8445" lon="6.20577">
        <ele>589.2</ele>
        <time>2020-03-04T11:09:54Z</time>
      </trkpt>
      <trkpt lat="43.84438" lon="6.20629">
        <ele>587.8</ele>
        <time>2020-03-04T11:09:54Z</time>
      </trkpt>
      <trkpt lat="43.84417" lon="6.20678">
        <ele>584.4</ele>
        <time>2020-03-04T11:09:54Z</time>
      </trkpt>
      <trkpt lat="43.84399" lon="6.20718">
        <ele>583.9</ele>
        <time>2020-03-04T11:09:54Z</time>
      </trkpt>
      <trkpt lat="43.84383" lon="6.20756">
        <ele>583.5</ele>
        <time>2020-03-04T11:09:54Z</time>
      </trkpt>
      <trkpt lat="43.84366" lon="6.20792">
        <ele>584.3</ele>
        <time>2020-03-04T11:09:54Z</time>
      </trkpt>
      <trkpt lat="43.8435" lon="6.20846">
        <ele>586</ele>
        <time>2020-03-04T11:09:54Z</time>
      </trkpt>
      <trkpt lat="43.84351" lon="6.20854">
        <ele>586.8</ele>
      </trkpt>
      <trkpt lat="43.84338" lon="6.20886">
        <ele>587.5</ele>
        <time>2020-03-04T11:09:54Z</time>
      </trkpt>
      <trkpt lat="43.84328" lon="6.20932">
        <ele>589.4</ele>
        <time>2020-03-04T11:09:54Z</time>
      </trkpt>
      <trkpt lat="43.84318" lon="6.20958">
        <ele>589.8</ele>
        <time>2020-03-04T11:09:54Z</time>
      </trkpt>
      <trkpt lat="43.84312" lon="6.20983">
        <ele>590.7</ele>
      </trkpt>
      <trkpt lat="43.84297" lon="6.21017">
        <ele>589.7</ele>
        <time>2020-03-04T11:09:54Z</time>
      </trkpt>
      <trkpt lat="43.8428" lon="6.21073">
        <ele>589.6</ele>
        <time>2020-03-04T11:09:54Z</time>
      </trkpt>
      <trkpt lat="43.84262" lon="6.21131">
        <ele>590.8</ele>
        <time>2020-03-04T11:09:54Z</time>
      </trkpt>
      <trkpt lat="43.84246" lon="6.21183">
        <ele>591.4</ele>
        <time>2020-03-04T11:09:54Z</time>
      </trkpt>
      <trkpt lat="43.84232" lon="6.21223">
        <ele>589.2</ele>
        <time>2020-03-04T11:09:54Z</time>
      </trkpt>
      <trkpt lat="43.84224" lon="6.21253">
        <ele>588.1</ele>
        <time>2020-03-04T11:09:54Z</time>
      </trkpt>
      <trkpt lat="43.84215" lon="6.21291">
        <ele>583.2</ele>
        <time>2020-03-04T11:09:54Z</time>
      </trkpt>
      <trkpt lat="43.84212" lon="6.21375">
        <ele>576.1</ele>
        <time>2020-03-04T11:09:54Z</time>
      </trkpt>
      <trkpt lat="43.84213" lon="6.21376">
        <ele>576.1</ele>
      </trkpt>
      <trkpt lat="43.84211" lon="6.21372">
        <ele>576.3</ele>
      </trkpt>
      <trkpt lat="43.84198" lon="6.21361">
        <ele>576</ele>
      </trkpt>
      <trkpt lat="43.84188" lon="6.21356">
        <ele>575.6</ele>
      </trkpt>
      <trkpt lat="43.84168" lon="6.21329">
        <ele>575.3</ele>
      </trkpt>
      <trkpt lat="43.84165" lon="6.21319">
        <ele>575.2</ele>
      </trkpt>
      <trkpt lat="43.84161" lon="6.21308">
        <ele>575</ele>
      </trkpt>
      <trkpt lat="43.84138" lon="6.2122">
        <ele>571.2</ele>
      </trkpt>
      <trkpt lat="43.84123" lon="6.2116">
        <ele>566.4</ele>
      </trkpt>
      <trkpt lat="43.84121" lon="6.21151">
        <ele>565.8</ele>
      </trkpt>
      <trkpt lat="43.84111" lon="6.21137">
        <ele>564.1</ele>
      </trkpt>
      <trkpt lat="43.84105" lon="6.21139">
        <ele>563.2</ele>
      </trkpt>
      <trkpt lat="43.84104" lon="6.21141">
        <ele>563.2</ele>
      </trkpt>
      <trkpt lat="43.84105" lon="6.21143">
        <ele>563.2</ele>
      </trkpt>
      <trkpt lat="43.84099" lon="6.21156">
        <ele>562.6</ele>
      </trkpt>
      <trkpt lat="43.84082" lon="6.2119">
        <ele>560.5</ele>
      </trkpt>
      <trkpt lat="43.84057" lon="6.21233">
        <ele>559.9</ele>
      </trkpt>
      <trkpt lat="43.84024" lon="6.21288">
        <ele>557.4</ele>
      </trkpt>
      <trkpt lat="43.83998" lon="6.2133">
        <ele>555</ele>
      </trkpt>
      <trkpt lat="43.83975" lon="6.21367">
        <ele>555.3</ele>
      </trkpt>
      <trkpt lat="43.83947" lon="6.21416">
        <ele>554.2</ele>
      </trkpt>
      <trkpt lat="43.83911" lon="6.21475">
        <ele>551.1</ele>
      </trkpt>
      <trkpt lat="43.83876" lon="6.21518">
        <ele>549.4</ele>
      </trkpt>
      <trkpt lat="43.83847" lon="6.2153">
        <ele>548.2</ele>
      </trkpt>
      <trkpt lat="43.83821" lon="6.21542">
        <ele>547.3</ele>
      </trkpt>
      <trkpt lat="43.83795" lon="6.21554">
        <ele>546.6</ele>
      </trkpt>
      <trkpt lat="43.83762" lon="6.21566">
        <ele>545.7</ele>
      </trkpt>
      <trkpt lat="43.8373" lon="6.21581">
        <ele>544.8</ele>
      </trkpt>
      <trkpt lat="43.8371" lon="6.21604">
        <ele>544.5</ele>
      </trkpt>
      <trkpt lat="43.83706" lon="6.21612">
        <ele>544.5</ele>
      </trkpt>
      <trkpt lat="43.83698" lon="6.21628">
        <ele>544.3</ele>
      </trkpt>
      <trkpt lat="43.83679" lon="6.21663">
        <ele>543.5</ele>
      </trkpt>
      <trkpt lat="43.83664" lon="6.21677">
        <ele>543.2</ele>
      </trkpt>
      <trkpt lat="43.83641" lon="6.21702">
        <ele>543.4</ele>
      </trkpt>
      <trkpt lat="43.83614" lon="6.2176">
        <ele>544.9</ele>
      </trkpt>
      <trkpt lat="43.83593" lon="6.2178">
        <ele>545.1</ele>
      </trkpt>
      <trkpt lat="43.83586" lon="6.21783">
        <ele>544.9</ele>
      </trkpt>
      <trkpt lat="43.83541" lon="6.21793">
        <ele>543</ele>
      </trkpt>
      <trkpt lat="43.83523" lon="6.21795">
        <ele>542.2</ele>
      </trkpt>
      <trkpt lat="43.8352" lon="6.21793">
        <ele>542</ele>
      </trkpt>
      <trkpt lat="43.83519" lon="6.21794">
        <ele>542</ele>
      </trkpt>
      <trkpt lat="43.83517" lon="6.21792">
        <ele>541.8</ele>
      </trkpt>
      <trkpt lat="43.83507" lon="6.2179">
        <ele>541.2</ele>
      </trkpt>
      <trkpt lat="43.83489" lon="6.21783">
        <ele>540.1</ele>
      </trkpt>
      <trkpt lat="43.83456" lon="6.21775">
        <ele>538.6</ele>
      </trkpt>
      <trkpt lat="43.83416" lon="6.21768">
        <ele>537.2</ele>
      </trkpt>
      <trkpt lat="43.83384" lon="6.21765">
        <ele>536.3</ele>
      </trkpt>
      <trkpt lat="43.83343" lon="6.21756">
        <ele>535.2</ele>
      </trkpt>
      <trkpt lat="43.83308" lon="6.2175">
        <ele>533.8</ele>
      </trkpt>
      <trkpt lat="43.83275" lon="6.21748">
        <ele>532.4</ele>
      </trkpt>
      <trkpt lat="43.83234" lon="6.21759">
        <ele>530.7</ele>
      </trkpt>
      <trkpt lat="43.83195" lon="6.21776">
        <ele>529.8</ele>
      </trkpt>
      <trkpt lat="43.83169" lon="6.21786">
        <ele>529.2</ele>
      </trkpt>
      <trkpt lat="43.83167" lon="6.21786">
        <ele>529.2</ele>
      </trkpt>
      <trkpt lat="43.83167" lon="6.21786">
        <ele>529.2</ele>
      </trkpt>
      <trkpt lat="43.83175" lon="6.2179">
        <ele>529.2</ele>
      </trkpt>
      <trkpt lat="43.83174" lon="6.21797">
        <ele>529</ele>
      </trkpt>
      <trkpt lat="43.8316" lon="6.21832">
        <ele>528</ele>
      </trkpt>
      <trkpt lat="43.83136" lon="6.21881">
        <ele>527.1</ele>
      </trkpt>
      <trkpt lat="43.83114" lon="6.2191">
        <ele>526.4</ele>
      </trkpt>
      <trkpt lat="43.8309" lon="6.21923">
        <ele>526</ele>
      </trkpt>
      <trkpt lat="43.83077" lon="6.21925">
        <ele>526.1</ele>
      </trkpt>
      <trkpt lat="43.83067" lon="6.21924">
        <ele>526.5</ele>
      </trkpt>
      <trkpt lat="43.83044" lon="6.21925">
        <ele>527.4</ele>
      </trkpt>
      <trkpt lat="43.83036" lon="6.21921">
        <ele>527.7</ele>
      </trkpt>
      <trkpt lat="43.82995" lon="6.21902">
        <ele>528.9</ele>
      </trkpt>
      <trkpt lat="43.82987" lon="6.21899">
        <ele>528.8</ele>
      </trkpt>
      <trkpt lat="43.82985" lon="6.21896">
        <ele>528.8</ele>
      </trkpt>
      <trkpt lat="43.82982" lon="6.21894">
        <ele>528.8</ele>
      </trkpt>
      <trkpt lat="43.82977" lon="6.21899">
        <ele>528.7</ele>
      </trkpt>
      <trkpt lat="43.82963" lon="6.21916">
        <ele>528.1</ele>
      </trkpt>
      <trkpt lat="43.82951" lon="6.21923">
        <ele>527.7</ele>
      </trkpt>
      <trkpt lat="43.82946" lon="6.21915">
        <ele>527.8</ele>
      </trkpt>
      <trkpt lat="43.82941" lon="6.21904">
        <ele>528</ele>
      </trkpt>
      <trkpt lat="43.82937" lon="6.21903">
        <ele>528</ele>
      </trkpt>
      <trkpt lat="43.82922" lon="6.21899">
        <ele>527.9</ele>
      </trkpt>
      <trkpt lat="43.829" lon="6.21905">
        <ele>527.2</ele>
      </trkpt>
      <trkpt lat="43.8288" lon="6.2191">
        <ele>526.4</ele>
      </trkpt>
      <trkpt lat="43.82859" lon="6.21916">
        <ele>525.7</ele>
      </trkpt>
      <trkpt lat="43.82842" lon="6.2193">
        <ele>525</ele>
      </trkpt>
      <trkpt lat="43.82831" lon="6.21958">
        <ele>524.4</ele>
      </trkpt>
      <trkpt lat="43.82814" lon="6.21983">
        <ele>523.3</ele>
      </trkpt>
      <trkpt lat="43.82805" lon="6.21996">
        <ele>522.7</ele>
      </trkpt>
      <trkpt lat="43.8279" lon="6.22012">
        <ele>521.7</ele>
      </trkpt>
      <trkpt lat="43.82765" lon="6.22025">
        <ele>520.4</ele>
      </trkpt>
      <trkpt lat="43.8275" lon="6.22037">
        <ele>519.6</ele>
      </trkpt>
      <trkpt lat="43.82737" lon="6.22052">
        <ele>518.8</ele>
      </trkpt>
      <trkpt lat="43.82725" lon="6.22072">
        <ele>518</ele>
      </trkpt>
      <trkpt lat="43.8271" lon="6.22083">
        <ele>517.1</ele>
      </trkpt>
      <trkpt lat="43.82694" lon="6.22077">
        <ele>516.4</ele>
      </trkpt>
      <trkpt lat="43.82684" lon="6.22071">
        <ele>516.1</ele>
      </trkpt>
      <trkpt lat="43.82674" lon="6.22065">
        <ele>515.8</ele>
      </trkpt>
      <trkpt lat="43.82637" lon="6.22051">
        <ele>514.9</ele>
      </trkpt>
      <trkpt lat="43.8262" lon="6.22041">
        <ele>514.7</ele>
      </trkpt>
      <trkpt lat="43.82612" lon="6.22038">
        <ele>514.5</ele>
      </trkpt>
      <trkpt lat="43.82588" lon="6.22031">
        <ele>514.1</ele>
      </trkpt>
      <trkpt lat="43.82568" lon="6.22031">
        <ele>515</ele>
      </trkpt>
      <trkpt lat="43.82544" lon="6.22037">
        <ele>516.1</ele>
      </trkpt>
      <trkpt lat="43.82514" lon="6.22043">
        <ele>517.1</ele>
      </trkpt>
      <trkpt lat="43.82471" lon="6.22059">
        <ele>515.9</ele>
      </trkpt>
      <trkpt lat="43.82456" lon="6.22062">
        <ele>515.5</ele>
      </trkpt>
      <trkpt lat="43.82449" lon="6.22064">
        <ele>515.4</ele>
      </trkpt>
      <trkpt lat="43.82422" lon="6.22087">
        <ele>512.7</ele>
      </trkpt>
      <trkpt lat="43.82416" lon="6.22105">
        <ele>512</ele>
      </trkpt>
      <trkpt lat="43.82408" lon="6.22132">
        <ele>510.8</ele>
      </trkpt>
      <trkpt lat="43.82391" lon="6.22147">
        <ele>510.3</ele>
      </trkpt>
      <trkpt lat="43.82385" lon="6.22146">
        <ele>510.5</ele>
      </trkpt>
      <trkpt lat="43.82379" lon="6.22145">
        <ele>510.6</ele>
      </trkpt>
      <trkpt lat="43.82347" lon="6.2215">
        <ele>510.8</ele>
      </trkpt>
      <trkpt lat="43.82343" lon="6.22154">
        <ele>510.6</ele>
      </trkpt>
      <trkpt lat="43.82326" lon="6.2217">
        <ele>509.9</ele>
      </trkpt>
      <trkpt lat="43.82324" lon="6.22171">
        <ele>509.8</ele>
      </trkpt>
      <trkpt lat="43.82325" lon="6.22172">
        <ele>509.8</ele>
      </trkpt>
      <trkpt lat="43.82326" lon="6.22185">
        <ele>509.7</ele>
      </trkpt>
      <trkpt lat="43.82322" lon="6.22196">
        <ele>509.4</ele>
      </trkpt>
      <trkpt lat="43.82309" lon="6.22205">
        <ele>508.9</ele>
      </trkpt>
      <trkpt lat="43.82304" lon="6.22205">
        <ele>508.7</ele>
      </trkpt>
      <trkpt lat="43.82278" lon="6.22213">
        <ele>507.7</ele>
      </trkpt>
      <trkpt lat="43.82269" lon="6.22219">
        <ele>507.2</ele>
      </trkpt>
      <trkpt lat="43.82244" lon="6.22228">
        <ele>506.1</ele>
      </trkpt>
      <trkpt lat="43.82218" lon="6.22223">
        <ele>506.6</ele>
      </trkpt>
      <trkpt lat="43.82198" lon="6.22222">
        <ele>506.8</ele>
      </trkpt>
      <trkpt lat="43.82184" lon="6.22224">
        <ele>506.7</ele>
      </trkpt>
      <trkpt lat="43.82142" lon="6.22233">
        <ele>506.6</ele>
      </trkpt>
      <trkpt lat="43.82102" lon="6.22251">
        <ele>505</ele>
      </trkpt>
      <trkpt lat="43.82071" lon="6.22274">
        <ele>505.1</ele>
      </trkpt>
      <trkpt lat="43.82037" lon="6.22299">
        <ele>503.2</ele>
      </trkpt>
      <trkpt lat="43.82032" lon="6.22303">
        <ele>502.8</ele>
      </trkpt>
      <trkpt lat="43.82008" lon="6.22314">
        <ele>500.5</ele>
      </trkpt>
      <trkpt lat="43.81981" lon="6.22323">
        <ele>498.9</ele>
      </trkpt>
      <trkpt lat="43.81965" lon="6.2233">
        <ele>498</ele>
      </trkpt>
      <trkpt lat="43.81954" lon="6.22338">
        <ele>497.4</ele>
      </trkpt>
      <trkpt lat="43.81939" lon="6.22355">
        <ele>497</ele>
      </trkpt>
      <trkpt lat="43.8193" lon="6.2237">
        <ele>496.7</ele>
      </trkpt>
      <trkpt lat="43.81901" lon="6.22401">
        <ele>496.2</ele>
      </trkpt>
      <trkpt lat="43.81891" lon="6.2241">
        <ele>496.1</ele>
      </trkpt>
      <trkpt lat="43.81878" lon="6.22408">
        <ele>496.2</ele>
      </trkpt>
      <trkpt lat="43.81859" lon="6.22408">
        <ele>496.2</ele>
      </trkpt>
      <trkpt lat="43.81852" lon="6.22414">
        <ele>496.1</ele>
      </trkpt>
      <trkpt lat="43.81835" lon="6.22426">
        <ele>496.1</ele>
      </trkpt>
      <trkpt lat="43.81817" lon="6.22424">
        <ele>495.9</ele>
      </trkpt>
      <trkpt lat="43.81812" lon="6.2242">
        <ele>495.8</ele>
      </trkpt>
      <trkpt lat="43.8179" lon="6.22418">
        <ele>495.5</ele>
      </trkpt>
      <trkpt lat="43.81766" lon="6.22429">
        <ele>495.2</ele>
      </trkpt>
      <trkpt lat="43.81761" lon="6.22433">
        <ele>495.2</ele>
      </trkpt>
      <trkpt lat="43.81742" lon="6.22443">
        <ele>495.1</ele>
      </trkpt>
      <trkpt lat="43.81727" lon="6.22455">
        <ele>495.2</ele>
      </trkpt>
      <trkpt lat="43.81712" lon="6.22464">
        <ele>495.2</ele>
      </trkpt>
      <trkpt lat="43.81686" lon="6.22471">
        <ele>495.3</ele>
      </trkpt>
      <trkpt lat="43.81676" lon="6.22469">
        <ele>495.3</ele>
      </trkpt>
      <trkpt lat="43.81649" lon="6.2248">
        <ele>494.8</ele>
      </trkpt>
      <trkpt lat="43.81644" lon="6.22484">
        <ele>494.5</ele>
      </trkpt>
      <trkpt lat="43.81622" lon="6.22507">
        <ele>493.4</ele>
      </trkpt>
      <trkpt lat="43.81607" lon="6.22518">
        <ele>492.8</ele>
      </trkpt>
      <trkpt lat="43.81594" lon="6.22537">
        <ele>492.4</ele>
      </trkpt>
      <trkpt lat="43.81591" lon="6.22543">
        <ele>492.3</ele>
      </trkpt>
      <trkpt lat="43.81565" lon="6.22563">
        <ele>491.9</ele>
      </trkpt>
      <trkpt lat="43.81543" lon="6.22572">
        <ele>491.7</ele>
      </trkpt>
      <trkpt lat="43.81523" lon="6.2258">
        <ele>491.3</ele>
      </trkpt>
      <trkpt lat="43.8151" lon="6.22593">
        <ele>492.2</ele>
      </trkpt>
      <trkpt lat="43.81495" lon="6.22598">
        <ele>492.7</ele>
      </trkpt>
      <trkpt lat="43.81487" lon="6.22596">
        <ele>492.5</ele>
      </trkpt>
      <trkpt lat="43.81481" lon="6.22587">
        <ele>491.6</ele>
      </trkpt>
      <trkpt lat="43.8148" lon="6.22581">
        <ele>491.3</ele>
      </trkpt>
      <trkpt lat="43.81474" lon="6.22544">
        <ele>492.3</ele>
      </trkpt>
      <trkpt lat="43.81464" lon="6.22526">
        <ele>492.8</ele>
      </trkpt>
      <trkpt lat="43.81451" lon="6.22527">
        <ele>493</ele>
      </trkpt>
      <trkpt lat="43.81435" lon="6.22532">
        <ele>493</ele>
      </trkpt>
      <trkpt lat="43.81418" lon="6.22533">
        <ele>493.2</ele>
      </trkpt>
      <trkpt lat="43.81399" lon="6.22537">
        <ele>492.7</ele>
      </trkpt>
      <trkpt lat="43.81371" lon="6.22533">
        <ele>492</ele>
      </trkpt>
      <trkpt lat="43.81341" lon="6.22535">
        <ele>491.2</ele>
      </trkpt>
      <trkpt lat="43.81326" lon="6.22541">
        <ele>490.7</ele>
      </trkpt>
      <trkpt lat="43.81298" lon="6.22536">
        <ele>489.5</ele>
      </trkpt>
      <trkpt lat="43.81282" lon="6.22525">
        <ele>488.7</ele>
      </trkpt>
      <trkpt lat="43.81252" lon="6.22511">
        <ele>487.2</ele>
      </trkpt>
      <trkpt lat="43.81241" lon="6.22511">
        <ele>487.2</ele>
      </trkpt>
      <trkpt lat="43.81216" lon="6.22506">
        <ele>487.4</ele>
      </trkpt>
      <trkpt lat="43.81185" lon="6.22516">
        <ele>487.7</ele>
      </trkpt>
      <trkpt lat="43.81165" lon="6.22527">
        <ele>487.6</ele>
      </trkpt>
      <trkpt lat="43.81143" lon="6.22532">
        <ele>486.6</ele>
      </trkpt>
      <trkpt lat="43.81124" lon="6.22527">
        <ele>485.8</ele>
      </trkpt>
      <trkpt lat="43.81118" lon="6.2252">
        <ele>485.6</ele>
      </trkpt>
      <trkpt lat="43.81105" lon="6.22514">
        <ele>485</ele>
      </trkpt>
      <trkpt lat="43.81104" lon="6.22513">
        <ele>485</ele>
      </trkpt>
      <trkpt lat="43.81103" lon="6.2251">
        <ele>484.9</ele>
      </trkpt>
      <trkpt lat="43.81098" lon="6.22508">
        <ele>484.7</ele>
      </trkpt>
      <trkpt lat="43.81084" lon="6.22499">
        <ele>484</ele>
      </trkpt>
      <trkpt lat="43.81062" lon="6.22496">
        <ele>483.2</ele>
      </trkpt>
      <trkpt lat="43.81029" lon="6.22499">
        <ele>482.1</ele>
      </trkpt>
      <trkpt lat="43.81004" lon="6.22503">
        <ele>481.2</ele>
      </trkpt>
      <trkpt lat="43.80984" lon="6.225">
        <ele>481.4</ele>
      </trkpt>
      <trkpt lat="43.80966" lon="6.22488">
        <ele>482</ele>
      </trkpt>
      <trkpt lat="43.80944" lon="6.22475">
        <ele>482.8</ele>
      </trkpt>
      <trkpt lat="43.80914" lon="6.22472">
        <ele>483.7</ele>
      </trkpt>
      <trkpt lat="43.80879" lon="6.22469">
        <ele>483.4</ele>
      </trkpt>
      <trkpt lat="43.80869" lon="6.22468">
        <ele>483.4</ele>
      </trkpt>
      <trkpt lat="43.80851" lon="6.22457">
        <ele>484.2</ele>
      </trkpt>
      <trkpt lat="43.80847" lon="6.22451">
        <ele>484.7</ele>
      </trkpt>
      <trkpt lat="43.80826" lon="6.22431">
        <ele>486.1</ele>
      </trkpt>
      <trkpt lat="43.8081" lon="6.22413">
        <ele>486.5</ele>
      </trkpt>
      <trkpt lat="43.80783" lon="6.22384">
        <ele>485.7</ele>
      </trkpt>
      <trkpt lat="43.80779" lon="6.22372">
        <ele>485.9</ele>
      </trkpt>
      <trkpt lat="43.8078" lon="6.22369">
        <ele>486.1</ele>
      </trkpt>
      <trkpt lat="43.80781" lon="6.2237">
        <ele>486</ele>
      </trkpt>
      <trkpt lat="43.80785" lon="6.22361">
        <ele>486.7</ele>
      </trkpt>
      <trkpt lat="43.80793" lon="6.22338">
        <ele>487.9</ele>
      </trkpt>
      <trkpt lat="43.80796" lon="6.22313">
        <ele>489.9</ele>
      </trkpt>
      <trkpt lat="43.80789" lon="6.22299">
        <ele>490.9</ele>
      </trkpt>
      <trkpt lat="43.8077" lon="6.2229">
        <ele>491.5</ele>
      </trkpt>
      <trkpt lat="43.80747" lon="6.22278">
        <ele>492.5</ele>
      </trkpt>
      <trkpt lat="43.80708" lon="6.22259">
        <ele>492.4</ele>
      </trkpt>
      <trkpt lat="43.80672" lon="6.22243">
        <ele>492.5</ele>
      </trkpt>
      <trkpt lat="43.80663" lon="6.2224">
        <ele>492.1</ele>
      </trkpt>
      <trkpt lat="43.80654" lon="6.22235">
        <ele>491.9</ele>
      </trkpt>
      <trkpt lat="43.80637" lon="6.22216">
        <ele>492.6</ele>
      </trkpt>
      <trkpt lat="43.80627" lon="6.22193">
        <ele>494.2</ele>
      </trkpt>
      <trkpt lat="43.80627" lon="6.22171">
        <ele>496.9</ele>
      </trkpt>
      <trkpt lat="43.80631" lon="6.22145">
        <ele>500.6</ele>
      </trkpt>
      <trkpt lat="43.80636" lon="6.22127">
        <ele>503.7</ele>
      </trkpt>
      <trkpt lat="43.80644" lon="6.22106">
        <ele>507.8</ele>
      </trkpt>
      <trkpt lat="43.80652" lon="6.22074">
        <ele>511.4</ele>
      </trkpt>
      <trkpt lat="43.80649" lon="6.22041">
        <ele>508.8</ele>
      </trkpt>
      <trkpt lat="43.80645" lon="6.22012">
        <ele>506.1</ele>
      </trkpt>
      <trkpt lat="43.80638" lon="6.21977">
        <ele>501.6</ele>
      </trkpt>
      <trkpt lat="43.80632" lon="6.21945">
        <ele>497.3</ele>
      </trkpt>
      <trkpt lat="43.80616" lon="6.21909">
        <ele>492.9</ele>
      </trkpt>
      <trkpt lat="43.80605" lon="6.21897">
        <ele>492.4</ele>
      </trkpt>
      <trkpt lat="43.80577" lon="6.21876">
        <ele>491.1</ele>
      </trkpt>
      <trkpt lat="43.80573" lon="6.21873">
        <ele>490.8</ele>
      </trkpt>
      <trkpt lat="43.80559" lon="6.2187">
        <ele>489.1</ele>
      </trkpt>
      <trkpt lat="43.80549" lon="6.21867">
        <ele>488</ele>
      </trkpt>
      <trkpt lat="43.80543" lon="6.21851">
        <ele>488</ele>
      </trkpt>
      <trkpt lat="43.80542" lon="6.21837">
        <ele>488.9</ele>
      </trkpt>
      <trkpt lat="43.80543" lon="6.21829">
        <ele>489.5</ele>
      </trkpt>
      <trkpt lat="43.80548" lon="6.21798">
        <ele>492.3</ele>
      </trkpt>
      <trkpt lat="43.80557" lon="6.21756">
        <ele>497.2</ele>
      </trkpt>
      <trkpt lat="43.80554" lon="6.21718">
        <ele>497.9</ele>
      </trkpt>
      <trkpt lat="43.80551" lon="6.21701">
        <ele>497.4</ele>
      </trkpt>
      <trkpt lat="43.80547" lon="6.21676">
        <ele>497.3</ele>
      </trkpt>
      <trkpt lat="43.80543" lon="6.21665">
        <ele>496.6</ele>
      </trkpt>
      <trkpt lat="43.80536" lon="6.21641">
        <ele>495.3</ele>
      </trkpt>
      <trkpt lat="43.80522" lon="6.21618">
        <ele>492.5</ele>
      </trkpt>
      <trkpt lat="43.80513" lon="6.21613">
        <ele>490.3</ele>
      </trkpt>
      <trkpt lat="43.80493" lon="6.21585">
        <ele>487.1</ele>
      </trkpt>
      <trkpt lat="43.80487" lon="6.21574">
        <ele>486.7</ele>
      </trkpt>
      <trkpt lat="43.8047" lon="6.21527">
        <ele>486</ele>
      </trkpt>
      <trkpt lat="43.80466" lon="6.21508">
        <ele>486.2</ele>
      </trkpt>
      <trkpt lat="43.80471" lon="6.21509">
        <ele>486.6</ele>
      </trkpt>
      <trkpt lat="43.80487" lon="6.2151">
        <ele>488.4</ele>
      </trkpt>
      <trkpt lat="43.80504" lon="6.21509">
        <ele>490.5</ele>
      </trkpt>
      <trkpt lat="43.80517" lon="6.21501">
        <ele>492.6</ele>
      </trkpt>
      <trkpt lat="43.80514" lon="6.21483">
        <ele>494.1</ele>
      </trkpt>
      <trkpt lat="43.80512" lon="6.2148">
        <ele>494.3</ele>
      </trkpt>
      <trkpt lat="43.80496" lon="6.21464">
        <ele>494.3</ele>
      </trkpt>
      <trkpt lat="43.80481" lon="6.21449">
        <ele>494.1</ele>
      </trkpt>
      <trkpt lat="43.80477" lon="6.21445">
        <ele>493.9</ele>
      </trkpt>
      <trkpt lat="43.80477" lon="6.21438">
        <ele>494.7</ele>
      </trkpt>
      <trkpt lat="43.80483" lon="6.21432">
        <ele>496.5</ele>
      </trkpt>
      <trkpt lat="43.8049" lon="6.21421">
        <ele>498.9</ele>
      </trkpt>
      <trkpt lat="43.80498" lon="6.2141">
        <ele>501.9</ele>
      </trkpt>
      <trkpt lat="43.80504" lon="6.21399">
        <ele>504</ele>
      </trkpt>
      <trkpt lat="43.80506" lon="6.21396">
        <ele>504.7</ele>
      </trkpt>
      <trkpt lat="43.80513" lon="6.21383">
        <ele>506.9</ele>
      </trkpt>
      <trkpt lat="43.80517" lon="6.21378">
        <ele>507.9</ele>
      </trkpt>
      <trkpt lat="43.80518" lon="6.21377">
        <ele>508.2</ele>
      </trkpt>
      <trkpt lat="43.80522" lon="6.21379">
        <ele>508.1</ele>
      </trkpt>
      <trkpt lat="43.80527" lon="6.21379">
        <ele>508.2</ele>
      </trkpt>
      <trkpt lat="43.80533" lon="6.21376">
        <ele>509.1</ele>
      </trkpt>
      <trkpt lat="43.80545" lon="6.21378">
        <ele>509.2</ele>
      </trkpt>
      <trkpt lat="43.80556" lon="6.2138">
        <ele>509.5</ele>
      </trkpt>
      <trkpt lat="43.80564" lon="6.21381">
        <ele>509.7</ele>
      </trkpt>
      <trkpt lat="43.80568" lon="6.21387">
        <ele>508.7</ele>
      </trkpt>
      <trkpt lat="43.80578" lon="6.21386">
        <ele>509.4</ele>
      </trkpt>
      <trkpt lat="43.8058" lon="6.21385">
        <ele>509.7</ele>
      </trkpt>
      <trkpt lat="43.80584" lon="6.21386">
        <ele>509.7</ele>
      </trkpt>
      <trkpt lat="43.80591" lon="6.21382">
        <ele>511.1</ele>
      </trkpt>
      <trkpt lat="43.80592" lon="6.21381">
        <ele>511.4</ele>
      </trkpt>
      <trkpt lat="43.80599" lon="6.21373">
        <ele>513.2</ele>
      </trkpt>
      <trkpt lat="43.80604" lon="6.21365">
        <ele>514.4</ele>
      </trkpt>
      <trkpt lat="43.8061" lon="6.21356">
        <ele>515.6</ele>
      </trkpt>
      <trkpt lat="43.80614" lon="6.21353">
        <ele>515.9</ele>
      </trkpt>
      <trkpt lat="43.80617" lon="6.21345">
        <ele>516.6</ele>
      </trkpt>
      <trkpt lat="43.80618" lon="6.21343">
        <ele>516.7</ele>
      </trkpt>
      <trkpt lat="43.80618" lon="6.21331">
        <ele>517.6</ele>
      </trkpt>
      <trkpt lat="43.8062" lon="6.21323">
        <ele>518.2</ele>
      </trkpt>
      <trkpt lat="43.80621" lon="6.21322">
        <ele>518.3</ele>
      </trkpt>
      <trkpt lat="43.80625" lon="6.21307">
        <ele>519.4</ele>
      </trkpt>
      <trkpt lat="43.80627" lon="6.21297">
        <ele>520.1</ele>
      </trkpt>
      <trkpt lat="43.80629" lon="6.2129">
        <ele>520.7</ele>
      </trkpt>
      <trkpt lat="43.80631" lon="6.21279">
        <ele>521.3</ele>
      </trkpt>
      <trkpt lat="43.80632" lon="6.21276">
        <ele>521.4</ele>
      </trkpt>
      <trkpt lat="43.80635" lon="6.2127">
        <ele>521.6</ele>
      </trkpt>
      <trkpt lat="43.8064" lon="6.21259">
        <ele>521.8</ele>
      </trkpt>
      <trkpt lat="43.80647" lon="6.21248">
        <ele>522</ele>
      </trkpt>
      <trkpt lat="43.80653" lon="6.2124">
        <ele>522.7</ele>
      </trkpt>
      <trkpt lat="43.80655" lon="6.21238">
        <ele>523</ele>
      </trkpt>
      <trkpt lat="43.80659" lon="6.21235">
        <ele>523</ele>
      </trkpt>
      <trkpt lat="43.80665" lon="6.21225">
        <ele>524.2</ele>
      </trkpt>
      <trkpt lat="43.80669" lon="6.21215">
        <ele>526.4</ele>
      </trkpt>
      <trkpt lat="43.80671" lon="6.2121">
        <ele>527.6</ele>
      </trkpt>
      <trkpt lat="43.80676" lon="6.21198">
        <ele>530.1</ele>
      </trkpt>
      <trkpt lat="43.80681" lon="6.21184">
        <ele>532.7</ele>
      </trkpt>
      <trkpt lat="43.80683" lon="6.21175">
        <ele>534.2</ele>
      </trkpt>
      <trkpt lat="43.80683" lon="6.21173">
        <ele>534.4</ele>
      </trkpt>
      <trkpt lat="43.80684" lon="6.21166">
        <ele>535.6</ele>
      </trkpt>
      <trkpt lat="43.80686" lon="6.21158">
        <ele>537.2</ele>
      </trkpt>
      <trkpt lat="43.80687" lon="6.21154">
        <ele>538</ele>
      </trkpt>
      <trkpt lat="43.8069" lon="6.21149">
        <ele>538.9</ele>
      </trkpt>
      <trkpt lat="43.80693" lon="6.21148">
        <ele>539</ele>
      </trkpt>
      <trkpt lat="43.80704" lon="6.21142">
        <ele>539.3</ele>
      </trkpt>
      <trkpt lat="43.80708" lon="6.21138">
        <ele>539.8</ele>
      </trkpt>
      <trkpt lat="43.80709" lon="6.21136">
        <ele>540.2</ele>
      </trkpt>
      <trkpt lat="43.80717" lon="6.2113">
        <ele>540.9</ele>
      </trkpt>
      <trkpt lat="43.80724" lon="6.21122">
        <ele>541.5</ele>
      </trkpt>
      <trkpt lat="43.80731" lon="6.21114">
        <ele>542.4</ele>
      </trkpt>
      <trkpt lat="43.80737" lon="6.21101">
        <ele>543.9</ele>
      </trkpt>
      <trkpt lat="43.80738" lon="6.21098">
        <ele>544.2</ele>
      </trkpt>
      <trkpt lat="43.80741" lon="6.21086">
        <ele>545.9</ele>
      </trkpt>
      <trkpt lat="43.80742" lon="6.21082">
        <ele>546.1</ele>
      </trkpt>
      <trkpt lat="43.80748" lon="6.21065">
        <ele>547.9</ele>
      </trkpt>
      <trkpt lat="43.80758" lon="6.21051">
        <ele>551.4</ele>
      </trkpt>
      <trkpt lat="43.80767" lon="6.21047">
        <ele>553.4</ele>
      </trkpt>
      <trkpt lat="43.80783" lon="6.21031">
        <ele>557.9</ele>
      </trkpt>
      <trkpt lat="43.8079" lon="6.21003">
        <ele>561.6</ele>
      </trkpt>
      <trkpt lat="43.8079" lon="6.20994">
        <ele>562.4</ele>
      </trkpt>
      <trkpt lat="43.808" lon="6.20975">
        <ele>565</ele>
      </trkpt>
      <trkpt lat="43.80815" lon="6.20976">
        <ele>566.5</ele>
      </trkpt>
      <trkpt lat="43.80822" lon="6.20991">
        <ele>566.3</ele>
      </trkpt>
      <trkpt lat="43.80829" lon="6.2101">
        <ele>566.3</ele>
      </trkpt>
      <trkpt lat="43.80841" lon="6.21023">
        <ele>568.3</ele>
      </trkpt>
      <trkpt lat="43.80854" lon="6.2102">
        <ele>571.6</ele>
      </trkpt>
      <trkpt lat="43.80859" lon="6.21014">
        <ele>573</ele>
      </trkpt>
      <trkpt lat="43.80875" lon="6.2099">
        <ele>577.6</ele>
      </trkpt>
      <trkpt lat="43.80882" lon="6.20982">
        <ele>579.9</ele>
      </trkpt>
      <trkpt lat="43.80888" lon="6.20992">
        <ele>580.7</ele>
      </trkpt>
      <trkpt lat="43.80888" lon="6.21007">
        <ele>580.1</ele>
      </trkpt>
      <trkpt lat="43.80887" lon="6.21034">
        <ele>579.6</ele>
      </trkpt>
      <trkpt lat="43.80892" lon="6.21049">
        <ele>580.6</ele>
      </trkpt>
      <trkpt lat="43.80889" lon="6.2107">
        <ele>579.8</ele>
      </trkpt>
      <trkpt lat="43.80888" lon="6.21079">
        <ele>579.4</ele>
      </trkpt>
      <trkpt lat="43.80888" lon="6.21099">
        <ele>579.5</ele>
      </trkpt>
      <trkpt lat="43.80888" lon="6.21115">
        <ele>579.7</ele>
      </trkpt>
      <trkpt lat="43.80889" lon="6.21117">
        <ele>580</ele>
      </trkpt>
      <trkpt lat="43.80896" lon="6.21139">
        <ele>582.3</ele>
      </trkpt>
      <trkpt lat="43.80905" lon="6.21153">
        <ele>585.2</ele>
      </trkpt>
      <trkpt lat="43.80909" lon="6.21164">
        <ele>586.5</ele>
      </trkpt>
      <trkpt lat="43.80917" lon="6.2118">
        <ele>588.8</ele>
      </trkpt>
      <trkpt lat="43.80922" lon="6.21184">
        <ele>588.7</ele>
      </trkpt>
      <trkpt lat="43.80928" lon="6.21202">
        <ele>588.3</ele>
      </trkpt>
      <trkpt lat="43.80929" lon="6.21221">
        <ele>587.9</ele>
      </trkpt>
      <trkpt lat="43.80929" lon="6.21224">
        <ele>587.9</ele>
      </trkpt>
      <trkpt lat="43.80928" lon="6.2124">
        <ele>587.6</ele>
      </trkpt>
      <trkpt lat="43.80927" lon="6.21251">
        <ele>587.4</ele>
      </trkpt>
      <trkpt lat="43.80932" lon="6.2127">
        <ele>585.7</ele>
      </trkpt>
      <trkpt lat="43.80942" lon="6.21284">
        <ele>584.1</ele>
      </trkpt>
      <trkpt lat="43.80948" lon="6.21298">
        <ele>582.6</ele>
      </trkpt>
      <trkpt lat="43.8095" lon="6.21313">
        <ele>581.3</ele>
      </trkpt>
      <trkpt lat="43.80949" lon="6.21329">
        <ele>580.1</ele>
      </trkpt>
      <trkpt lat="43.80952" lon="6.21348">
        <ele>577.8</ele>
      </trkpt>
      <trkpt lat="43.80954" lon="6.21352">
        <ele>577.3</ele>
      </trkpt>
      <trkpt lat="43.80964" lon="6.21355">
        <ele>576.4</ele>
      </trkpt>
      <trkpt lat="43.80986" lon="6.21357">
        <ele>575.1</ele>
      </trkpt>
      <trkpt lat="43.80998" lon="6.2136">
        <ele>574.2</ele>
      </trkpt>
      <trkpt lat="43.81009" lon="6.21366">
        <ele>572.5</ele>
      </trkpt>
      <trkpt lat="43.81017" lon="6.21384">
        <ele>569.9</ele>
      </trkpt>
      <trkpt lat="43.81019" lon="6.214">
        <ele>568.2</ele>
      </trkpt>
      <trkpt lat="43.81029" lon="6.21428">
        <ele>564.1</ele>
      </trkpt>
      <trkpt lat="43.81049" lon="6.21451">
        <ele>558.7</ele>
      </trkpt>
      <trkpt lat="43.81069" lon="6.21458">
        <ele>555.1</ele>
      </trkpt>
      <trkpt lat="43.81083" lon="6.21454">
        <ele>553.5</ele>
      </trkpt>
      <trkpt lat="43.81086" lon="6.2145">
        <ele>553.7</ele>
      </trkpt>
      <trkpt lat="43.81097" lon="6.21436">
        <ele>555.1</ele>
      </trkpt>
      <trkpt lat="43.81101" lon="6.21431">
        <ele>555.4</ele>
      </trkpt>
      <trkpt lat="43.81113" lon="6.21403">
        <ele>558.7</ele>
      </trkpt>
      <trkpt lat="43.81113" lon="6.21393">
        <ele>559.9</ele>
      </trkpt>
      <trkpt lat="43.81121" lon="6.2135">
        <ele>566.2</ele>
      </trkpt>
      <trkpt lat="43.81124" lon="6.2132">
        <ele>570.5</ele>
      </trkpt>
      <trkpt lat="43.8113" lon="6.21318">
        <ele>571</ele>
      </trkpt>
      <trkpt lat="43.81138" lon="6.21331">
        <ele>569.3</ele>
      </trkpt>
      <trkpt lat="43.81141" lon="6.21336">
        <ele>568.7</ele>
      </trkpt>
      <trkpt lat="43.81149" lon="6.21356">
        <ele>566.2</ele>
      </trkpt>
      <trkpt lat="43.81153" lon="6.21381">
        <ele>562.9</ele>
      </trkpt>
      <trkpt lat="43.81161" lon="6.21405">
        <ele>559.6</ele>
      </trkpt>
      <trkpt lat="43.81168" lon="6.21422">
        <ele>558</ele>
      </trkpt>
      <trkpt lat="43.81185" lon="6.21462">
        <ele>559.1</ele>
      </trkpt>
      <trkpt lat="43.812" lon="6.21481">
        <ele>560.9</ele>
      </trkpt>
      <trkpt lat="43.81204" lon="6.21486">
        <ele>561.5</ele>
      </trkpt>
      <trkpt lat="43.81212" lon="6.21499">
        <ele>562.3</ele>
      </trkpt>
      <trkpt lat="43.81217" lon="6.21515">
        <ele>562.6</ele>
      </trkpt>
      <trkpt lat="43.81218" lon="6.2152">
        <ele>562.6</ele>
      </trkpt>
      <trkpt lat="43.81222" lon="6.2152">
        <ele>563.6</ele>
      </trkpt>
      <trkpt lat="43.81227" lon="6.21513">
        <ele>564.8</ele>
      </trkpt>
      <trkpt lat="43.81233" lon="6.21509">
        <ele>566.2</ele>
      </trkpt>
      <trkpt lat="43.8124" lon="6.21502">
        <ele>568</ele>
      </trkpt>
      <trkpt lat="43.8125" lon="6.21495">
        <ele>570.2</ele>
      </trkpt>
      <trkpt lat="43.81257" lon="6.21484">
        <ele>572.3</ele>
      </trkpt>
      <trkpt lat="43.81261" lon="6.21474">
        <ele>573.9</ele>
      </trkpt>
      <trkpt lat="43.81262" lon="6.21462">
        <ele>574.9</ele>
      </trkpt>
      <trkpt lat="43.81262" lon="6.21458">
        <ele>575.1</ele>
      </trkpt>
      <trkpt lat="43.81264" lon="6.21439">
        <ele>576.9</ele>
      </trkpt>
      <trkpt lat="43.81265" lon="6.21437">
        <ele>577.3</ele>
      </trkpt>
      <trkpt lat="43.81266" lon="6.21433">
        <ele>577.7</ele>
      </trkpt>
      <trkpt lat="43.81264" lon="6.2142">
        <ele>578.2</ele>
      </trkpt>
      <trkpt lat="43.81259" lon="6.21402">
        <ele>578</ele>
      </trkpt>
      <trkpt lat="43.81259" lon="6.21385">
        <ele>579.1</ele>
      </trkpt>
      <trkpt lat="43.81255" lon="6.21367">
        <ele>579.1</ele>
      </trkpt>
      <trkpt lat="43.81249" lon="6.21355">
        <ele>578.7</ele>
      </trkpt>
      <trkpt lat="43.81248" lon="6.21344">
        <ele>579.1</ele>
      </trkpt>
      <trkpt lat="43.81245" lon="6.21318">
        <ele>580.6</ele>
      </trkpt>
      <trkpt lat="43.81241" lon="6.21304">
        <ele>581.4</ele>
      </trkpt>
      <trkpt lat="43.81238" lon="6.21301">
        <ele>581.3</ele>
      </trkpt>
      <trkpt lat="43.81233" lon="6.21304">
        <ele>580.6</ele>
      </trkpt>
      <trkpt lat="43.81226" lon="6.2131">
        <ele>579.5</ele>
      </trkpt>
      <trkpt lat="43.81223" lon="6.21311">
        <ele>579</ele>
      </trkpt>
      <trkpt lat="43.81217" lon="6.21306">
        <ele>579</ele>
      </trkpt>
      <trkpt lat="43.81212" lon="6.213">
        <ele>579.2</ele>
      </trkpt>
      <trkpt lat="43.81211" lon="6.21289">
        <ele>580.4</ele>
      </trkpt>
      <trkpt lat="43.81215" lon="6.21276">
        <ele>582.1</ele>
      </trkpt>
      <trkpt lat="43.81216" lon="6.21273">
        <ele>582.4</ele>
      </trkpt>
      <trkpt lat="43.81213" lon="6.21265">
        <ele>583.1</ele>
      </trkpt>
      <trkpt lat="43.81201" lon="6.21258">
        <ele>583.3</ele>
      </trkpt>
      <trkpt lat="43.81189" lon="6.21252">
        <ele>583.6</ele>
      </trkpt>
      <trkpt lat="43.81184" lon="6.21248">
        <ele>583.9</ele>
      </trkpt>
      <trkpt lat="43.81187" lon="6.21239">
        <ele>585.2</ele>
      </trkpt>
      <trkpt lat="43.81191" lon="6.21232">
        <ele>586.1</ele>
      </trkpt>
      <trkpt lat="43.81202" lon="6.21219">
        <ele>588.2</ele>
      </trkpt>
      <trkpt lat="43.8121" lon="6.21205">
        <ele>590.3</ele>
      </trkpt>
      <trkpt lat="43.81214" lon="6.21191">
        <ele>592.3</ele>
      </trkpt>
      <trkpt lat="43.81216" lon="6.21185">
        <ele>593.1</ele>
      </trkpt>
      <trkpt lat="43.81217" lon="6.21175">
        <ele>594.4</ele>
      </trkpt>
      <trkpt lat="43.81218" lon="6.21171">
        <ele>595</ele>
      </trkpt>
      <trkpt lat="43.8122" lon="6.21159">
        <ele>596.7</ele>
      </trkpt>
      <trkpt lat="43.81221" lon="6.21154">
        <ele>597.3</ele>
      </trkpt>
      <trkpt lat="43.81217" lon="6.21137">
        <ele>599.2</ele>
      </trkpt>
      <trkpt lat="43.81213" lon="6.21133">
        <ele>599.5</ele>
      </trkpt>
      <trkpt lat="43.8121" lon="6.21122">
        <ele>600.8</ele>
      </trkpt>
      <trkpt lat="43.81217" lon="6.21106">
        <ele>603.2</ele>
      </trkpt>
      <trkpt lat="43.81225" lon="6.21091">
        <ele>605.5</ele>
      </trkpt>
      <trkpt lat="43.81231" lon="6.2108">
        <ele>607.5</ele>
      </trkpt>
      <trkpt lat="43.81236" lon="6.2107">
        <ele>609.4</ele>
      </trkpt>
      <trkpt lat="43.81243" lon="6.21061">
        <ele>611.2</ele>
      </trkpt>
      <trkpt lat="43.81249" lon="6.21049">
        <ele>613.4</ele>
      </trkpt>
      <trkpt lat="43.81256" lon="6.21037">
        <ele>616</ele>
      </trkpt>
      <trkpt lat="43.8126" lon="6.21033">
        <ele>616.9</ele>
      </trkpt>
      <trkpt lat="43.81265" lon="6.21022">
        <ele>619.2</ele>
      </trkpt>
      <trkpt lat="43.81266" lon="6.21021">
        <ele>619.7</ele>
      </trkpt>
      <trkpt lat="43.81277" lon="6.21013">
        <ele>622.2</ele>
      </trkpt>
      <trkpt lat="43.81283" lon="6.21012">
        <ele>623</ele>
      </trkpt>
      <trkpt lat="43.81297" lon="6.21009">
        <ele>624.9</ele>
      </trkpt>
      <trkpt lat="43.8131" lon="6.21004">
        <ele>627.8</ele>
      </trkpt>
      <trkpt lat="43.81321" lon="6.21008">
        <ele>628</ele>
      </trkpt>
      <trkpt lat="43.81329" lon="6.21009">
        <ele>628.6</ele>
      </trkpt>
      <trkpt lat="43.81337" lon="6.21008">
        <ele>629.7</ele>
      </trkpt>
      <trkpt lat="43.81341" lon="6.21001">
        <ele>631.1</ele>
      </trkpt>
      <trkpt lat="43.81337" lon="6.20988">
        <ele>633.5</ele>
      </trkpt>
      <trkpt lat="43.81334" lon="6.20977">
        <ele>635.8</ele>
      </trkpt>
      <trkpt lat="43.81328" lon="6.20967">
        <ele>637.3</ele>
      </trkpt>
      <trkpt lat="43.81321" lon="6.20954">
        <ele>638.9</ele>
      </trkpt>
      <trkpt lat="43.81319" lon="6.20941">
        <ele>641.3</ele>
      </trkpt>
      <trkpt lat="43.81315" lon="6.20922">
        <ele>644.9</ele>
      </trkpt>
      <trkpt lat="43.81312" lon="6.20907">
        <ele>647.7</ele>
      </trkpt>
      <trkpt lat="43.81311" lon="6.20891">
        <ele>650.7</ele>
      </trkpt>
      <trkpt lat="43.81312" lon="6.20876">
        <ele>654</ele>
      </trkpt>
      <trkpt lat="43.81313" lon="6.20864">
        <ele>656.4</ele>
      </trkpt>
      <trkpt lat="43.81314" lon="6.20851">
        <ele>659.1</ele>
      </trkpt>
      <trkpt lat="43.81314" lon="6.20835">
        <ele>662.2</ele>
      </trkpt>
      <trkpt lat="43.81318" lon="6.20828">
        <ele>664.3</ele>
      </trkpt>
      <trkpt lat="43.81321" lon="6.20827">
        <ele>664.8</ele>
      </trkpt>
      <trkpt lat="43.81326" lon="6.20831">
        <ele>665.1</ele>
      </trkpt>
      <trkpt lat="43.81332" lon="6.20842">
        <ele>663.8</ele>
      </trkpt>
      <trkpt lat="43.81338" lon="6.20855">
        <ele>661.2</ele>
      </trkpt>
      <trkpt lat="43.81345" lon="6.20868">
        <ele>658.1</ele>
      </trkpt>
      <trkpt lat="43.81352" lon="6.20876">
        <ele>656</ele>
      </trkpt>
      <trkpt lat="43.81353" lon="6.20876">
        <ele>655.7</ele>
      </trkpt>
      <trkpt lat="43.81361" lon="6.20874">
        <ele>655.8</ele>
      </trkpt>
      <trkpt lat="43.81366" lon="6.2087">
        <ele>656.3</ele>
      </trkpt>
      <trkpt lat="43.81376" lon="6.20866">
        <ele>656.5</ele>
      </trkpt>
      <trkpt lat="43.81383" lon="6.20865">
        <ele>656.3</ele>
      </trkpt>
      <trkpt lat="43.8139" lon="6.20863">
        <ele>656.4</ele>
      </trkpt>
      <trkpt lat="43.81397" lon="6.20861">
        <ele>656.2</ele>
      </trkpt>
      <trkpt lat="43.81404" lon="6.20855">
        <ele>656.8</ele>
      </trkpt>
      <trkpt lat="43.8141" lon="6.20845">
        <ele>658.3</ele>
      </trkpt>
      <trkpt lat="43.81411" lon="6.20843">
        <ele>658.8</ele>
      </trkpt>
      <trkpt lat="43.81407" lon="6.20837">
        <ele>660.2</ele>
      </trkpt>
      <trkpt lat="43.81398" lon="6.20833">
        <ele>661.7</ele>
      </trkpt>
      <trkpt lat="43.8139" lon="6.20825">
        <ele>664.2</ele>
      </trkpt>
      <trkpt lat="43.81383" lon="6.20815">
        <ele>666.9</ele>
      </trkpt>
      <trkpt lat="43.81378" lon="6.20808">
        <ele>669</ele>
      </trkpt>
      <trkpt lat="43.81382" lon="6.20802">
        <ele>670.5</ele>
      </trkpt>
      <trkpt lat="43.81386" lon="6.20803">
        <ele>670.1</ele>
      </trkpt>
      <trkpt lat="43.81395" lon="6.20801">
        <ele>670.2</ele>
      </trkpt>
      <trkpt lat="43.81401" lon="6.20795">
        <ele>671.5</ele>
      </trkpt>
      <trkpt lat="43.81396" lon="6.20787">
        <ele>674</ele>
      </trkpt>
      <trkpt lat="43.81388" lon="6.20776">
        <ele>676.7</ele>
      </trkpt>
      <trkpt lat="43.81384" lon="6.20764">
        <ele>679.8</ele>
      </trkpt>
      <trkpt lat="43.81381" lon="6.20752">
        <ele>682.2</ele>
      </trkpt>
      <trkpt lat="43.81386" lon="6.20742">
        <ele>685.6</ele>
      </trkpt>
      <trkpt lat="43.81399" lon="6.2074">
        <ele>687.2</ele>
      </trkpt>
      <trkpt lat="43.81404" lon="6.2074">
        <ele>687.6</ele>
      </trkpt>
      <trkpt lat="43.81415" lon="6.20734">
        <ele>690.6</ele>
      </trkpt>
      <trkpt lat="43.81425" lon="6.20728">
        <ele>691.5</ele>
      </trkpt>
      <trkpt lat="43.81429" lon="6.20727">
        <ele>691.5</ele>
      </trkpt>
      <trkpt lat="43.81435" lon="6.20726">
        <ele>691.2</ele>
      </trkpt>
      <trkpt lat="43.81445" lon="6.20727">
        <ele>689.7</ele>
      </trkpt>
      <trkpt lat="43.81456" lon="6.2073">
        <ele>687.8</ele>
      </trkpt>
      <trkpt lat="43.81465" lon="6.20733">
        <ele>686.2</ele>
      </trkpt>
      <trkpt lat="43.81475" lon="6.20736">
        <ele>684.3</ele>
      </trkpt>
      <trkpt lat="43.81479" lon="6.20737">
        <ele>683.6</ele>
      </trkpt>
      <trkpt lat="43.8149" lon="6.2074">
        <ele>682</ele>
      </trkpt>
      <trkpt lat="43.815" lon="6.20741">
        <ele>681.1</ele>
      </trkpt>
      <trkpt lat="43.81507" lon="6.20738">
        <ele>682.7</ele>
      </trkpt>
      <trkpt lat="43.81514" lon="6.20733">
        <ele>685.5</ele>
      </trkpt>
      <trkpt lat="43.81517" lon="6.2073">
        <ele>687.1</ele>
      </trkpt>
      <trkpt lat="43.81517" lon="6.20725">
        <ele>687.8</ele>
      </trkpt>
      <trkpt lat="43.81513" lon="6.20724">
        <ele>687.2</ele>
      </trkpt>
      <trkpt lat="43.8151" lon="6.20723">
        <ele>686.8</ele>
      </trkpt>
      <trkpt lat="43.81504" lon="6.20721">
        <ele>685.7</ele>
      </trkpt>
      <trkpt lat="43.81503" lon="6.2072">
        <ele>685.7</ele>
      </trkpt>
      <trkpt lat="43.81493" lon="6.20713">
        <ele>687.4</ele>
      </trkpt>
      <trkpt lat="43.81485" lon="6.20709">
        <ele>689.6</ele>
      </trkpt>
      <trkpt lat="43.81478" lon="6.20705">
        <ele>691.5</ele>
      </trkpt>
      <trkpt lat="43.81474" lon="6.20701">
        <ele>693.1</ele>
      </trkpt>
      <trkpt lat="43.81467" lon="6.20692">
        <ele>696.4</ele>
      </trkpt>
      <trkpt lat="43.81458" lon="6.20685">
        <ele>700</ele>
      </trkpt>
      <trkpt lat="43.8145" lon="6.20679">
        <ele>702.8</ele>
      </trkpt>
      <trkpt lat="43.81438" lon="6.20672">
        <ele>707</ele>
      </trkpt>
      <trkpt lat="43.81433" lon="6.20661">
        <ele>710.4</ele>
      </trkpt>
      <trkpt lat="43.81436" lon="6.20658">
        <ele>710.3</ele>
      </trkpt>
      <trkpt lat="43.81439" lon="6.20663">
        <ele>709</ele>
      </trkpt>
      <trkpt lat="43.81442" lon="6.20665">
        <ele>708.2</ele>
      </trkpt>
      <trkpt lat="43.81445" lon="6.20664">
        <ele>707.4</ele>
      </trkpt>
      <trkpt lat="43.81447" lon="6.20663">
        <ele>707.3</ele>
      </trkpt>
      <trkpt lat="43.81451" lon="6.20663">
        <ele>706.5</ele>
      </trkpt>
      <trkpt lat="43.81459" lon="6.20664">
        <ele>704.8</ele>
      </trkpt>
      <trkpt lat="43.81467" lon="6.20666">
        <ele>703.1</ele>
      </trkpt>
      <trkpt lat="43.8147" lon="6.20667">
        <ele>702.2</ele>
      </trkpt>
      <trkpt lat="43.81472" lon="6.20667">
        <ele>701.6</ele>
      </trkpt>
      <trkpt lat="43.81475" lon="6.20666">
        <ele>701.3</ele>
      </trkpt>
      <trkpt lat="43.81482" lon="6.20667">
        <ele>699.7</ele>
      </trkpt>
      <trkpt lat="43.8149" lon="6.20667">
        <ele>698.1</ele>
      </trkpt>
      <trkpt lat="43.81496" lon="6.20667">
        <ele>696.9</ele>
      </trkpt>
      <trkpt lat="43.81499" lon="6.20666">
        <ele>696.5</ele>
      </trkpt>
      <trkpt lat="43.81501" lon="6.20666">
        <ele>696.5</ele>
      </trkpt>
      <trkpt lat="43.81503" lon="6.20664">
        <ele>697.7</ele>
      </trkpt>
      <trkpt lat="43.81501" lon="6.20664">
        <ele>697</ele>
      </trkpt>
      <trkpt lat="43.81498" lon="6.20663">
        <ele>697.5</ele>
      </trkpt>
      <trkpt lat="43.8149" lon="6.20656">
        <ele>700.4</ele>
      </trkpt>
      <trkpt lat="43.81486" lon="6.20651">
        <ele>702</ele>
      </trkpt>
      <trkpt lat="43.81479" lon="6.20643">
        <ele>704.8</ele>
      </trkpt>
      <trkpt lat="43.81472" lon="6.20635">
        <ele>707.5</ele>
      </trkpt>
      <trkpt lat="43.8147" lon="6.20633">
        <ele>708</ele>
      </trkpt>
      <trkpt lat="43.81468" lon="6.20627">
        <ele>709.4</ele>
      </trkpt>
      <trkpt lat="43.81462" lon="6.2061">
        <ele>713</ele>
      </trkpt>
      <trkpt lat="43.81462" lon="6.20606">
        <ele>713.6</ele>
      </trkpt>
      <trkpt lat="43.81468" lon="6.20606">
        <ele>712.9</ele>
      </trkpt>
      <trkpt lat="43.81475" lon="6.2061">
        <ele>711.4</ele>
      </trkpt>
      <trkpt lat="43.81476" lon="6.2061">
        <ele>711.3</ele>
      </trkpt>
      <trkpt lat="43.81479" lon="6.2061">
        <ele>710.9</ele>
      </trkpt>
      <trkpt lat="43.8148" lon="6.20602">
        <ele>712.3</ele>
      </trkpt>
      <trkpt lat="43.81474" lon="6.20589">
        <ele>715.2</ele>
      </trkpt>
      <trkpt lat="43.81473" lon="6.20574">
        <ele>718.4</ele>
      </trkpt>
      <trkpt lat="43.81472" lon="6.2056">
        <ele>722</ele>
      </trkpt>
      <trkpt lat="43.81471" lon="6.20541">
        <ele>726.7</ele>
      </trkpt>
      <trkpt lat="43.81467" lon="6.2053">
        <ele>729.2</ele>
      </trkpt>
      <trkpt lat="43.81464" lon="6.20519">
        <ele>732</ele>
      </trkpt>
      <trkpt lat="43.81459" lon="6.20506">
        <ele>734.9</ele>
      </trkpt>
      <trkpt lat="43.81457" lon="6.20493">
        <ele>737.8</ele>
      </trkpt>
      <trkpt lat="43.81455" lon="6.20485">
        <ele>739.6</ele>
      </trkpt>
      <trkpt lat="43.81445" lon="6.20476">
        <ele>741.7</ele>
      </trkpt>
      <trkpt lat="43.8144" lon="6.20471">
        <ele>742.6</ele>
      </trkpt>
      <trkpt lat="43.81435" lon="6.20466">
        <ele>744.3</ele>
      </trkpt>
      <trkpt lat="43.81432" lon="6.20456">
        <ele>746.6</ele>
      </trkpt>
      <trkpt lat="43.81438" lon="6.20445">
        <ele>749.1</ele>
      </trkpt>
      <trkpt lat="43.81441" lon="6.20444">
        <ele>749.4</ele>
      </trkpt>
      <trkpt lat="43.81453" lon="6.20437">
        <ele>751.1</ele>
      </trkpt>
      <trkpt lat="43.81464" lon="6.20428">
        <ele>752.6</ele>
      </trkpt>
      <trkpt lat="43.81472" lon="6.2042">
        <ele>754.1</ele>
      </trkpt>
      <trkpt lat="43.81479" lon="6.20407">
        <ele>755.7</ele>
      </trkpt>
      <trkpt lat="43.81487" lon="6.20403">
        <ele>755.8</ele>
      </trkpt>
      <trkpt lat="43.81493" lon="6.20397">
        <ele>756.1</ele>
      </trkpt>
      <trkpt lat="43.81502" lon="6.2038">
        <ele>757.7</ele>
      </trkpt>
      <trkpt lat="43.81507" lon="6.20363">
        <ele>759.1</ele>
      </trkpt>
      <trkpt lat="43.81511" lon="6.20343">
        <ele>760.6</ele>
      </trkpt>
      <trkpt lat="43.81512" lon="6.20341">
        <ele>760.8</ele>
      </trkpt>
      <trkpt lat="43.81511" lon="6.2034">
        <ele>761</ele>
      </trkpt>
      <trkpt lat="43.81499" lon="6.20328">
        <ele>762</ele>
      </trkpt>
      <trkpt lat="43.81492" lon="6.20325">
        <ele>762.1</ele>
      </trkpt>
      <trkpt lat="43.81475" lon="6.20317">
        <ele>762</ele>
      </trkpt>
      <trkpt lat="43.81457" lon="6.20312">
        <ele>761.8</ele>
      </trkpt>
      <trkpt lat="43.81415" lon="6.20288">
        <ele>760.2</ele>
      </trkpt>
      <trkpt lat="43.81383" lon="6.20267">
        <ele>758</ele>
      </trkpt>
      <trkpt lat="43.81357" lon="6.20248">
        <ele>756.4</ele>
      </trkpt>
      <trkpt lat="43.81354" lon="6.20245">
        <ele>756.2</ele>
      </trkpt>
      <trkpt lat="43.81349" lon="6.20245">
        <ele>756</ele>
      </trkpt>
      <trkpt lat="43.81333" lon="6.20233">
        <ele>754.7</ele>
      </trkpt>
      <trkpt lat="43.81315" lon="6.20223">
        <ele>752.3</ele>
      </trkpt>
      <trkpt lat="43.81291" lon="6.20207">
        <ele>749.4</ele>
      </trkpt>
      <trkpt lat="43.81261" lon="6.20176">
        <ele>745.9</ele>
      </trkpt>
      <trkpt lat="43.81256" lon="6.20172">
        <ele>745.5</ele>
      </trkpt>
      <trkpt lat="43.8123" lon="6.20163">
        <ele>744.9</ele>
      </trkpt>
      <trkpt lat="43.81201" lon="6.20154">
        <ele>745</ele>
      </trkpt>
      <trkpt lat="43.81179" lon="6.20142">
        <ele>745.2</ele>
      </trkpt>
      <trkpt lat="43.8116" lon="6.20127">
        <ele>745.4</ele>
      </trkpt>
      <trkpt lat="43.81139" lon="6.20103">
        <ele>745.2</ele>
      </trkpt>
      <trkpt lat="43.81123" lon="6.2009">
        <ele>744.9</ele>
      </trkpt>
      <trkpt lat="43.81089" lon="6.20048">
        <ele>743.5</ele>
      </trkpt>
      <trkpt lat="43.81068" lon="6.20017">
        <ele>742.9</ele>
      </trkpt>
      <trkpt lat="43.8105" lon="6.20004">
        <ele>742.9</ele>
      </trkpt>
      <trkpt lat="43.81012" lon="6.20001">
        <ele>743</ele>
      </trkpt>
      <trkpt lat="43.80962" lon="6.19998">
        <ele>741.7</ele>
      </trkpt>
      <trkpt lat="43.80907" lon="6.20003">
        <ele>739.3</ele>
      </trkpt>
      <trkpt lat="43.80885" lon="6.20007">
        <ele>738</ele>
      </trkpt>
      <trkpt lat="43.80868" lon="6.20006">
        <ele>737.9</ele>
      </trkpt>
      <trkpt lat="43.8085" lon="6.1999">
        <ele>738.5</ele>
      </trkpt>
      <trkpt lat="43.80842" lon="6.19962">
        <ele>738.3</ele>
      </trkpt>
      <trkpt lat="43.8083" lon="6.19906">
        <ele>737.7</ele>
      </trkpt>
      <trkpt lat="43.80815" lon="6.19837">
        <ele>735.6</ele>
      </trkpt>
      <trkpt lat="43.80791" lon="6.19741">
        <ele>733.1</ele>
      </trkpt>
      <trkpt lat="43.80785" lon="6.19711">
        <ele>731.7</ele>
      </trkpt>
      <trkpt lat="43.80784" lon="6.19669">
        <ele>729.9</ele>
      </trkpt>
      <trkpt lat="43.80792" lon="6.19628">
        <ele>729.3</ele>
      </trkpt>
      <trkpt lat="43.80807" lon="6.19547">
        <ele>727</ele>
      </trkpt>
      <trkpt lat="43.80821" lon="6.1947">
        <ele>723</ele>
      </trkpt>
      <trkpt lat="43.80831" lon="6.19411">
        <ele>721.2</ele>
      </trkpt>
      <trkpt lat="43.80844" lon="6.1938">
        <ele>722.9</ele>
      </trkpt>
      <trkpt lat="43.8085" lon="6.19374">
        <ele>723.3</ele>
      </trkpt>
      <trkpt lat="43.80882" lon="6.19343">
        <ele>726</ele>
      </trkpt>
      <trkpt lat="43.80894" lon="6.19333">
        <ele>726.9</ele>
      </trkpt>
      <trkpt lat="43.80903" lon="6.1933">
        <ele>727.3</ele>
      </trkpt>
      <trkpt lat="43.80909" lon="6.19313">
        <ele>727.4</ele>
      </trkpt>
      <trkpt lat="43.80921" lon="6.19294">
        <ele>727.6</ele>
      </trkpt>
      <trkpt lat="43.80921" lon="6.19277">
        <ele>727.4</ele>
      </trkpt>
      <trkpt lat="43.80916" lon="6.19264">
        <ele>727.1</ele>
      </trkpt>
      <trkpt lat="43.80908" lon="6.19222">
        <ele>725.9</ele>
      </trkpt>
      <trkpt lat="43.80909" lon="6.19214">
        <ele>725.8</ele>
      </trkpt>
      <trkpt lat="43.80917" lon="6.19188">
        <ele>725.5</ele>
      </trkpt>
      <trkpt lat="43.80929" lon="6.19148">
        <ele>724.7</ele>
      </trkpt>
      <trkpt lat="43.80946" lon="6.19089">
        <ele>723.5</ele>
      </trkpt>
      <trkpt lat="43.80969" lon="6.19008">
        <ele>722.7</ele>
      </trkpt>
      <trkpt lat="43.80989" lon="6.18939">
        <ele>720.5</ele>
      </trkpt>
      <trkpt lat="43.81008" lon="6.18868">
        <ele>718</ele>
      </trkpt>
      <trkpt lat="43.81026" lon="6.18799">
        <ele>716.6</ele>
      </trkpt>
      <trkpt lat="43.81037" lon="6.18755">
        <ele>715.9</ele>
      </trkpt>
      <trkpt lat="43.81037" lon="6.18736">
        <ele>715.7</ele>
      </trkpt>
      <trkpt lat="43.81039" lon="6.18723">
        <ele>715.7</ele>
      </trkpt>
      <trkpt lat="43.81044" lon="6.18702">
        <ele>715.8</ele>
      </trkpt>
      <trkpt lat="43.81049" lon="6.1866">
        <ele>715.5</ele>
      </trkpt>
      <trkpt lat="43.81055" lon="6.18598">
        <ele>714.1</ele>
      </trkpt>
      <trkpt lat="43.81059" lon="6.18559">
        <ele>713.3</ele>
      </trkpt>
      <trkpt lat="43.8106" lon="6.18554">
        <ele>713.2</ele>
      </trkpt>
      <trkpt lat="43.81053" lon="6.18543">
        <ele>712.8</ele>
      </trkpt>
      <trkpt lat="43.81041" lon="6.18536">
        <ele>712.1</ele>
      </trkpt>
      <trkpt lat="43.81006" lon="6.185">
        <ele>710.2</ele>
      </trkpt>
      <trkpt lat="43.80968" lon="6.18462">
        <ele>709</ele>
      </trkpt>
      <trkpt lat="43.80927" lon="6.18424">
        <ele>706.7</ele>
      </trkpt>
      <trkpt lat="43.80867" lon="6.18364">
        <ele>703.8</ele>
      </trkpt>
      <trkpt lat="43.80797" lon="6.18297">
        <ele>701.3</ele>
      </trkpt>
      <trkpt lat="43.80761" lon="6.18271">
        <ele>701.6</ele>
      </trkpt>
      <trkpt lat="43.80705" lon="6.18244">
        <ele>700.9</ele>
      </trkpt>
      <trkpt lat="43.80699" lon="6.18242">
        <ele>700.7</ele>
      </trkpt>
      <trkpt lat="43.8068" lon="6.18237">
        <ele>700.2</ele>
      </trkpt>
      <trkpt lat="43.80673" lon="6.18233">
        <ele>700</ele>
      </trkpt>
      <trkpt lat="43.80656" lon="6.18223">
        <ele>699.3</ele>
      </trkpt>
      <trkpt lat="43.80609" lon="6.18205">
        <ele>697.4</ele>
      </trkpt>
      <trkpt lat="43.80569" lon="6.18189">
        <ele>695.9</ele>
      </trkpt>
      <trkpt lat="43.80515" lon="6.18168">
        <ele>694.4</ele>
      </trkpt>
      <trkpt lat="43.80509" lon="6.18165">
        <ele>694.2</ele>
      </trkpt>
      <trkpt lat="43.80485" lon="6.18142">
        <ele>693.4</ele>
      </trkpt>
      <trkpt lat="43.80481" lon="6.18135">
        <ele>693.2</ele>
      </trkpt>
      <trkpt lat="43.80466" lon="6.18094">
        <ele>692.2</ele>
      </trkpt>
      <trkpt lat="43.80448" lon="6.18046">
        <ele>692.3</ele>
      </trkpt>
      <trkpt lat="43.8042" lon="6.17984">
        <ele>692.6</ele>
      </trkpt>
      <trkpt lat="43.80391" lon="6.17932">
        <ele>691.9</ele>
      </trkpt>
      <trkpt lat="43.8036" lon="6.17878">
        <ele>691.4</ele>
      </trkpt>
      <trkpt lat="43.80314" lon="6.17817">
        <ele>690.6</ele>
      </trkpt>
      <trkpt lat="43.80272" lon="6.17764">
        <ele>690</ele>
      </trkpt>
      <trkpt lat="43.80233" lon="6.1771">
        <ele>690.1</ele>
      </trkpt>
      <trkpt lat="43.80219" lon="6.17694">
        <ele>690.1</ele>
      </trkpt>
      <trkpt lat="43.80188" lon="6.17653">
        <ele>689.8</ele>
      </trkpt>
      <trkpt lat="43.80147" lon="6.17587">
        <ele>689.5</ele>
      </trkpt>
      <trkpt lat="43.80119" lon="6.1754">
        <ele>688.7</ele>
      </trkpt>
      <trkpt lat="43.80082" lon="6.1748">
        <ele>686.3</ele>
      </trkpt>
      <trkpt lat="43.80053" lon="6.17432">
        <ele>686.4</ele>
      </trkpt>
      <trkpt lat="43.80012" lon="6.17366">
        <ele>685.4</ele>
      </trkpt>
      <trkpt lat="43.79988" lon="6.17324">
        <ele>685.4</ele>
      </trkpt>
      <trkpt lat="43.79962" lon="6.17272">
        <ele>685.6</ele>
      </trkpt>
      <trkpt lat="43.79934" lon="6.17211">
        <ele>684.5</ele>
      </trkpt>
      <trkpt lat="43.79897" lon="6.17136">
        <ele>682.6</ele>
      </trkpt>
      <trkpt lat="43.7986" lon="6.17064">
        <ele>682.1</ele>
      </trkpt>
      <trkpt lat="43.79827" lon="6.17001">
        <ele>681.9</ele>
      </trkpt>
      <trkpt lat="43.798" lon="6.16944">
        <ele>680.7</ele>
      </trkpt>
      <trkpt lat="43.79796" lon="6.16935">
        <ele>680.4</ele>
      </trkpt>
      <trkpt lat="43.79794" lon="6.16931">
        <ele>680.3</ele>
      </trkpt>
      <trkpt lat="43.79793" lon="6.16929">
        <ele>680.2</ele>
      </trkpt>
      <trkpt lat="43.79786" lon="6.16917">
        <ele>679.9</ele>
      </trkpt>
      <trkpt lat="43.7977" lon="6.16888">
        <ele>679.3</ele>
      </trkpt>
      <trkpt lat="43.79751" lon="6.16846">
        <ele>679</ele>
      </trkpt>
      <trkpt lat="43.79732" lon="6.16799">
        <ele>678.8</ele>
      </trkpt>
      <trkpt lat="43.79703" lon="6.16724">
        <ele>678.1</ele>
      </trkpt>
      <trkpt lat="43.79683" lon="6.16674">
        <ele>677.3</ele>
      </trkpt>
      <trkpt lat="43.79674" lon="6.16654">
        <ele>676.9</ele>
      </trkpt>
      <trkpt lat="43.79649" lon="6.16594">
        <ele>675.7</ele>
      </trkpt>
      <trkpt lat="43.79624" lon="6.16532">
        <ele>675.6</ele>
      </trkpt>
      <trkpt lat="43.79591" lon="6.16456">
        <ele>675.1</ele>
      </trkpt>
      <trkpt lat="43.79563" lon="6.16399">
        <ele>674.8</ele>
      </trkpt>
      <trkpt lat="43.79545" lon="6.16366">
        <ele>674.5</ele>
      </trkpt>
      <trkpt lat="43.79518" lon="6.1631">
        <ele>674.4</ele>
      </trkpt>
      <trkpt lat="43.79492" lon="6.16264">
        <ele>674.7</ele>
      </trkpt>
      <trkpt lat="43.7947" lon="6.16221">
        <ele>675.2</ele>
      </trkpt>
      <trkpt lat="43.79447" lon="6.16183">
        <ele>675.4</ele>
      </trkpt>
      <trkpt lat="43.7942" lon="6.16139">
        <ele>675.1</ele>
      </trkpt>
      <trkpt lat="43.79383" lon="6.16077">
        <ele>674.5</ele>
      </trkpt>
      <trkpt lat="43.79344" lon="6.16015">
        <ele>672.6</ele>
      </trkpt>
      <trkpt lat="43.79315" lon="6.15963">
        <ele>671.9</ele>
      </trkpt>
      <trkpt lat="43.7928" lon="6.15895">
        <ele>670.4</ele>
      </trkpt>
      <trkpt lat="43.79251" lon="6.1584">
        <ele>669.1</ele>
      </trkpt>
      <trkpt lat="43.79211" lon="6.15763">
        <ele>665.1</ele>
      </trkpt>
      <trkpt lat="43.79178" lon="6.15699">
        <ele>663.1</ele>
      </trkpt>
      <trkpt lat="43.79147" lon="6.15636">
        <ele>663</ele>
      </trkpt>
      <trkpt lat="43.79124" lon="6.15589">
        <ele>662.5</ele>
      </trkpt>
      <trkpt lat="43.79118" lon="6.15582">
        <ele>662.2</ele>
      </trkpt>
      <trkpt lat="43.79113" lon="6.15573">
        <ele>662</ele>
      </trkpt>
      <trkpt lat="43.79106" lon="6.15559">
        <ele>661.7</ele>
      </trkpt>
      <trkpt lat="43.79091" lon="6.15527">
        <ele>660.7</ele>
      </trkpt>
      <trkpt lat="43.79067" lon="6.15483">
        <ele>659.9</ele>
      </trkpt>
      <trkpt lat="43.79043" lon="6.15435">
        <ele>660</ele>
      </trkpt>
      <trkpt lat="43.79041" lon="6.15429">
        <ele>660</ele>
      </trkpt>
      <trkpt lat="43.79012" lon="6.15376">
        <ele>661.6</ele>
      </trkpt>
      <trkpt lat="43.78989" lon="6.15327">
        <ele>662.5</ele>
      </trkpt>
      <trkpt lat="43.78974" lon="6.15301">
        <ele>661.9</ele>
      </trkpt>
      <trkpt lat="43.78967" lon="6.15303">
        <ele>661.5</ele>
      </trkpt>
      <trkpt lat="43.78965" lon="6.1531">
        <ele>661.4</ele>
      </trkpt>
      <trkpt lat="43.7896" lon="6.15353">
        <ele>661</ele>
      </trkpt>
      <trkpt lat="43.78952" lon="6.15391">
        <ele>660.9</ele>
      </trkpt>
      <trkpt lat="43.78946" lon="6.15419">
        <ele>661</ele>
      </trkpt>
      <trkpt lat="43.78941" lon="6.1545">
        <ele>660.9</ele>
      </trkpt>
      <trkpt lat="43.78937" lon="6.15468">
        <ele>660.9</ele>
      </trkpt>
      <trkpt lat="43.78932" lon="6.15477">
        <ele>660.9</ele>
      </trkpt>
      <trkpt lat="43.78924" lon="6.15491">
        <ele>660.9</ele>
      </trkpt>
      <trkpt lat="43.78918" lon="6.15505">
        <ele>661</ele>
      </trkpt>
      <trkpt lat="43.7891" lon="6.15527">
        <ele>660.9</ele>
      </trkpt>
      <trkpt lat="43.78903" lon="6.15549">
        <ele>660.6</ele>
      </trkpt>
      <trkpt lat="43.78892" lon="6.15584">
        <ele>660.1</ele>
      </trkpt>
      <trkpt lat="43.7888" lon="6.15611">
        <ele>660.2</ele>
      </trkpt>
      <trkpt lat="43.78868" lon="6.15626">
        <ele>660</ele>
      </trkpt>
      <trkpt lat="43.78856" lon="6.15638">
        <ele>659.7</ele>
      </trkpt>
      <trkpt lat="43.78844" lon="6.15647">
        <ele>659.2</ele>
      </trkpt>
      <trkpt lat="43.78836" lon="6.15655">
        <ele>659</ele>
      </trkpt>
      <trkpt lat="43.78834" lon="6.15657">
        <ele>658.9</ele>
      </trkpt>
      <trkpt lat="43.7882" lon="6.15655">
        <ele>659.2</ele>
      </trkpt>
      <trkpt lat="43.78817" lon="6.15649">
        <ele>659.2</ele>
      </trkpt>
      <trkpt lat="43.78801" lon="6.15621">
        <ele>659.2</ele>
      </trkpt>
      <trkpt lat="43.78789" lon="6.15598">
        <ele>659.2</ele>
      </trkpt>
      <trkpt lat="43.78773" lon="6.15573">
        <ele>659.5</ele>
      </trkpt>
      <trkpt lat="43.78761" lon="6.15549">
        <ele>659.9</ele>
      </trkpt>
      <trkpt lat="43.78747" lon="6.15524">
        <ele>659.9</ele>
      </trkpt>
      <trkpt lat="43.78734" lon="6.155">
        <ele>659.2</ele>
      </trkpt>
      <trkpt lat="43.78721" lon="6.15483">
        <ele>658.3</ele>
      </trkpt>
      <trkpt lat="43.78711" lon="6.15465">
        <ele>657.5</ele>
      </trkpt>
      <trkpt lat="43.78711" lon="6.1545">
        <ele>657.2</ele>
      </trkpt>
      <trkpt lat="43.78717" lon="6.15424">
        <ele>656.9</ele>
      </trkpt>
      <trkpt lat="43.78726" lon="6.15392">
        <ele>656.6</ele>
      </trkpt>
      <trkpt lat="43.78735" lon="6.15364">
        <ele>656</ele>
      </trkpt>
      <trkpt lat="43.78743" lon="6.15353">
        <ele>655.7</ele>
      </trkpt>
      <trkpt lat="43.78752" lon="6.15335">
        <ele>655.1</ele>
      </trkpt>
      <trkpt lat="43.78762" lon="6.153">
        <ele>655.2</ele>
      </trkpt>
      <trkpt lat="43.78774" lon="6.15261">
        <ele>655.3</ele>
      </trkpt>
      <trkpt lat="43.78781" lon="6.15242">
        <ele>655.2</ele>
      </trkpt>
      <trkpt lat="43.78779" lon="6.15211">
        <ele>654.7</ele>
      </trkpt>
      <trkpt lat="43.78777" lon="6.15181">
        <ele>654.2</ele>
      </trkpt>
      <trkpt lat="43.78775" lon="6.15148">
        <ele>653.4</ele>
      </trkpt>
      <trkpt lat="43.78771" lon="6.15122">
        <ele>652.5</ele>
      </trkpt>
      <trkpt lat="43.78761" lon="6.15095">
        <ele>651.5</ele>
      </trkpt>
      <trkpt lat="43.78753" lon="6.15059">
        <ele>651</ele>
      </trkpt>
      <trkpt lat="43.7874" lon="6.15027">
        <ele>651.2</ele>
      </trkpt>
      <trkpt lat="43.78718" lon="6.14987">
        <ele>651.1</ele>
      </trkpt>
      <trkpt lat="43.78697" lon="6.1495">
        <ele>650.6</ele>
      </trkpt>
      <trkpt lat="43.78687" lon="6.14916">
        <ele>650</ele>
      </trkpt>
      <trkpt lat="43.78682" lon="6.14878">
        <ele>649.5</ele>
      </trkpt>
      <trkpt lat="43.78682" lon="6.14857">
        <ele>649.3</ele>
      </trkpt>
      <trkpt lat="43.78684" lon="6.14842">
        <ele>649.1</ele>
      </trkpt>
      <trkpt lat="43.78692" lon="6.14831">
        <ele>649</ele>
      </trkpt>
      <trkpt lat="43.78698" lon="6.14823">
        <ele>649</ele>
      </trkpt>
      <trkpt lat="43.78693" lon="6.14811">
        <ele>649</ele>
      </trkpt>
      <trkpt lat="43.78673" lon="6.14796">
        <ele>648.7</ele>
      </trkpt>
      <trkpt lat="43.78655" lon="6.14798">
        <ele>648.4</ele>
      </trkpt>
      <trkpt lat="43.78638" lon="6.14812">
        <ele>648.3</ele>
      </trkpt>
      <trkpt lat="43.78618" lon="6.14827">
        <ele>648.3</ele>
      </trkpt>
      <trkpt lat="43.78594" lon="6.14836">
        <ele>648.2</ele>
      </trkpt>
      <trkpt lat="43.78579" lon="6.14841">
        <ele>648.2</ele>
      </trkpt>
      <trkpt lat="43.78554" lon="6.14848">
        <ele>648.6</ele>
      </trkpt>
      <trkpt lat="43.7853" lon="6.14855">
        <ele>649</ele>
      </trkpt>
      <trkpt lat="43.78499" lon="6.14864">
        <ele>649.4</ele>
      </trkpt>
      <trkpt lat="43.7847" lon="6.14873">
        <ele>650.4</ele>
      </trkpt>
      <trkpt lat="43.78444" lon="6.1488">
        <ele>651.2</ele>
      </trkpt>
      <trkpt lat="43.78416" lon="6.14888">
        <ele>652</ele>
      </trkpt>
      <trkpt lat="43.78391" lon="6.14894">
        <ele>651.6</ele>
      </trkpt>
      <trkpt lat="43.78366" lon="6.14901">
        <ele>651.3</ele>
      </trkpt>
      <trkpt lat="43.78332" lon="6.1491">
        <ele>650.9</ele>
      </trkpt>
      <trkpt lat="43.78299" lon="6.14926">
        <ele>651.1</ele>
      </trkpt>
      <trkpt lat="43.78269" lon="6.14938">
        <ele>651.2</ele>
      </trkpt>
      <trkpt lat="43.78236" lon="6.14949">
        <ele>651.1</ele>
      </trkpt>
      <trkpt lat="43.78211" lon="6.14954">
        <ele>650.8</ele>
      </trkpt>
      <trkpt lat="43.78192" lon="6.14957">
        <ele>650.4</ele>
      </trkpt>
      <trkpt lat="43.78163" lon="6.14962">
        <ele>650</ele>
      </trkpt>
      <trkpt lat="43.78159" lon="6.14963">
        <ele>650</ele>
      </trkpt>
      <trkpt lat="43.78142" lon="6.14968">
        <ele>650</ele>
      </trkpt>
      <trkpt lat="43.781" lon="6.14975">
        <ele>650</ele>
      </trkpt>
      <trkpt lat="43.78081" lon="6.14978">
        <ele>650</ele>
      </trkpt>
      <trkpt lat="43.78066" lon="6.14978">
        <ele>650.1</ele>
      </trkpt>
      <trkpt lat="43.78041" lon="6.14981">
        <ele>650.1</ele>
      </trkpt>
      <trkpt lat="43.78022" lon="6.14983">
        <ele>650.1</ele>
      </trkpt>
      <trkpt lat="43.77997" lon="6.14986">
        <ele>650.2</ele>
      </trkpt>
      <trkpt lat="43.77979" lon="6.14991">
        <ele>650.3</ele>
      </trkpt>
      <trkpt lat="43.77958" lon="6.14998">
        <ele>650.5</ele>
      </trkpt>
      <trkpt lat="43.77953" lon="6.14999">
        <ele>650.6</ele>
      </trkpt>
      <trkpt lat="43.77936" lon="6.15003">
        <ele>650.8</ele>
      </trkpt>
      <trkpt lat="43.77931" lon="6.15004">
        <ele>650.9</ele>
      </trkpt>
      <trkpt lat="43.77916" lon="6.15006">
        <ele>651.1</ele>
      </trkpt>
      <trkpt lat="43.77888" lon="6.15006">
        <ele>651.1</ele>
      </trkpt>
      <trkpt lat="43.7786" lon="6.15005">
        <ele>651.1</ele>
      </trkpt>
      <trkpt lat="43.7783" lon="6.15009">
        <ele>651</ele>
      </trkpt>
      <trkpt lat="43.77805" lon="6.15013">
        <ele>650.1</ele>
      </trkpt>
      <trkpt lat="43.7777" lon="6.15018">
        <ele>648.9</ele>
      </trkpt>
      <trkpt lat="43.77749" lon="6.15018">
        <ele>648.2</ele>
      </trkpt>
      <trkpt lat="43.77735" lon="6.15017">
        <ele>648.1</ele>
      </trkpt>
      <trkpt lat="43.77733" lon="6.15018">
        <ele>648.1</ele>
      </trkpt>
      <trkpt lat="43.77711" lon="6.15016">
        <ele>648</ele>
      </trkpt>
      <trkpt lat="43.77709" lon="6.15016">
        <ele>648</ele>
      </trkpt>
      <trkpt lat="43.7769" lon="6.15015">
        <ele>647.9</ele>
      </trkpt>
      <trkpt lat="43.77678" lon="6.15015">
        <ele>647.9</ele>
      </trkpt>
      <trkpt lat="43.77667" lon="6.15018">
        <ele>647.8</ele>
      </trkpt>
      <trkpt lat="43.7766" lon="6.1502">
        <ele>647.8</ele>
      </trkpt>
      <trkpt lat="43.77643" lon="6.1502">
        <ele>647.8</ele>
      </trkpt>
      <trkpt lat="43.77615" lon="6.15015">
        <ele>647.9</ele>
      </trkpt>
      <trkpt lat="43.77581" lon="6.15009">
        <ele>648</ele>
      </trkpt>
      <trkpt lat="43.77559" lon="6.15005">
        <ele>647.7</ele>
      </trkpt>
      <trkpt lat="43.77521" lon="6.14995">
        <ele>647.3</ele>
      </trkpt>
      <trkpt lat="43.775" lon="6.14987">
        <ele>647</ele>
      </trkpt>
      <trkpt lat="43.77473" lon="6.14971">
        <ele>646.5</ele>
      </trkpt>
      <trkpt lat="43.77436" lon="6.14952">
        <ele>645.3</ele>
      </trkpt>
      <trkpt lat="43.77391" lon="6.14932">
        <ele>644.4</ele>
      </trkpt>
      <trkpt lat="43.77345" lon="6.14911">
        <ele>644.1</ele>
      </trkpt>
      <trkpt lat="43.77304" lon="6.14898">
        <ele>644.6</ele>
      </trkpt>
      <trkpt lat="43.77261" lon="6.14892">
        <ele>645.2</ele>
      </trkpt>
      <trkpt lat="43.772" lon="6.14885">
        <ele>644.7</ele>
      </trkpt>
      <trkpt lat="43.77164" lon="6.1488">
        <ele>644.2</ele>
      </trkpt>
      <trkpt lat="43.7712" lon="6.14878">
        <ele>644.8</ele>
      </trkpt>
      <trkpt lat="43.77081" lon="6.14878">
        <ele>645.5</ele>
      </trkpt>
      <trkpt lat="43.77035" lon="6.14867">
        <ele>645.6</ele>
      </trkpt>
      <trkpt lat="43.77" lon="6.14862">
        <ele>645.7</ele>
      </trkpt>
      <trkpt lat="43.76963" lon="6.14864">
        <ele>644.5</ele>
      </trkpt>
      <trkpt lat="43.76928" lon="6.14865">
        <ele>643.4</ele>
      </trkpt>
      <trkpt lat="43.76895" lon="6.14867">
        <ele>642.8</ele>
      </trkpt>
      <trkpt lat="43.7688" lon="6.14867">
        <ele>642.7</ele>
      </trkpt>
      <trkpt lat="43.76857" lon="6.14866">
        <ele>642.4</ele>
      </trkpt>
      <trkpt lat="43.76827" lon="6.14852">
        <ele>641.8</ele>
      </trkpt>
      <trkpt lat="43.76798" lon="6.14834">
        <ele>642.3</ele>
      </trkpt>
      <trkpt lat="43.76759" lon="6.14811">
        <ele>642.9</ele>
      </trkpt>
      <trkpt lat="43.76707" lon="6.14785">
        <ele>642.9</ele>
      </trkpt>
      <trkpt lat="43.76657" lon="6.14757">
        <ele>643.2</ele>
      </trkpt>
      <trkpt lat="43.76617" lon="6.14737">
        <ele>643.7</ele>
      </trkpt>
      <trkpt lat="43.76567" lon="6.1471">
        <ele>643.9</ele>
      </trkpt>
      <trkpt lat="43.76535" lon="6.14692">
        <ele>643.6</ele>
      </trkpt>
      <trkpt lat="43.76506" lon="6.14678">
        <ele>643.2</ele>
      </trkpt>
      <trkpt lat="43.76482" lon="6.14665">
        <ele>642.5</ele>
      </trkpt>
      <trkpt lat="43.76461" lon="6.14662">
        <ele>642</ele>
      </trkpt>
      <trkpt lat="43.76438" lon="6.14682">
        <ele>641.7</ele>
      </trkpt>
      <trkpt lat="43.76404" lon="6.14715">
        <ele>641.4</ele>
      </trkpt>
      <trkpt lat="43.76363" lon="6.14755">
        <ele>641.2</ele>
      </trkpt>
      <trkpt lat="43.76345" lon="6.14771">
        <ele>640.6</ele>
      </trkpt>
      <trkpt lat="43.76315" lon="6.14783">
        <ele>638.9</ele>
      </trkpt>
      <trkpt lat="43.76295" lon="6.14779">
        <ele>637.6</ele>
      </trkpt>
      <trkpt lat="43.76293" lon="6.14778">
        <ele>637.6</ele>
      </trkpt>
      <trkpt lat="43.76291" lon="6.1478">
        <ele>637.3</ele>
      </trkpt>
      <trkpt lat="43.7628" lon="6.14777">
        <ele>636.9</ele>
      </trkpt>
      <trkpt lat="43.76264" lon="6.14766">
        <ele>636.9</ele>
      </trkpt>
      <trkpt lat="43.76251" lon="6.14754">
        <ele>637.6</ele>
      </trkpt>
      <trkpt lat="43.76218" lon="6.14723">
        <ele>636.9</ele>
      </trkpt>
      <trkpt lat="43.76178" lon="6.14708">
        <ele>636.4</ele>
      </trkpt>
      <trkpt lat="43.76153" lon="6.147">
        <ele>635.4</ele>
      </trkpt>
      <trkpt lat="43.76132" lon="6.14678">
        <ele>636.1</ele>
      </trkpt>
      <trkpt lat="43.76107" lon="6.14601">
        <ele>637.3</ele>
      </trkpt>
      <trkpt lat="43.76096" lon="6.14546">
        <ele>636.1</ele>
      </trkpt>
      <trkpt lat="43.76091" lon="6.14524">
        <ele>635.2</ele>
      </trkpt>
      <trkpt lat="43.76091" lon="6.14524">
        <ele>635.2</ele>
      </trkpt>
      <trkpt lat="43.76091" lon="6.14524">
        <ele>635.2</ele>
      </trkpt>
      <trkpt lat="43.76095" lon="6.1449">
        <ele>633.9</ele>
      </trkpt>
      <trkpt lat="43.76117" lon="6.14456">
        <ele>633.5</ele>
      </trkpt>
      <trkpt lat="43.76133" lon="6.14441">
        <ele>634.2</ele>
      </trkpt>
      <trkpt lat="43.76155" lon="6.14431">
        <ele>636</ele>
      </trkpt>
      <trkpt lat="43.76178" lon="6.14425">
        <ele>637.1</ele>
      </trkpt>
      <trkpt lat="43.76195" lon="6.14417">
        <ele>637</ele>
      </trkpt>
      <trkpt lat="43.76197" lon="6.14413">
        <ele>637</ele>
      </trkpt>
      <trkpt lat="43.76196" lon="6.14383">
        <ele>637.1</ele>
      </trkpt>
      <trkpt lat="43.76189" lon="6.14351">
        <ele>637.4</ele>
      </trkpt>
      <trkpt lat="43.76191" lon="6.14318">
        <ele>637.5</ele>
      </trkpt>
      <trkpt lat="43.76196" lon="6.14305">
        <ele>637.4</ele>
      </trkpt>
      <trkpt lat="43.76222" lon="6.14254">
        <ele>637.3</ele>
      </trkpt>
      <trkpt lat="43.76241" lon="6.14213">
        <ele>637</ele>
      </trkpt>
      <trkpt lat="43.76269" lon="6.14158">
        <ele>637</ele>
      </trkpt>
      <trkpt lat="43.76297" lon="6.14108">
        <ele>637</ele>
      </trkpt>
      <trkpt lat="43.76333" lon="6.14057">
        <ele>637.3</ele>
      </trkpt>
      <trkpt lat="43.76354" lon="6.14017">
        <ele>637.7</ele>
      </trkpt>
      <trkpt lat="43.76379" lon="6.13971">
        <ele>636.8</ele>
      </trkpt>
      <trkpt lat="43.76409" lon="6.13913">
        <ele>635.9</ele>
      </trkpt>
      <trkpt lat="43.76434" lon="6.13859">
        <ele>635.4</ele>
      </trkpt>
      <trkpt lat="43.76461" lon="6.13796">
        <ele>635.8</ele>
      </trkpt>
      <trkpt lat="43.76477" lon="6.13758">
        <ele>636.4</ele>
      </trkpt>
      <trkpt lat="43.76503" lon="6.13693">
        <ele>637</ele>
      </trkpt>
      <trkpt lat="43.76527" lon="6.13631">
        <ele>637.3</ele>
      </trkpt>
      <trkpt lat="43.76549" lon="6.13581">
        <ele>637.6</ele>
      </trkpt>
      <trkpt lat="43.76567" lon="6.13536">
        <ele>637.2</ele>
      </trkpt>
      <trkpt lat="43.76592" lon="6.13489">
        <ele>637.3</ele>
      </trkpt>
      <trkpt lat="43.76614" lon="6.13447">
        <ele>638</ele>
      </trkpt>
      <trkpt lat="43.76639" lon="6.13394">
        <ele>638.3</ele>
      </trkpt>
      <trkpt lat="43.76658" lon="6.13344">
        <ele>637.5</ele>
      </trkpt>
      <trkpt lat="43.7667" lon="6.13299">
        <ele>635.3</ele>
      </trkpt>
      <trkpt lat="43.76693" lon="6.13245">
        <ele>633.6</ele>
      </trkpt>
      <trkpt lat="43.76722" lon="6.13209">
        <ele>634.2</ele>
      </trkpt>
      <trkpt lat="43.76772" lon="6.13155">
        <ele>633.6</ele>
      </trkpt>
      <trkpt lat="43.7678" lon="6.13146">
        <ele>633.4</ele>
      </trkpt>
      <trkpt lat="43.76792" lon="6.13132">
        <ele>632.8</ele>
      </trkpt>
      <trkpt lat="43.76792" lon="6.13132">
        <ele>632.8</ele>
      </trkpt>
      <trkpt lat="43.76793" lon="6.13124">
        <ele>632.7</ele>
      </trkpt>
      <trkpt lat="43.76797" lon="6.13105">
        <ele>632.2</ele>
      </trkpt>
      <trkpt lat="43.76803" lon="6.13082">
        <ele>631.3</ele>
      </trkpt>
      <trkpt lat="43.76807" lon="6.13068">
        <ele>630.4</ele>
      </trkpt>
      <trkpt lat="43.76811" lon="6.13052">
        <ele>629.4</ele>
      </trkpt>
      <trkpt lat="43.76822" lon="6.13025">
        <ele>627.2</ele>
      </trkpt>
      <trkpt lat="43.7683" lon="6.13">
        <ele>625.3</ele>
      </trkpt>
      <trkpt lat="43.76835" lon="6.12981">
        <ele>622.1</ele>
      </trkpt>
      <trkpt lat="43.76834" lon="6.12977">
        <ele>621.6</ele>
      </trkpt>
      <trkpt lat="43.76843" lon="6.12974">
        <ele>619.2</ele>
      </trkpt>
      <trkpt lat="43.76855" lon="6.1295">
        <ele>613.8</ele>
      </trkpt>
      <trkpt lat="43.76857" lon="6.1293">
        <ele>611.2</ele>
      </trkpt>
      <trkpt lat="43.76857" lon="6.12918">
        <ele>610</ele>
      </trkpt>
      <trkpt lat="43.76852" lon="6.12913">
        <ele>610.3</ele>
      </trkpt>
      <trkpt lat="43.7685" lon="6.12912">
        <ele>610.6</ele>
      </trkpt>
      <trkpt lat="43.76847" lon="6.1291">
        <ele>610.9</ele>
      </trkpt>
      <trkpt lat="43.76853" lon="6.12896">
        <ele>608.6</ele>
      </trkpt>
      <trkpt lat="43.76865" lon="6.12875">
        <ele>604.9</ele>
      </trkpt>
      <trkpt lat="43.76884" lon="6.12854">
        <ele>600.7</ele>
      </trkpt>
      <trkpt lat="43.7691" lon="6.12838">
        <ele>596.1</ele>
      </trkpt>
      <trkpt lat="43.7694" lon="6.12815">
        <ele>600.9</ele>
      </trkpt>
      <trkpt lat="43.76945" lon="6.12811">
        <ele>602.4</ele>
      </trkpt>
      <trkpt lat="43.76973" lon="6.12804">
        <ele>609.7</ele>
      </trkpt>
      <trkpt lat="43.76976" lon="6.12803">
        <ele>610.6</ele>
      </trkpt>
      <trkpt lat="43.76984" lon="6.12791">
        <ele>613.9</ele>
      </trkpt>
      <trkpt lat="43.76976" lon="6.12769">
        <ele>613.7</ele>
      </trkpt>
      <trkpt lat="43.76966" lon="6.12749">
        <ele>612</ele>
      </trkpt>
      <trkpt lat="43.76958" lon="6.12724">
        <ele>609.8</ele>
      </trkpt>
      <trkpt lat="43.76957" lon="6.12706">
        <ele>609.7</ele>
      </trkpt>
      <trkpt lat="43.76954" lon="6.12663">
        <ele>609.2</ele>
      </trkpt>
      <trkpt lat="43.76947" lon="6.12636">
        <ele>608.9</ele>
      </trkpt>
      <trkpt lat="43.76941" lon="6.12612">
        <ele>608.2</ele>
      </trkpt>
      <trkpt lat="43.76938" lon="6.12585">
        <ele>608.7</ele>
      </trkpt>
      <trkpt lat="43.76936" lon="6.12571">
        <ele>608.6</ele>
      </trkpt>
      <trkpt lat="43.76934" lon="6.1255">
        <ele>609.1</ele>
      </trkpt>
      <trkpt lat="43.76926" lon="6.12521">
        <ele>607.9</ele>
      </trkpt>
      <trkpt lat="43.76923" lon="6.12487">
        <ele>609.2</ele>
      </trkpt>
      <trkpt lat="43.76921" lon="6.12469">
        <ele>610</ele>
      </trkpt>
      <trkpt lat="43.76902" lon="6.12432">
        <ele>607.6</ele>
      </trkpt>
      <trkpt lat="43.76887" lon="6.12413">
        <ele>604.1</ele>
      </trkpt>
      <trkpt lat="43.76856" lon="6.12369">
        <ele>600.1</ele>
      </trkpt>
      <trkpt lat="43.76846" lon="6.12355">
        <ele>599</ele>
      </trkpt>
      <trkpt lat="43.76821" lon="6.12323">
        <ele>596.6</ele>
      </trkpt>
      <trkpt lat="43.76795" lon="6.12281">
        <ele>595.3</ele>
      </trkpt>
      <trkpt lat="43.7679" lon="6.12276">
        <ele>594.4</ele>
      </trkpt>
      <trkpt lat="43.76757" lon="6.12244">
        <ele>587.9</ele>
      </trkpt>
      <trkpt lat="43.76726" lon="6.12209">
        <ele>587.9</ele>
      </trkpt>
      <trkpt lat="43.767" lon="6.12193">
        <ele>583.6</ele>
      </trkpt>
      <trkpt lat="43.76689" lon="6.12181">
        <ele>581.9</ele>
      </trkpt>
      <trkpt lat="43.76684" lon="6.12176">
        <ele>580.8</ele>
      </trkpt>
      <trkpt lat="43.76659" lon="6.12136">
        <ele>581.6</ele>
      </trkpt>
      <trkpt lat="43.76637" lon="6.12099">
        <ele>582.9</ele>
      </trkpt>
      <trkpt lat="43.76626" lon="6.12086">
        <ele>581.1</ele>
      </trkpt>
      <trkpt lat="43.76621" lon="6.1208">
        <ele>580.3</ele>
      </trkpt>
      <trkpt lat="43.76599" lon="6.12044">
        <ele>580.5</ele>
      </trkpt>
      <trkpt lat="43.76586" lon="6.12026">
        <ele>579.8</ele>
      </trkpt>
      <trkpt lat="43.76573" lon="6.12007">
        <ele>579.6</ele>
      </trkpt>
      <trkpt lat="43.76561" lon="6.11987">
        <ele>578.3</ele>
      </trkpt>
      <trkpt lat="43.76556" lon="6.11971">
        <ele>578.6</ele>
      </trkpt>
      <trkpt lat="43.76548" lon="6.11948">
        <ele>577.9</ele>
      </trkpt>
      <trkpt lat="43.76536" lon="6.11914">
        <ele>575.8</ele>
      </trkpt>
      <trkpt lat="43.76532" lon="6.11896">
        <ele>573.9</ele>
      </trkpt>
      <trkpt lat="43.76523" lon="6.11848">
        <ele>570.3</ele>
      </trkpt>
      <trkpt lat="43.76523" lon="6.1178">
        <ele>570.4</ele>
      </trkpt>
      <trkpt lat="43.76527" lon="6.11718">
        <ele>572.8</ele>
      </trkpt>
      <trkpt lat="43.76527" lon="6.11708">
        <ele>572.6</ele>
      </trkpt>
      <trkpt lat="43.76525" lon="6.1169">
        <ele>571.5</ele>
      </trkpt>
      <trkpt lat="43.76512" lon="6.11654">
        <ele>564.3</ele>
      </trkpt>
      <trkpt lat="43.76511" lon="6.11645">
        <ele>563.2</ele>
      </trkpt>
      <trkpt lat="43.76512" lon="6.11626">
        <ele>562.4</ele>
      </trkpt>
      <trkpt lat="43.76509" lon="6.11588">
        <ele>558.4</ele>
      </trkpt>
      <trkpt lat="43.76507" lon="6.11568">
        <ele>556</ele>
      </trkpt>
      <trkpt lat="43.76509" lon="6.1154">
        <ele>554.1</ele>
      </trkpt>
      <trkpt lat="43.76512" lon="6.11491">
        <ele>550.6</ele>
      </trkpt>
      <trkpt lat="43.76505" lon="6.11446">
        <ele>543.1</ele>
      </trkpt>
      <trkpt lat="43.76505" lon="6.11436">
        <ele>542.2</ele>
      </trkpt>
      <trkpt lat="43.76507" lon="6.11394">
        <ele>539</ele>
      </trkpt>
      <trkpt lat="43.76511" lon="6.11364">
        <ele>537.7</ele>
      </trkpt>
      <trkpt lat="43.7651" lon="6.11326">
        <ele>534</ele>
      </trkpt>
      <trkpt lat="43.76513" lon="6.11299">
        <ele>533.9</ele>
      </trkpt>
      <trkpt lat="43.76514" lon="6.1129">
        <ele>533.6</ele>
      </trkpt>
      <trkpt lat="43.76513" lon="6.11253">
        <ele>531.5</ele>
      </trkpt>
      <trkpt lat="43.76506" lon="6.112">
        <ele>529.3</ele>
      </trkpt>
      <trkpt lat="43.76505" lon="6.11158">
        <ele>528.9</ele>
      </trkpt>
      <trkpt lat="43.76491" lon="6.11117">
        <ele>526.9</ele>
      </trkpt>
      <trkpt lat="43.76486" lon="6.11112">
        <ele>526.2</ele>
      </trkpt>
      <trkpt lat="43.76473" lon="6.11104">
        <ele>524.3</ele>
      </trkpt>
      <trkpt lat="43.76456" lon="6.11085">
        <ele>521.2</ele>
      </trkpt>
      <trkpt lat="43.76424" lon="6.11058">
        <ele>518.6</ele>
      </trkpt>
      <trkpt lat="43.76396" lon="6.11039">
        <ele>517.6</ele>
      </trkpt>
      <trkpt lat="43.76367" lon="6.11025">
        <ele>516.1</ele>
      </trkpt>
      <trkpt lat="43.76359" lon="6.11024">
        <ele>515.4</ele>
      </trkpt>
      <trkpt lat="43.76344" lon="6.11023">
        <ele>513.8</ele>
      </trkpt>
      <trkpt lat="43.76317" lon="6.11039">
        <ele>511.8</ele>
      </trkpt>
      <trkpt lat="43.76282" lon="6.11052">
        <ele>510.6</ele>
      </trkpt>
      <trkpt lat="43.76274" lon="6.11055">
        <ele>510.4</ele>
      </trkpt>
      <trkpt lat="43.76246" lon="6.11054">
        <ele>509.3</ele>
      </trkpt>
      <trkpt lat="43.76239" lon="6.11052">
        <ele>508.6</ele>
      </trkpt>
      <trkpt lat="43.76219" lon="6.11027">
        <ele>506</ele>
      </trkpt>
      <trkpt lat="43.76212" lon="6.1102">
        <ele>505.2</ele>
      </trkpt>
      <trkpt lat="43.76198" lon="6.1101">
        <ele>503.8</ele>
      </trkpt>
      <trkpt lat="43.76186" lon="6.10995">
        <ele>503.2</ele>
      </trkpt>
      <trkpt lat="43.76174" lon="6.1098">
        <ele>504.9</ele>
      </trkpt>
      <trkpt lat="43.76165" lon="6.10971">
        <ele>505.9</ele>
      </trkpt>
      <trkpt lat="43.76148" lon="6.10958">
        <ele>506.1</ele>
      </trkpt>
      <trkpt lat="43.76126" lon="6.10948">
        <ele>504.7</ele>
      </trkpt>
      <trkpt lat="43.76101" lon="6.10945">
        <ele>501.6</ele>
      </trkpt>
      <trkpt lat="43.76059" lon="6.10944">
        <ele>497.4</ele>
      </trkpt>
      <trkpt lat="43.76032" lon="6.10959">
        <ele>495.1</ele>
      </trkpt>
      <trkpt lat="43.7602" lon="6.10971">
        <ele>494.6</ele>
      </trkpt>
      <trkpt lat="43.76008" lon="6.10971">
        <ele>493.9</ele>
      </trkpt>
      <trkpt lat="43.75982" lon="6.10966">
        <ele>492</ele>
      </trkpt>
      <trkpt lat="43.75961" lon="6.10963">
        <ele>490.5</ele>
      </trkpt>
      <trkpt lat="43.75936" lon="6.10974">
        <ele>488.5</ele>
      </trkpt>
      <trkpt lat="43.75901" lon="6.10983">
        <ele>485.4</ele>
      </trkpt>
      <trkpt lat="43.75869" lon="6.10999">
        <ele>482</ele>
      </trkpt>
      <trkpt lat="43.75857" lon="6.11">
        <ele>481</ele>
      </trkpt>
      <trkpt lat="43.75826" lon="6.11002">
        <ele>478.6</ele>
      </trkpt>
      <trkpt lat="43.758" lon="6.11001">
        <ele>476.3</ele>
      </trkpt>
      <trkpt lat="43.75784" lon="6.11003">
        <ele>475.2</ele>
      </trkpt>
      <trkpt lat="43.75771" lon="6.11011">
        <ele>475</ele>
      </trkpt>
      <trkpt lat="43.75755" lon="6.11014">
        <ele>474</ele>
      </trkpt>
      <trkpt lat="43.75714" lon="6.11005">
        <ele>468.1</ele>
      </trkpt>
      <trkpt lat="43.75677" lon="6.11019">
        <ele>464.2</ele>
      </trkpt>
      <trkpt lat="43.75665" lon="6.1102">
        <ele>462.8</ele>
      </trkpt>
      <trkpt lat="43.75663" lon="6.11013">
        <ele>462.3</ele>
      </trkpt>
      <trkpt lat="43.75639" lon="6.10992">
        <ele>459.7</ele>
      </trkpt>
      <trkpt lat="43.75626" lon="6.10985">
        <ele>458.7</ele>
      </trkpt>
      <trkpt lat="43.75611" lon="6.10978">
        <ele>457.3</ele>
      </trkpt>
      <trkpt lat="43.75594" lon="6.10969">
        <ele>455.6</ele>
      </trkpt>
      <trkpt lat="43.75562" lon="6.1095">
        <ele>453.1</ele>
      </trkpt>
      <trkpt lat="43.75541" lon="6.10937">
        <ele>451.5</ele>
      </trkpt>
      <trkpt lat="43.75492" lon="6.10923">
        <ele>447.5</ele>
      </trkpt>
      <trkpt lat="43.7547" lon="6.10918">
        <ele>445.5</ele>
      </trkpt>
      <trkpt lat="43.7545" lon="6.10907">
        <ele>444.1</ele>
      </trkpt>
      <trkpt lat="43.75445" lon="6.10899">
        <ele>443.9</ele>
      </trkpt>
      <trkpt lat="43.75426" lon="6.10868">
        <ele>443</ele>
      </trkpt>
      <trkpt lat="43.75399" lon="6.10847">
        <ele>441</ele>
      </trkpt>
      <trkpt lat="43.75379" lon="6.10831">
        <ele>439</ele>
      </trkpt>
      <trkpt lat="43.75362" lon="6.10826">
        <ele>437.4</ele>
      </trkpt>
      <trkpt lat="43.7533" lon="6.10817">
        <ele>434.4</ele>
      </trkpt>
      <trkpt lat="43.75318" lon="6.10806">
        <ele>434.1</ele>
      </trkpt>
      <trkpt lat="43.75298" lon="6.10791">
        <ele>433.2</ele>
      </trkpt>
      <trkpt lat="43.75284" lon="6.10781">
        <ele>432.4</ele>
      </trkpt>
      <trkpt lat="43.75253" lon="6.10768">
        <ele>430.2</ele>
      </trkpt>
      <trkpt lat="43.75209" lon="6.10758">
        <ele>427.2</ele>
      </trkpt>
      <trkpt lat="43.75185" lon="6.10763">
        <ele>425.5</ele>
      </trkpt>
      <trkpt lat="43.75177" lon="6.10764">
        <ele>425</ele>
      </trkpt>
      <trkpt lat="43.75124" lon="6.10762">
        <ele>422.7</ele>
      </trkpt>
      <trkpt lat="43.75116" lon="6.10762">
        <ele>422.5</ele>
      </trkpt>
      <trkpt lat="43.75083" lon="6.10779">
        <ele>421.6</ele>
      </trkpt>
      <trkpt lat="43.75054" lon="6.108">
        <ele>420</ele>
      </trkpt>
      <trkpt lat="43.75048" lon="6.10803">
        <ele>419.6</ele>
      </trkpt>
      <trkpt lat="43.75021" lon="6.10807">
        <ele>417.6</ele>
      </trkpt>
      <trkpt lat="43.74985" lon="6.10801">
        <ele>415.6</ele>
      </trkpt>
      <trkpt lat="43.74949" lon="6.10786">
        <ele>414.8</ele>
      </trkpt>
      <trkpt lat="43.74932" lon="6.10776">
        <ele>414.4</ele>
      </trkpt>
      <trkpt lat="43.74926" lon="6.10772">
        <ele>414.2</ele>
      </trkpt>
      <trkpt lat="43.74916" lon="6.10766">
        <ele>414</ele>
      </trkpt>
      <trkpt lat="43.74901" lon="6.10755">
        <ele>413.8</ele>
      </trkpt>
      <trkpt lat="43.74901" lon="6.10754">
        <ele>413.8</ele>
      </trkpt>
      <trkpt lat="43.74906" lon="6.10756">
        <ele>413.9</ele>
      </trkpt>
      <trkpt lat="43.749" lon="6.10751">
        <ele>413.8</ele>
      </trkpt>
      <trkpt lat="43.74892" lon="6.10745">
        <ele>414.4</ele>
      </trkpt>
      <trkpt lat="43.74869" lon="6.10727">
        <ele>416.7</ele>
      </trkpt>
      <trkpt lat="43.74861" lon="6.10723">
        <ele>417.3</ele>
      </trkpt>
      <trkpt lat="43.74836" lon="6.10712">
        <ele>418.9</ele>
      </trkpt>
      <trkpt lat="43.74807" lon="6.10703">
        <ele>419.6</ele>
      </trkpt>
      <trkpt lat="43.74772" lon="6.10687">
        <ele>421.5</ele>
      </trkpt>
      <trkpt lat="43.74735" lon="6.10672">
        <ele>422.5</ele>
      </trkpt>
      <trkpt lat="43.74725" lon="6.1067">
        <ele>421.9</ele>
      </trkpt>
      <trkpt lat="43.74715" lon="6.10666">
        <ele>421.4</ele>
      </trkpt>
      <trkpt lat="43.74698" lon="6.10647">
        <ele>421.4</ele>
      </trkpt>
      <trkpt lat="43.7469" lon="6.10617">
        <ele>423.4</ele>
      </trkpt>
      <trkpt lat="43.7469" lon="6.1061">
        <ele>423.9</ele>
      </trkpt>
      <trkpt lat="43.7469" lon="6.10573">
        <ele>426.4</ele>
      </trkpt>
      <trkpt lat="43.74691" lon="6.10555">
        <ele>426.5</ele>
      </trkpt>
      <trkpt lat="43.74693" lon="6.10531">
        <ele>426.6</ele>
      </trkpt>
      <trkpt lat="43.74691" lon="6.10495">
        <ele>426.4</ele>
      </trkpt>
      <trkpt lat="43.74689" lon="6.1049">
        <ele>426.2</ele>
      </trkpt>
      <trkpt lat="43.74678" lon="6.10443">
        <ele>425.7</ele>
      </trkpt>
      <trkpt lat="43.74677" lon="6.10437">
        <ele>425.7</ele>
      </trkpt>
      <trkpt lat="43.74677" lon="6.10404">
        <ele>426.2</ele>
      </trkpt>
      <trkpt lat="43.74677" lon="6.10395">
        <ele>426.4</ele>
      </trkpt>
      <trkpt lat="43.74666" lon="6.1038">
        <ele>425.8</ele>
      </trkpt>
      <trkpt lat="43.74658" lon="6.10377">
        <ele>425.2</ele>
      </trkpt>
      <trkpt lat="43.74655" lon="6.10378">
        <ele>424.8</ele>
      </trkpt>
      <trkpt lat="43.74651" lon="6.10379">
        <ele>424.5</ele>
      </trkpt>
      <trkpt lat="43.7464" lon="6.10377">
        <ele>423.6</ele>
      </trkpt>
      <trkpt lat="43.74626" lon="6.10381">
        <ele>422</ele>
      </trkpt>
      <trkpt lat="43.74613" lon="6.10387">
        <ele>420.4</ele>
      </trkpt>
      <trkpt lat="43.74606" lon="6.10383">
        <ele>419.9</ele>
      </trkpt>
      <trkpt lat="43.74607" lon="6.10369">
        <ele>421.2</ele>
      </trkpt>
      <trkpt lat="43.74611" lon="6.10366">
        <ele>421.7</ele>
      </trkpt>
      <trkpt lat="43.74625" lon="6.10354">
        <ele>423.6</ele>
      </trkpt>
      <trkpt lat="43.74643" lon="6.1034">
        <ele>425.5</ele>
      </trkpt>
      <trkpt lat="43.74654" lon="6.10322">
        <ele>427.1</ele>
      </trkpt>
      <trkpt lat="43.74667" lon="6.10293">
        <ele>429.4</ele>
      </trkpt>
      <trkpt lat="43.74676" lon="6.1027">
        <ele>431.6</ele>
      </trkpt>
      <trkpt lat="43.74678" lon="6.10252">
        <ele>432.9</ele>
      </trkpt>
      <trkpt lat="43.74682" lon="6.10228">
        <ele>433</ele>
      </trkpt>
      <trkpt lat="43.74687" lon="6.1021">
        <ele>433.2</ele>
      </trkpt>
      <trkpt lat="43.74695" lon="6.10183">
        <ele>433.6</ele>
      </trkpt>
      <trkpt lat="43.74696" lon="6.10147">
        <ele>433.1</ele>
      </trkpt>
      <trkpt lat="43.74695" lon="6.10132">
        <ele>432.8</ele>
      </trkpt>
      <trkpt lat="43.74698" lon="6.1011">
        <ele>432.7</ele>
      </trkpt>
      <trkpt lat="43.747" lon="6.10103">
        <ele>432.7</ele>
      </trkpt>
      <trkpt lat="43.74706" lon="6.10085">
        <ele>432.9</ele>
      </trkpt>
      <trkpt lat="43.74701" lon="6.10075">
        <ele>432.6</ele>
      </trkpt>
      <trkpt lat="43.74698" lon="6.10073">
        <ele>432.5</ele>
      </trkpt>
      <trkpt lat="43.74681" lon="6.10054">
        <ele>431.7</ele>
      </trkpt>
      <trkpt lat="43.7467" lon="6.10036">
        <ele>431.4</ele>
      </trkpt>
      <trkpt lat="43.74674" lon="6.10024">
        <ele>431.9</ele>
      </trkpt>
      <trkpt lat="43.74682" lon="6.10022">
        <ele>432.5</ele>
      </trkpt>
      <trkpt lat="43.74697" lon="6.10022">
        <ele>433.4</ele>
      </trkpt>
      <trkpt lat="43.74713" lon="6.10017">
        <ele>434.5</ele>
      </trkpt>
      <trkpt lat="43.74731" lon="6.10013">
        <ele>435.7</ele>
      </trkpt>
      <trkpt lat="43.7475" lon="6.10009">
        <ele>436.9</ele>
      </trkpt>
      <trkpt lat="43.74769" lon="6.10004">
        <ele>438.8</ele>
      </trkpt>
      <trkpt lat="43.74789" lon="6.09998">
        <ele>440.8</ele>
      </trkpt>
      <trkpt lat="43.74808" lon="6.09992">
        <ele>442.6</ele>
      </trkpt>
      <trkpt lat="43.74828" lon="6.09983">
        <ele>444.5</ele>
      </trkpt>
      <trkpt lat="43.74848" lon="6.09966">
        <ele>446.2</ele>
      </trkpt>
      <trkpt lat="43.74863" lon="6.09956">
        <ele>447.3</ele>
      </trkpt>
      <trkpt lat="43.74882" lon="6.09943">
        <ele>448.9</ele>
      </trkpt>
      <trkpt lat="43.74903" lon="6.09932">
        <ele>450.7</ele>
      </trkpt>
      <trkpt lat="43.74926" lon="6.0992">
        <ele>452.8</ele>
      </trkpt>
      <trkpt lat="43.74949" lon="6.09909">
        <ele>454.8</ele>
      </trkpt>
      <trkpt lat="43.74936" lon="6.09886">
        <ele>453.5</ele>
      </trkpt>
      <trkpt lat="43.74915" lon="6.09856">
        <ele>451.1</ele>
      </trkpt>
      <trkpt lat="43.74907" lon="6.09831">
        <ele>450.2</ele>
      </trkpt>
      <trkpt lat="43.74907" lon="6.09801">
        <ele>450.2</ele>
      </trkpt>
      <trkpt lat="43.74914" lon="6.09762">
        <ele>450.8</ele>
      </trkpt>
      <trkpt lat="43.7492" lon="6.09759">
        <ele>451.3</ele>
      </trkpt>
      <trkpt lat="43.74936" lon="6.09753">
        <ele>452.9</ele>
      </trkpt>
      <trkpt lat="43.74939" lon="6.09739">
        <ele>453.1</ele>
      </trkpt>
      <trkpt lat="43.74933" lon="6.09731">
        <ele>452.4</ele>
      </trkpt>
      <trkpt lat="43.74915" lon="6.09709">
        <ele>450.8</ele>
      </trkpt>
      <trkpt lat="43.74896" lon="6.09681">
        <ele>449</ele>
      </trkpt>
      <trkpt lat="43.74885" lon="6.0966">
        <ele>448</ele>
      </trkpt>
      <trkpt lat="43.74873" lon="6.09639">
        <ele>447.1</ele>
      </trkpt>
      <trkpt lat="43.74866" lon="6.09627">
        <ele>446.7</ele>
      </trkpt>
      <trkpt lat="43.74865" lon="6.09626">
        <ele>446.7</ele>
      </trkpt>
      <trkpt lat="43.7486" lon="6.09617">
        <ele>446.4</ele>
      </trkpt>
      <trkpt lat="43.74855" lon="6.096">
        <ele>446.3</ele>
      </trkpt>
      <trkpt lat="43.74854" lon="6.09595">
        <ele>446.3</ele>
      </trkpt>
      <trkpt lat="43.74841" lon="6.09544">
        <ele>445.1</ele>
      </trkpt>
      <trkpt lat="43.74839" lon="6.09538">
        <ele>444.9</ele>
      </trkpt>
      <trkpt lat="43.7482" lon="6.09499">
        <ele>443.5</ele>
      </trkpt>
      <trkpt lat="43.74813" lon="6.09475">
        <ele>442.5</ele>
      </trkpt>
      <trkpt lat="43.74809" lon="6.0945">
        <ele>441.7</ele>
      </trkpt>
      <trkpt lat="43.74799" lon="6.09391">
        <ele>439.6</ele>
      </trkpt>
      <trkpt lat="43.74797" lon="6.09353">
        <ele>438</ele>
      </trkpt>
      <trkpt lat="43.74804" lon="6.09321">
        <ele>437.5</ele>
      </trkpt>
      <trkpt lat="43.74817" lon="6.09282">
        <ele>438.1</ele>
      </trkpt>
      <trkpt lat="43.74817" lon="6.09271">
        <ele>438.1</ele>
      </trkpt>
      <trkpt lat="43.74807" lon="6.09244">
        <ele>437.2</ele>
      </trkpt>
      <trkpt lat="43.74796" lon="6.09224">
        <ele>435.6</ele>
      </trkpt>
      <trkpt lat="43.74786" lon="6.09195">
        <ele>433.4</ele>
      </trkpt>
      <trkpt lat="43.74785" lon="6.09177">
        <ele>432.4</ele>
      </trkpt>
      <trkpt lat="43.74792" lon="6.09153">
        <ele>432.9</ele>
      </trkpt>
      <trkpt lat="43.74801" lon="6.09136">
        <ele>434.3</ele>
      </trkpt>
      <trkpt lat="43.74804" lon="6.09135">
        <ele>434.6</ele>
      </trkpt>
      <trkpt lat="43.74805" lon="6.09137">
        <ele>434.7</ele>
      </trkpt>
      <trkpt lat="43.74815" lon="6.09128">
        <ele>436.2</ele>
      </trkpt>
      <trkpt lat="43.7482" lon="6.09122">
        <ele>437.1</ele>
      </trkpt>
      <trkpt lat="43.74839" lon="6.09116">
        <ele>440</ele>
      </trkpt>
      <trkpt lat="43.74856" lon="6.09114">
        <ele>443.1</ele>
      </trkpt>
      <trkpt lat="43.74875" lon="6.0911">
        <ele>446.7</ele>
      </trkpt>
      <trkpt lat="43.74879" lon="6.09111">
        <ele>447.3</ele>
      </trkpt>
      <trkpt lat="43.74886" lon="6.09127">
        <ele>446.9</ele>
      </trkpt>
      <trkpt lat="43.74895" lon="6.09136">
        <ele>447.4</ele>
      </trkpt>
      <trkpt lat="43.74899" lon="6.09136">
        <ele>448</ele>
      </trkpt>
      <trkpt lat="43.74903" lon="6.09135">
        <ele>448.8</ele>
      </trkpt>
      <trkpt lat="43.74912" lon="6.09122">
        <ele>451.7</ele>
      </trkpt>
      <trkpt lat="43.74915" lon="6.09101">
        <ele>454.7</ele>
      </trkpt>
      <trkpt lat="43.74918" lon="6.09085">
        <ele>457</ele>
      </trkpt>
      <trkpt lat="43.74927" lon="6.09068">
        <ele>459.6</ele>
      </trkpt>
      <trkpt lat="43.74929" lon="6.09057">
        <ele>460.6</ele>
      </trkpt>
      <trkpt lat="43.74929" lon="6.09054">
        <ele>460.8</ele>
      </trkpt>
      <trkpt lat="43.74927" lon="6.09044">
        <ele>461.1</ele>
      </trkpt>
      <trkpt lat="43.74929" lon="6.09023">
        <ele>462.7</ele>
      </trkpt>
      <trkpt lat="43.74932" lon="6.09006">
        <ele>464.5</ele>
      </trkpt>
      <trkpt lat="43.74938" lon="6.08989">
        <ele>466.6</ele>
      </trkpt>
      <trkpt lat="43.74942" lon="6.08983">
        <ele>467.8</ele>
      </trkpt>
      <trkpt lat="43.74948" lon="6.0897">
        <ele>469.8</ele>
      </trkpt>
      <trkpt lat="43.74962" lon="6.08947">
        <ele>474.6</ele>
      </trkpt>
      <trkpt lat="43.7497" lon="6.0893">
        <ele>477.8</ele>
      </trkpt>
      <trkpt lat="43.74971" lon="6.08915">
        <ele>478.8</ele>
      </trkpt>
      <trkpt lat="43.74971" lon="6.089">
        <ele>478.2</ele>
      </trkpt>
      <trkpt lat="43.74974" lon="6.08883">
        <ele>478.3</ele>
      </trkpt>
      <trkpt lat="43.74979" lon="6.08867">
        <ele>479.3</ele>
      </trkpt>
      <trkpt lat="43.74989" lon="6.08849">
        <ele>481.3</ele>
      </trkpt>
      <trkpt lat="43.74992" lon="6.08842">
        <ele>482</ele>
      </trkpt>
      <trkpt lat="43.74995" lon="6.08834">
        <ele>482.4</ele>
      </trkpt>
      <trkpt lat="43.74996" lon="6.08819">
        <ele>481.2</ele>
      </trkpt>
      <trkpt lat="43.74994" lon="6.08799">
        <ele>479</ele>
      </trkpt>
      <trkpt lat="43.74999" lon="6.08773">
        <ele>478</ele>
      </trkpt>
      <trkpt lat="43.75008" lon="6.08746">
        <ele>477</ele>
      </trkpt>
      <trkpt lat="43.75021" lon="6.08715">
        <ele>476.7</ele>
      </trkpt>
      <trkpt lat="43.75028" lon="6.08698">
        <ele>476.8</ele>
      </trkpt>
      <trkpt lat="43.75041" lon="6.08682">
        <ele>477.5</ele>
      </trkpt>
      <trkpt lat="43.75053" lon="6.08669">
        <ele>478.4</ele>
      </trkpt>
      <trkpt lat="43.75055" lon="6.08665">
        <ele>478.5</ele>
      </trkpt>
      <trkpt lat="43.75065" lon="6.08653">
        <ele>479.6</ele>
      </trkpt>
      <trkpt lat="43.75071" lon="6.08642">
        <ele>480</ele>
      </trkpt>
      <trkpt lat="43.75079" lon="6.08628">
        <ele>480.6</ele>
      </trkpt>
      <trkpt lat="43.75082" lon="6.08619">
        <ele>480.5</ele>
      </trkpt>
      <trkpt lat="43.75082" lon="6.08616">
        <ele>480.4</ele>
      </trkpt>
      <trkpt lat="43.7508" lon="6.08615">
        <ele>480.1</ele>
      </trkpt>
      <trkpt lat="43.75075" lon="6.08612">
        <ele>479.2</ele>
      </trkpt>
      <trkpt lat="43.75052" lon="6.08607">
        <ele>475.8</ele>
      </trkpt>
      <trkpt lat="43.75038" lon="6.08606">
        <ele>473.8</ele>
      </trkpt>
      <trkpt lat="43.75009" lon="6.08595">
        <ele>469.5</ele>
      </trkpt>
      <trkpt lat="43.74999" lon="6.08588">
        <ele>468</ele>
      </trkpt>
      <trkpt lat="43.74982" lon="6.08573">
        <ele>464.9</ele>
      </trkpt>
      <trkpt lat="43.74971" lon="6.08566">
        <ele>462.8</ele>
      </trkpt>
      <trkpt lat="43.74949" lon="6.0855">
        <ele>458.1</ele>
      </trkpt>
      <trkpt lat="43.74916" lon="6.08547">
        <ele>453.6</ele>
      </trkpt>
      <trkpt lat="43.74897" lon="6.08558">
        <ele>452.6</ele>
      </trkpt>
      <trkpt lat="43.74883" lon="6.0857">
        <ele>452.3</ele>
      </trkpt>
      <trkpt lat="43.74865" lon="6.0858">
        <ele>450.7</ele>
      </trkpt>
      <trkpt lat="43.74857" lon="6.08574">
        <ele>448.7</ele>
      </trkpt>
      <trkpt lat="43.7485" lon="6.08572">
        <ele>447.3</ele>
      </trkpt>
      <trkpt lat="43.74847" lon="6.08572">
        <ele>446.9</ele>
      </trkpt>
      <trkpt lat="43.7484" lon="6.08573">
        <ele>445.9</ele>
      </trkpt>
      <trkpt lat="43.7482" lon="6.0857">
        <ele>442.5</ele>
      </trkpt>
      <trkpt lat="43.74793" lon="6.08548">
        <ele>436.9</ele>
      </trkpt>
      <trkpt lat="43.74789" lon="6.08541">
        <ele>435.6</ele>
      </trkpt>
      <trkpt lat="43.74764" lon="6.0851">
        <ele>429.4</ele>
      </trkpt>
      <trkpt lat="43.74743" lon="6.08504">
        <ele>427.4</ele>
      </trkpt>
      <trkpt lat="43.74725" lon="6.08511">
        <ele>427.9</ele>
      </trkpt>
      <trkpt lat="43.7472" lon="6.08515">
        <ele>428.3</ele>
      </trkpt>
      <trkpt lat="43.74708" lon="6.08525">
        <ele>429.1</ele>
      </trkpt>
      <trkpt lat="43.74699" lon="6.08533">
        <ele>429.6</ele>
      </trkpt>
      <trkpt lat="43.74669" lon="6.08544">
        <ele>430.2</ele>
      </trkpt>
      <trkpt lat="43.74654" lon="6.08542">
        <ele>428.8</ele>
      </trkpt>
      <trkpt lat="43.7463" lon="6.08533">
        <ele>426.1</ele>
      </trkpt>
      <trkpt lat="43.74606" lon="6.08514">
        <ele>423.6</ele>
      </trkpt>
      <trkpt lat="43.74595" lon="6.08489">
        <ele>421.4</ele>
      </trkpt>
      <trkpt lat="43.7459" lon="6.08457">
        <ele>417.8</ele>
      </trkpt>
      <trkpt lat="43.74591" lon="6.08447">
        <ele>416.8</ele>
      </trkpt>
      <trkpt lat="43.746" lon="6.08421">
        <ele>414.6</ele>
      </trkpt>
      <trkpt lat="43.74604" lon="6.08415">
        <ele>414.5</ele>
      </trkpt>
      <trkpt lat="43.74608" lon="6.0841">
        <ele>415</ele>
      </trkpt>
      <trkpt lat="43.74623" lon="6.08397">
        <ele>416.6</ele>
      </trkpt>
      <trkpt lat="43.74634" lon="6.08387">
        <ele>417.9</ele>
      </trkpt>
      <trkpt lat="43.7464" lon="6.08388">
        <ele>418.4</ele>
      </trkpt>
      <trkpt lat="43.74654" lon="6.08374">
        <ele>420.4</ele>
      </trkpt>
      <trkpt lat="43.74663" lon="6.08352">
        <ele>422.5</ele>
      </trkpt>
      <trkpt lat="43.7466" lon="6.08326">
        <ele>423.4</ele>
      </trkpt>
      <trkpt lat="43.74648" lon="6.08312">
        <ele>422.4</ele>
      </trkpt>
      <trkpt lat="43.74623" lon="6.08296">
        <ele>419.9</ele>
      </trkpt>
      <trkpt lat="43.7461" lon="6.08281">
        <ele>418.9</ele>
      </trkpt>
      <trkpt lat="43.74602" lon="6.08252">
        <ele>419</ele>
      </trkpt>
      <trkpt lat="43.74606" lon="6.08222">
        <ele>419.9</ele>
      </trkpt>
      <trkpt lat="43.74619" lon="6.0821">
        <ele>421.5</ele>
      </trkpt>
      <trkpt lat="43.74632" lon="6.082">
        <ele>423.2</ele>
      </trkpt>
      <trkpt lat="43.74642" lon="6.0818">
        <ele>424.8</ele>
      </trkpt>
      <trkpt lat="43.74639" lon="6.08163">
        <ele>425.2</ele>
      </trkpt>
      <trkpt lat="43.74633" lon="6.08155">
        <ele>425.5</ele>
      </trkpt>
      <trkpt lat="43.74606" lon="6.08131">
        <ele>425.3</ele>
      </trkpt>
      <trkpt lat="43.74595" lon="6.08114">
        <ele>425.9</ele>
      </trkpt>
      <trkpt lat="43.74583" lon="6.08087">
        <ele>427.6</ele>
      </trkpt>
      <trkpt lat="43.74575" lon="6.08043">
        <ele>426.2</ele>
      </trkpt>
      <trkpt lat="43.74561" lon="6.0802">
        <ele>424.4</ele>
      </trkpt>
      <trkpt lat="43.74545" lon="6.08021">
        <ele>422.4</ele>
      </trkpt>
      <trkpt lat="43.7452" lon="6.08019">
        <ele>419.2</ele>
      </trkpt>
      <trkpt lat="43.74505" lon="6.08001">
        <ele>418.6</ele>
      </trkpt>
      <trkpt lat="43.74479" lon="6.07961">
        <ele>422.4</ele>
      </trkpt>
      <trkpt lat="43.74453" lon="6.07927">
        <ele>425.1</ele>
      </trkpt>
      <trkpt lat="43.74446" lon="6.07899">
        <ele>426.2</ele>
      </trkpt>
      <trkpt lat="43.74446" lon="6.07873">
        <ele>426.9</ele>
      </trkpt>
      <trkpt lat="43.74438" lon="6.07835">
        <ele>426.6</ele>
      </trkpt>
      <trkpt lat="43.74419" lon="6.07814">
        <ele>424.8</ele>
      </trkpt>
      <trkpt lat="43.74395" lon="6.07809">
        <ele>422.7</ele>
      </trkpt>
      <trkpt lat="43.74371" lon="6.07819">
        <ele>419.2</ele>
      </trkpt>
      <trkpt lat="43.7435" lon="6.07831">
        <ele>415.3</ele>
      </trkpt>
      <trkpt lat="43.74325" lon="6.07828">
        <ele>414</ele>
      </trkpt>
      <trkpt lat="43.74321" lon="6.07825">
        <ele>414.5</ele>
      </trkpt>
      <trkpt lat="43.74293" lon="6.07784">
        <ele>421.7</ele>
      </trkpt>
      <trkpt lat="43.74275" lon="6.07753">
        <ele>427</ele>
      </trkpt>
      <trkpt lat="43.74249" lon="6.07737">
        <ele>430.1</ele>
      </trkpt>
      <trkpt lat="43.74224" lon="6.07746">
        <ele>425.4</ele>
      </trkpt>
      <trkpt lat="43.7421" lon="6.0774">
        <ele>424.5</ele>
      </trkpt>
      <trkpt lat="43.74178" lon="6.07718">
        <ele>424.3</ele>
      </trkpt>
      <trkpt lat="43.74159" lon="6.07715">
        <ele>423.1</ele>
      </trkpt>
      <trkpt lat="43.74152" lon="6.0772">
        <ele>422.2</ele>
      </trkpt>
      <trkpt lat="43.74128" lon="6.07735">
        <ele>418.8</ele>
      </trkpt>
      <trkpt lat="43.74103" lon="6.07745">
        <ele>416.4</ele>
      </trkpt>
      <trkpt lat="43.7408" lon="6.07755">
        <ele>414.8</ele>
      </trkpt>
      <trkpt lat="43.74054" lon="6.07767">
        <ele>415.5</ele>
      </trkpt>
      <trkpt lat="43.7404" lon="6.07771">
        <ele>416.4</ele>
      </trkpt>
      <trkpt lat="43.74017" lon="6.0776">
        <ele>419.7</ele>
      </trkpt>
      <trkpt lat="43.74012" lon="6.07752">
        <ele>420.9</ele>
      </trkpt>
      <trkpt lat="43.73993" lon="6.07711">
        <ele>424.3</ele>
      </trkpt>
      <trkpt lat="43.73979" lon="6.07693">
        <ele>424.7</ele>
      </trkpt>
      <trkpt lat="43.73961" lon="6.07689">
        <ele>424</ele>
      </trkpt>
      <trkpt lat="43.73946" lon="6.07701">
        <ele>421.8</ele>
      </trkpt>
      <trkpt lat="43.73938" lon="6.0772">
        <ele>419.5</ele>
      </trkpt>
      <trkpt lat="43.73919" lon="6.07797">
        <ele>412.3</ele>
      </trkpt>
      <trkpt lat="43.73909" lon="6.07831">
        <ele>410.5</ele>
      </trkpt>
      <trkpt lat="43.73886" lon="6.07858">
        <ele>409.2</ele>
      </trkpt>
      <trkpt lat="43.73872" lon="6.0787">
        <ele>408.6</ele>
      </trkpt>
      <trkpt lat="43.73858" lon="6.07885">
        <ele>407.4</ele>
      </trkpt>
      <trkpt lat="43.73844" lon="6.07916">
        <ele>404.1</ele>
      </trkpt>
      <trkpt lat="43.73837" lon="6.0795">
        <ele>404.4</ele>
      </trkpt>
      <trkpt lat="43.73836" lon="6.07971">
        <ele>404.6</ele>
      </trkpt>
      <trkpt lat="43.73833" lon="6.08025">
        <ele>405.6</ele>
      </trkpt>
      <trkpt lat="43.73826" lon="6.08085">
        <ele>407.4</ele>
      </trkpt>
      <trkpt lat="43.73816" lon="6.08113">
        <ele>407</ele>
      </trkpt>
      <trkpt lat="43.73801" lon="6.08133">
        <ele>407.2</ele>
      </trkpt>
      <trkpt lat="43.73769" lon="6.08153">
        <ele>408.4</ele>
      </trkpt>
      <trkpt lat="43.73737" lon="6.08159">
        <ele>409.5</ele>
      </trkpt>
      <trkpt lat="43.73705" lon="6.08152">
        <ele>410.3</ele>
      </trkpt>
      <trkpt lat="43.73685" lon="6.08139">
        <ele>411.3</ele>
      </trkpt>
      <trkpt lat="43.73668" lon="6.08111">
        <ele>413.3</ele>
      </trkpt>
      <trkpt lat="43.73656" lon="6.08096">
        <ele>414.3</ele>
      </trkpt>
      <trkpt lat="43.73634" lon="6.08063">
        <ele>415.7</ele>
      </trkpt>
      <trkpt lat="43.73615" lon="6.08037">
        <ele>416.8</ele>
      </trkpt>
      <trkpt lat="43.73594" lon="6.07991">
        <ele>419</ele>
      </trkpt>
      <trkpt lat="43.73587" lon="6.07932">
        <ele>420.6</ele>
      </trkpt>
      <trkpt lat="43.7358" lon="6.07881">
        <ele>424</ele>
      </trkpt>
      <trkpt lat="43.73585" lon="6.07842">
        <ele>427.3</ele>
      </trkpt>
      <trkpt lat="43.73585" lon="6.07818">
        <ele>429.3</ele>
      </trkpt>
      <trkpt lat="43.73589" lon="6.07793">
        <ele>431.2</ele>
      </trkpt>
      <trkpt lat="43.73598" lon="6.07755">
        <ele>434.3</ele>
      </trkpt>
      <trkpt lat="43.73618" lon="6.07728">
        <ele>436.5</ele>
      </trkpt>
      <trkpt lat="43.73625" lon="6.07702">
        <ele>438.9</ele>
      </trkpt>
      <trkpt lat="43.73619" lon="6.07667">
        <ele>442.6</ele>
      </trkpt>
      <trkpt lat="43.73608" lon="6.07657">
        <ele>443.9</ele>
      </trkpt>
      <trkpt lat="43.73593" lon="6.07651">
        <ele>445.1</ele>
      </trkpt>
      <trkpt lat="43.73576" lon="6.07659">
        <ele>443.8</ele>
      </trkpt>
      <trkpt lat="43.73548" lon="6.07665">
        <ele>441.9</ele>
      </trkpt>
      <trkpt lat="43.73516" lon="6.07654">
        <ele>442.2</ele>
      </trkpt>
      <trkpt lat="43.73504" lon="6.07634">
        <ele>444.1</ele>
      </trkpt>
      <trkpt lat="43.73493" lon="6.07607">
        <ele>447.1</ele>
      </trkpt>
      <trkpt lat="43.73482" lon="6.07589">
        <ele>449.2</ele>
      </trkpt>
      <trkpt lat="43.73461" lon="6.07588">
        <ele>449.1</ele>
      </trkpt>
      <trkpt lat="43.73442" lon="6.07591">
        <ele>448.4</ele>
      </trkpt>
      <trkpt lat="43.73428" lon="6.07587">
        <ele>448.7</ele>
      </trkpt>
      <trkpt lat="43.73408" lon="6.07578">
        <ele>449.8</ele>
      </trkpt>
      <trkpt lat="43.73394" lon="6.07568">
        <ele>450.8</ele>
      </trkpt>
      <trkpt lat="43.73383" lon="6.07556">
        <ele>452.2</ele>
      </trkpt>
      <trkpt lat="43.73372" lon="6.07553">
        <ele>452.5</ele>
      </trkpt>
      <trkpt lat="43.73362" lon="6.07549">
        <ele>452.9</ele>
      </trkpt>
      <trkpt lat="43.73352" lon="6.07541">
        <ele>453.8</ele>
      </trkpt>
      <trkpt lat="43.73342" lon="6.07532">
        <ele>454.7</ele>
      </trkpt>
      <trkpt lat="43.73331" lon="6.07524">
        <ele>455.5</ele>
      </trkpt>
      <trkpt lat="43.7332" lon="6.07512">
        <ele>457</ele>
      </trkpt>
      <trkpt lat="43.73313" lon="6.07502">
        <ele>458.1</ele>
      </trkpt>
      <trkpt lat="43.73305" lon="6.07484">
        <ele>460.6</ele>
      </trkpt>
      <trkpt lat="43.73298" lon="6.0747">
        <ele>462.4</ele>
      </trkpt>
      <trkpt lat="43.73287" lon="6.07453">
        <ele>464.9</ele>
      </trkpt>
      <trkpt lat="43.73273" lon="6.07438">
        <ele>466.6</ele>
      </trkpt>
      <trkpt lat="43.73259" lon="6.0744">
        <ele>466.2</ele>
      </trkpt>
      <trkpt lat="43.73244" lon="6.0743">
        <ele>467.5</ele>
      </trkpt>
      <trkpt lat="43.73228" lon="6.07425">
        <ele>468.3</ele>
      </trkpt>
      <trkpt lat="43.73215" lon="6.07419">
        <ele>469.3</ele>
      </trkpt>
      <trkpt lat="43.73207" lon="6.07408">
        <ele>470.5</ele>
      </trkpt>
      <trkpt lat="43.73197" lon="6.07399">
        <ele>471.6</ele>
      </trkpt>
      <trkpt lat="43.73189" lon="6.0739">
        <ele>472.7</ele>
      </trkpt>
      <trkpt lat="43.73182" lon="6.07383">
        <ele>473.7</ele>
      </trkpt>
      <trkpt lat="43.73171" lon="6.0737">
        <ele>475.5</ele>
      </trkpt>
      <trkpt lat="43.73159" lon="6.07366">
        <ele>475.8</ele>
      </trkpt>
      <trkpt lat="43.73146" lon="6.07359">
        <ele>476.4</ele>
      </trkpt>
      <trkpt lat="43.73129" lon="6.07346">
        <ele>477.3</ele>
      </trkpt>
      <trkpt lat="43.73118" lon="6.07338">
        <ele>477.8</ele>
      </trkpt>
      <trkpt lat="43.731" lon="6.07319">
        <ele>478.8</ele>
      </trkpt>
      <trkpt lat="43.73062" lon="6.07288">
        <ele>479.3</ele>
      </trkpt>
      <trkpt lat="43.73036" lon="6.07259">
        <ele>479.5</ele>
      </trkpt>
      <trkpt lat="43.73021" lon="6.07243">
        <ele>479.2</ele>
      </trkpt>
      <trkpt lat="43.73004" lon="6.07223">
        <ele>479</ele>
      </trkpt>
      <trkpt lat="43.7299" lon="6.07212">
        <ele>478.9</ele>
      </trkpt>
      <trkpt lat="43.72975" lon="6.072">
        <ele>479.1</ele>
      </trkpt>
      <trkpt lat="43.7296" lon="6.07188">
        <ele>479.3</ele>
      </trkpt>
      <trkpt lat="43.72933" lon="6.07172">
        <ele>479.4</ele>
      </trkpt>
      <trkpt lat="43.72912" lon="6.07148">
        <ele>479.7</ele>
      </trkpt>
      <trkpt lat="43.72884" lon="6.07126">
        <ele>479.2</ele>
      </trkpt>
      <trkpt lat="43.72856" lon="6.0712">
        <ele>477.9</ele>
      </trkpt>
      <trkpt lat="43.72836" lon="6.07113">
        <ele>477.1</ele>
      </trkpt>
      <trkpt lat="43.72823" lon="6.07111">
        <ele>476.6</ele>
      </trkpt>
      <trkpt lat="43.72806" lon="6.07101">
        <ele>476.1</ele>
      </trkpt>
      <trkpt lat="43.72782" lon="6.07093">
        <ele>475.3</ele>
      </trkpt>
      <trkpt lat="43.72765" lon="6.07089">
        <ele>474.6</ele>
      </trkpt>
      <trkpt lat="43.72721" lon="6.07073">
        <ele>472.7</ele>
      </trkpt>
      <trkpt lat="43.72693" lon="6.07065">
        <ele>471.4</ele>
      </trkpt>
      <trkpt lat="43.72656" lon="6.07053">
        <ele>470.1</ele>
      </trkpt>
      <trkpt lat="43.72632" lon="6.07041">
        <ele>469.8</ele>
      </trkpt>
      <trkpt lat="43.72611" lon="6.07025">
        <ele>469.8</ele>
      </trkpt>
      <trkpt lat="43.72585" lon="6.06989">
        <ele>470.6</ele>
      </trkpt>
      <trkpt lat="43.72577" lon="6.06978">
        <ele>471</ele>
      </trkpt>
      <trkpt lat="43.72547" lon="6.06943">
        <ele>472</ele>
      </trkpt>
      <trkpt lat="43.72522" lon="6.06895">
        <ele>473.6</ele>
      </trkpt>
      <trkpt lat="43.72497" lon="6.06849">
        <ele>475.1</ele>
      </trkpt>
      <trkpt lat="43.72488" lon="6.06839">
        <ele>475</ele>
      </trkpt>
      <trkpt lat="43.72474" lon="6.06825">
        <ele>474.8</ele>
      </trkpt>
      <trkpt lat="43.72448" lon="6.06804">
        <ele>474.2</ele>
      </trkpt>
      <trkpt lat="43.72444" lon="6.06803">
        <ele>474</ele>
      </trkpt>
      <trkpt lat="43.72428" lon="6.06785">
        <ele>474</ele>
      </trkpt>
      <trkpt lat="43.72415" lon="6.06767">
        <ele>474.1</ele>
      </trkpt>
      <trkpt lat="43.72395" lon="6.06743">
        <ele>474.6</ele>
      </trkpt>
      <trkpt lat="43.72373" lon="6.06723">
        <ele>475.1</ele>
      </trkpt>
      <trkpt lat="43.72344" lon="6.067">
        <ele>475.9</ele>
      </trkpt>
      <trkpt lat="43.72336" lon="6.06693">
        <ele>476.2</ele>
      </trkpt>
      <trkpt lat="43.72305" lon="6.06663">
        <ele>477.2</ele>
      </trkpt>
      <trkpt lat="43.72268" lon="6.06615">
        <ele>478.8</ele>
      </trkpt>
      <trkpt lat="43.72246" lon="6.06587">
        <ele>479.4</ele>
      </trkpt>
      <trkpt lat="43.72223" lon="6.06535">
        <ele>479.1</ele>
      </trkpt>
      <trkpt lat="43.72218" lon="6.065">
        <ele>479.3</ele>
      </trkpt>
      <trkpt lat="43.72216" lon="6.0645">
        <ele>479</ele>
      </trkpt>
      <trkpt lat="43.72213" lon="6.06436">
        <ele>478.8</ele>
      </trkpt>
      <trkpt lat="43.72196" lon="6.06404">
        <ele>478.5</ele>
      </trkpt>
      <trkpt lat="43.7219" lon="6.06389">
        <ele>478.9</ele>
      </trkpt>
      <trkpt lat="43.72186" lon="6.06378">
        <ele>479.2</ele>
      </trkpt>
      <trkpt lat="43.72187" lon="6.06371">
        <ele>479.6</ele>
      </trkpt>
      <trkpt lat="43.72189" lon="6.06363">
        <ele>480.2</ele>
      </trkpt>
      <trkpt lat="43.72198" lon="6.06356">
        <ele>481.4</ele>
      </trkpt>
      <trkpt lat="43.72199" lon="6.06342">
        <ele>482.2</ele>
      </trkpt>
      <trkpt lat="43.72199" lon="6.06323">
        <ele>483.5</ele>
      </trkpt>
      <trkpt lat="43.72198" lon="6.06302">
        <ele>485.2</ele>
      </trkpt>
      <trkpt lat="43.72198" lon="6.0628">
        <ele>486.9</ele>
      </trkpt>
      <trkpt lat="43.722" lon="6.06258">
        <ele>488.6</ele>
      </trkpt>
      <trkpt lat="43.72202" lon="6.06245">
        <ele>489.6</ele>
      </trkpt>
      <trkpt lat="43.72205" lon="6.06231">
        <ele>490.2</ele>
      </trkpt>
      <trkpt lat="43.72209" lon="6.06216">
        <ele>490.9</ele>
      </trkpt>
      <trkpt lat="43.72211" lon="6.06193">
        <ele>491.5</ele>
      </trkpt>
      <trkpt lat="43.72213" lon="6.06173">
        <ele>492</ele>
      </trkpt>
      <trkpt lat="43.72217" lon="6.0616">
        <ele>492.7</ele>
      </trkpt>
      <trkpt lat="43.72221" lon="6.06142">
        <ele>493.7</ele>
      </trkpt>
      <trkpt lat="43.72226" lon="6.06128">
        <ele>494.5</ele>
      </trkpt>
      <trkpt lat="43.72232" lon="6.06111">
        <ele>495.3</ele>
      </trkpt>
      <trkpt lat="43.72241" lon="6.06101">
        <ele>495.6</ele>
      </trkpt>
      <trkpt lat="43.72249" lon="6.06089">
        <ele>495.9</ele>
      </trkpt>
      <trkpt lat="43.72262" lon="6.06075">
        <ele>497.2</ele>
      </trkpt>
      <trkpt lat="43.72279" lon="6.0606">
        <ele>498.8</ele>
      </trkpt>
      <trkpt lat="43.72298" lon="6.06046">
        <ele>500.4</ele>
      </trkpt>
      <trkpt lat="43.72317" lon="6.06028">
        <ele>502.2</ele>
      </trkpt>
      <trkpt lat="43.7234" lon="6.05999">
        <ele>504.9</ele>
      </trkpt>
      <trkpt lat="43.72364" lon="6.0596">
        <ele>508.9</ele>
      </trkpt>
      <trkpt lat="43.7237" lon="6.05951">
        <ele>510.1</ele>
      </trkpt>
      <trkpt lat="43.72394" lon="6.05928">
        <ele>514.6</ele>
      </trkpt>
      <trkpt lat="43.72408" lon="6.05897">
        <ele>517.2</ele>
      </trkpt>
      <trkpt lat="43.72419" lon="6.05871">
        <ele>518.3</ele>
      </trkpt>
      <trkpt lat="43.72431" lon="6.0585">
        <ele>520.3</ele>
      </trkpt>
      <trkpt lat="43.72439" lon="6.0583">
        <ele>521.1</ele>
      </trkpt>
      <trkpt lat="43.72439" lon="6.05809">
        <ele>520.6</ele>
      </trkpt>
      <trkpt lat="43.72442" lon="6.05785">
        <ele>520.3</ele>
      </trkpt>
      <trkpt lat="43.72446" lon="6.05767">
        <ele>520.4</ele>
      </trkpt>
      <trkpt lat="43.72455" lon="6.05756">
        <ele>521.5</ele>
      </trkpt>
      <trkpt lat="43.72467" lon="6.05748">
        <ele>523.5</ele>
      </trkpt>
      <trkpt lat="43.72481" lon="6.05731">
        <ele>526.4</ele>
      </trkpt>
      <trkpt lat="43.72489" lon="6.05706">
        <ele>528.2</ele>
      </trkpt>
      <trkpt lat="43.72495" lon="6.05686">
        <ele>529.3</ele>
      </trkpt>
      <trkpt lat="43.72502" lon="6.05665">
        <ele>530.5</ele>
      </trkpt>
      <trkpt lat="43.72506" lon="6.05648">
        <ele>532.1</ele>
      </trkpt>
      <trkpt lat="43.72511" lon="6.05629">
        <ele>534.2</ele>
      </trkpt>
      <trkpt lat="43.72511" lon="6.05612">
        <ele>535</ele>
      </trkpt>
      <trkpt lat="43.72504" lon="6.05594">
        <ele>534.4</ele>
      </trkpt>
      <trkpt lat="43.72498" lon="6.05581">
        <ele>534.2</ele>
      </trkpt>
      <trkpt lat="43.72494" lon="6.05569">
        <ele>535.4</ele>
      </trkpt>
      <trkpt lat="43.72496" lon="6.05557">
        <ele>537</ele>
      </trkpt>
      <trkpt lat="43.72495" lon="6.05544">
        <ele>538.4</ele>
      </trkpt>
      <trkpt lat="43.7249" lon="6.05535">
        <ele>539.1</ele>
      </trkpt>
      <trkpt lat="43.72485" lon="6.05525">
        <ele>540</ele>
      </trkpt>
      <trkpt lat="43.72481" lon="6.05514">
        <ele>540.8</ele>
      </trkpt>
      <trkpt lat="43.72475" lon="6.05501">
        <ele>541.9</ele>
      </trkpt>
      <trkpt lat="43.72466" lon="6.05484">
        <ele>541.5</ele>
      </trkpt>
      <trkpt lat="43.72461" lon="6.05472">
        <ele>541.4</ele>
      </trkpt>
      <trkpt lat="43.72456" lon="6.05459">
        <ele>541.4</ele>
      </trkpt>
      <trkpt lat="43.72452" lon="6.05442">
        <ele>541.6</ele>
      </trkpt>
      <trkpt lat="43.72448" lon="6.05433">
        <ele>541.6</ele>
      </trkpt>
      <trkpt lat="43.72442" lon="6.0542">
        <ele>541.8</ele>
      </trkpt>
      <trkpt lat="43.72441" lon="6.05418">
        <ele>541.8</ele>
      </trkpt>
      <trkpt lat="43.72436" lon="6.05403">
        <ele>543.2</ele>
      </trkpt>
      <trkpt lat="43.72431" lon="6.0539">
        <ele>544.5</ele>
      </trkpt>
      <trkpt lat="43.72433" lon="6.05375">
        <ele>546.1</ele>
      </trkpt>
      <trkpt lat="43.72438" lon="6.05352">
        <ele>548.6</ele>
      </trkpt>
      <trkpt lat="43.72451" lon="6.05323">
        <ele>551</ele>
      </trkpt>
      <trkpt lat="43.72461" lon="6.05306">
        <ele>552.2</ele>
      </trkpt>
      <trkpt lat="43.72472" lon="6.0529">
        <ele>553.4</ele>
      </trkpt>
      <trkpt lat="43.72489" lon="6.05266">
        <ele>555</ele>
      </trkpt>
      <trkpt lat="43.72518" lon="6.05224">
        <ele>556.8</ele>
      </trkpt>
      <trkpt lat="43.72555" lon="6.05168">
        <ele>558</ele>
      </trkpt>
      <trkpt lat="43.72572" lon="6.05141">
        <ele>558</ele>
      </trkpt>
      <trkpt lat="43.72574" lon="6.05138">
        <ele>558</ele>
      </trkpt>
      <trkpt lat="43.72576" lon="6.05128">
        <ele>558</ele>
      </trkpt>
      <trkpt lat="43.72585" lon="6.0512">
        <ele>558</ele>
      </trkpt>
      <trkpt lat="43.72591" lon="6.05104">
        <ele>557.9</ele>
      </trkpt>
      <trkpt lat="43.726" lon="6.05064">
        <ele>557.4</ele>
      </trkpt>
      <trkpt lat="43.72605" lon="6.05041">
        <ele>557</ele>
      </trkpt>
      <trkpt lat="43.72617" lon="6.04996">
        <ele>556.2</ele>
      </trkpt>
      <trkpt lat="43.72619" lon="6.04988">
        <ele>556.1</ele>
      </trkpt>
      <trkpt lat="43.72622" lon="6.04963">
        <ele>555.9</ele>
      </trkpt>
      <trkpt lat="43.72618" lon="6.04906">
        <ele>555.9</ele>
      </trkpt>
      <trkpt lat="43.72604" lon="6.04828">
        <ele>557.5</ele>
      </trkpt>
      <trkpt lat="43.72589" lon="6.04772">
        <ele>558.5</ele>
      </trkpt>
      <trkpt lat="43.72571" lon="6.04711">
        <ele>558.9</ele>
      </trkpt>
      <trkpt lat="43.72556" lon="6.04645">
        <ele>558.8</ele>
      </trkpt>
      <trkpt lat="43.72535" lon="6.04557">
        <ele>558.6</ele>
      </trkpt>
      <trkpt lat="43.72517" lon="6.04463">
        <ele>558.4</ele>
      </trkpt>
      <trkpt lat="43.72493" lon="6.04369">
        <ele>558.7</ele>
      </trkpt>
      <trkpt lat="43.72468" lon="6.04277">
        <ele>559</ele>
      </trkpt>
      <trkpt lat="43.72447" lon="6.04195">
        <ele>559</ele>
      </trkpt>
      <trkpt lat="43.7242" lon="6.04103">
        <ele>557.6</ele>
      </trkpt>
      <trkpt lat="43.72395" lon="6.04011">
        <ele>555.5</ele>
      </trkpt>
      <trkpt lat="43.7238" lon="6.03926">
        <ele>553.7</ele>
      </trkpt>
      <trkpt lat="43.72363" lon="6.03835">
        <ele>554.3</ele>
      </trkpt>
      <trkpt lat="43.72345" lon="6.03757">
        <ele>555.5</ele>
      </trkpt>
      <trkpt lat="43.72333" lon="6.03681">
        <ele>556</ele>
      </trkpt>
      <trkpt lat="43.7232" lon="6.03595">
        <ele>554.8</ele>
      </trkpt>
      <trkpt lat="43.72298" lon="6.03505">
        <ele>553.1</ele>
      </trkpt>
      <trkpt lat="43.7227" lon="6.03431">
        <ele>551.7</ele>
      </trkpt>
      <trkpt lat="43.7224" lon="6.0336">
        <ele>551.7</ele>
      </trkpt>
      <trkpt lat="43.72213" lon="6.03287">
        <ele>552.3</ele>
      </trkpt>
      <trkpt lat="43.7219" lon="6.03216">
        <ele>552.2</ele>
      </trkpt>
      <trkpt lat="43.72181" lon="6.03194">
        <ele>552.1</ele>
      </trkpt>
      <trkpt lat="43.72181" lon="6.03191">
        <ele>552</ele>
      </trkpt>
      <trkpt lat="43.72177" lon="6.03188">
        <ele>552</ele>
      </trkpt>
      <trkpt lat="43.72177" lon="6.0319">
        <ele>552</ele>
      </trkpt>
      <trkpt lat="43.72175" lon="6.03201">
        <ele>552</ele>
      </trkpt>
      <trkpt lat="43.72173" lon="6.03209">
        <ele>552</ele>
      </trkpt>
      <trkpt lat="43.72166" lon="6.03232">
        <ele>552</ele>
      </trkpt>
      <trkpt lat="43.72159" lon="6.03249">
        <ele>551.7</ele>
      </trkpt>
      <trkpt lat="43.72151" lon="6.03271">
        <ele>551.5</ele>
      </trkpt>
      <trkpt lat="43.72142" lon="6.03294">
        <ele>551.3</ele>
      </trkpt>
      <trkpt lat="43.72138" lon="6.03304">
        <ele>551.2</ele>
      </trkpt>
      <trkpt lat="43.72124" lon="6.03344">
        <ele>550.9</ele>
      </trkpt>
      <trkpt lat="43.72093" lon="6.0342">
        <ele>550.1</ele>
      </trkpt>
      <trkpt lat="43.7207" lon="6.03476">
        <ele>550.5</ele>
      </trkpt>
      <trkpt lat="43.72054" lon="6.03499">
        <ele>550.3</ele>
      </trkpt>
      <trkpt lat="43.72026" lon="6.03523">
        <ele>549.8</ele>
      </trkpt>
      <trkpt lat="43.72012" lon="6.03539">
        <ele>549.4</ele>
      </trkpt>
      <trkpt lat="43.72005" lon="6.03553">
        <ele>549.2</ele>
      </trkpt>
      <trkpt lat="43.71985" lon="6.03579">
        <ele>548.2</ele>
      </trkpt>
      <trkpt lat="43.71951" lon="6.03628">
        <ele>539.8</ele>
      </trkpt>
      <trkpt lat="43.71923" lon="6.03669">
        <ele>531.4</ele>
      </trkpt>
      <trkpt lat="43.7191" lon="6.03687">
        <ele>528.6</ele>
      </trkpt>
      <trkpt lat="43.71877" lon="6.03716">
        <ele>527</ele>
      </trkpt>
      <trkpt lat="43.71869" lon="6.03725">
        <ele>526.4</ele>
      </trkpt>
      <trkpt lat="43.7184" lon="6.03769">
        <ele>521</ele>
      </trkpt>
      <trkpt lat="43.71831" lon="6.03787">
        <ele>518.7</ele>
      </trkpt>
      <trkpt lat="43.71814" lon="6.0385">
        <ele>511.2</ele>
      </trkpt>
      <trkpt lat="43.71812" lon="6.03862">
        <ele>510.9</ele>
      </trkpt>
      <trkpt lat="43.71795" lon="6.03915">
        <ele>508.2</ele>
      </trkpt>
      <trkpt lat="43.71782" lon="6.03956">
        <ele>505.9</ele>
      </trkpt>
      <trkpt lat="43.7177" lon="6.03975">
        <ele>503.3</ele>
      </trkpt>
      <trkpt lat="43.71747" lon="6.04019">
        <ele>497.4</ele>
      </trkpt>
      <trkpt lat="43.71732" lon="6.0404">
        <ele>496.6</ele>
      </trkpt>
      <trkpt lat="43.71724" lon="6.04062">
        <ele>495.5</ele>
      </trkpt>
      <trkpt lat="43.71721" lon="6.04066">
        <ele>495.3</ele>
      </trkpt>
      <trkpt lat="43.7172" lon="6.04066">
        <ele>495.3</ele>
      </trkpt>
      <trkpt lat="43.7172" lon="6.04063">
        <ele>495.4</ele>
      </trkpt>
      <trkpt lat="43.71714" lon="6.04079">
        <ele>494.4</ele>
      </trkpt>
      <trkpt lat="43.717" lon="6.04111">
        <ele>492.6</ele>
      </trkpt>
      <trkpt lat="43.71696" lon="6.0412">
        <ele>492</ele>
      </trkpt>
      <trkpt lat="43.71682" lon="6.04144">
        <ele>489.8</ele>
      </trkpt>
      <trkpt lat="43.71674" lon="6.0417">
        <ele>487.9</ele>
      </trkpt>
      <trkpt lat="43.71666" lon="6.04184">
        <ele>488.2</ele>
      </trkpt>
      <trkpt lat="43.71657" lon="6.04183">
        <ele>487.6</ele>
      </trkpt>
      <trkpt lat="43.71642" lon="6.04177">
        <ele>486.3</ele>
      </trkpt>
      <trkpt lat="43.71618" lon="6.04172">
        <ele>484.5</ele>
      </trkpt>
      <trkpt lat="43.71588" lon="6.04178">
        <ele>483.3</ele>
      </trkpt>
      <trkpt lat="43.71582" lon="6.0418">
        <ele>483.1</ele>
      </trkpt>
      <trkpt lat="43.71557" lon="6.04176">
        <ele>482.4</ele>
      </trkpt>
      <trkpt lat="43.71528" lon="6.04167">
        <ele>481.3</ele>
      </trkpt>
      <trkpt lat="43.71504" lon="6.04175">
        <ele>481.5</ele>
      </trkpt>
      <trkpt lat="43.71497" lon="6.04175">
        <ele>481.3</ele>
      </trkpt>
      <trkpt lat="43.71485" lon="6.04175">
        <ele>480.8</ele>
      </trkpt>
      <trkpt lat="43.71449" lon="6.04184">
        <ele>479.7</ele>
      </trkpt>
      <trkpt lat="43.71432" lon="6.04195">
        <ele>479.7</ele>
      </trkpt>
      <trkpt lat="43.7142" lon="6.04206">
        <ele>480</ele>
      </trkpt>
      <trkpt lat="43.71394" lon="6.04217">
        <ele>479.5</ele>
      </trkpt>
      <trkpt lat="43.71374" lon="6.04224">
        <ele>478.6</ele>
      </trkpt>
      <trkpt lat="43.71362" lon="6.04232">
        <ele>478.1</ele>
      </trkpt>
      <trkpt lat="43.71341" lon="6.04256">
        <ele>477.1</ele>
      </trkpt>
      <trkpt lat="43.7133" lon="6.04264">
        <ele>476.8</ele>
      </trkpt>
      <trkpt lat="43.71302" lon="6.04293">
        <ele>474.9</ele>
      </trkpt>
      <trkpt lat="43.71288" lon="6.04305">
        <ele>473.2</ele>
      </trkpt>
      <trkpt lat="43.7127" lon="6.04313">
        <ele>470.4</ele>
      </trkpt>
      <trkpt lat="43.71251" lon="6.04321">
        <ele>467.1</ele>
      </trkpt>
      <trkpt lat="43.71237" lon="6.04329">
        <ele>466.6</ele>
      </trkpt>
      <trkpt lat="43.71222" lon="6.04338">
        <ele>466</ele>
      </trkpt>
      <trkpt lat="43.71216" lon="6.04342">
        <ele>465.7</ele>
      </trkpt>
      <trkpt lat="43.71205" lon="6.04349">
        <ele>465.2</ele>
      </trkpt>
      <trkpt lat="43.71182" lon="6.04358">
        <ele>463.7</ele>
      </trkpt>
      <trkpt lat="43.71152" lon="6.04371">
        <ele>461.7</ele>
      </trkpt>
      <trkpt lat="43.71134" lon="6.04382">
        <ele>460.5</ele>
      </trkpt>
      <trkpt lat="43.71131" lon="6.04385">
        <ele>460.3</ele>
      </trkpt>
      <trkpt lat="43.71124" lon="6.04391">
        <ele>459.7</ele>
      </trkpt>
      <trkpt lat="43.7112" lon="6.04394">
        <ele>459.5</ele>
      </trkpt>
      <trkpt lat="43.71116" lon="6.04396">
        <ele>459.2</ele>
      </trkpt>
      <trkpt lat="43.71113" lon="6.04399">
        <ele>458.9</ele>
      </trkpt>
      <trkpt lat="43.71105" lon="6.04402">
        <ele>458.5</ele>
      </trkpt>
      <trkpt lat="43.71105" lon="6.044">
        <ele>458.6</ele>
      </trkpt>
      <trkpt lat="43.71104" lon="6.04391">
        <ele>459</ele>
      </trkpt>
      <trkpt lat="43.71096" lon="6.04395">
        <ele>458.5</ele>
      </trkpt>
      <trkpt lat="43.7109" lon="6.04405">
        <ele>457.9</ele>
      </trkpt>
      <trkpt lat="43.71087" lon="6.04406">
        <ele>457.7</ele>
      </trkpt>
      <trkpt lat="43.71081" lon="6.04408">
        <ele>457.1</ele>
      </trkpt>
      <trkpt lat="43.71075" lon="6.044">
        <ele>456.4</ele>
      </trkpt>
      <trkpt lat="43.71074" lon="6.04397">
        <ele>456.4</ele>
      </trkpt>
      <trkpt lat="43.71072" lon="6.04384">
        <ele>456.7</ele>
      </trkpt>
      <trkpt lat="43.71075" lon="6.04375">
        <ele>457.5</ele>
      </trkpt>
      <trkpt lat="43.71076" lon="6.04372">
        <ele>457.8</ele>
      </trkpt>
      <trkpt lat="43.71076" lon="6.04367">
        <ele>458</ele>
      </trkpt>
      <trkpt lat="43.71077" lon="6.04362">
        <ele>458.4</ele>
      </trkpt>
      <trkpt lat="43.71072" lon="6.04358">
        <ele>457.8</ele>
      </trkpt>
      <trkpt lat="43.71066" lon="6.04356">
        <ele>456.7</ele>
      </trkpt>
      <trkpt lat="43.7106" lon="6.04349">
        <ele>456</ele>
      </trkpt>
      <trkpt lat="43.71033" lon="6.04328">
        <ele>451.8</ele>
      </trkpt>
      <trkpt lat="43.71027" lon="6.04323">
        <ele>451.4</ele>
      </trkpt>
      <trkpt lat="43.71018" lon="6.04312">
        <ele>450.9</ele>
      </trkpt>
      <trkpt lat="43.71008" lon="6.04302">
        <ele>450.3</ele>
      </trkpt>
      <trkpt lat="43.70992" lon="6.0427">
        <ele>449.9</ele>
      </trkpt>
      <trkpt lat="43.70978" lon="6.04252">
        <ele>447.3</ele>
      </trkpt>
      <trkpt lat="43.70957" lon="6.04264">
        <ele>438.4</ele>
      </trkpt>
      <trkpt lat="43.70926" lon="6.04266">
        <ele>427.5</ele>
      </trkpt>
      <trkpt lat="43.70892" lon="6.04281">
        <ele>418.5</ele>
      </trkpt>
      <trkpt lat="43.70841" lon="6.0429">
        <ele>409</ele>
      </trkpt>
      <trkpt lat="43.7081" lon="6.0433">
        <ele>404.3</ele>
      </trkpt>
      <trkpt lat="43.70784" lon="6.04349">
        <ele>402.7</ele>
      </trkpt>
      <trkpt lat="43.7075" lon="6.04381">
        <ele>400.9</ele>
      </trkpt>
      <trkpt lat="43.70716" lon="6.04396">
        <ele>398.9</ele>
      </trkpt>
      <trkpt lat="43.70687" lon="6.0442">
        <ele>396.8</ele>
      </trkpt>
      <trkpt lat="43.70658" lon="6.04431">
        <ele>394.8</ele>
      </trkpt>
      <trkpt lat="43.70618" lon="6.04442">
        <ele>393.4</ele>
      </trkpt>
      <trkpt lat="43.70603" lon="6.04448">
        <ele>393</ele>
      </trkpt>
      <trkpt lat="43.70587" lon="6.04449">
        <ele>392.2</ele>
      </trkpt>
      <trkpt lat="43.70567" lon="6.04457">
        <ele>390.9</ele>
      </trkpt>
      <trkpt lat="43.70535" lon="6.04473">
        <ele>388.5</ele>
      </trkpt>
      <trkpt lat="43.70513" lon="6.04493">
        <ele>386.5</ele>
      </trkpt>
      <trkpt lat="43.70477" lon="6.04516">
        <ele>385.4</ele>
      </trkpt>
      <trkpt lat="43.70454" lon="6.04534">
        <ele>385.4</ele>
      </trkpt>
      <trkpt lat="43.7042" lon="6.04539">
        <ele>383.6</ele>
      </trkpt>
      <trkpt lat="43.70374" lon="6.0455">
        <ele>382.2</ele>
      </trkpt>
      <trkpt lat="43.70327" lon="6.04564">
        <ele>380.4</ele>
      </trkpt>
      <trkpt lat="43.70307" lon="6.04575">
        <ele>379.3</ele>
      </trkpt>
      <trkpt lat="43.70265" lon="6.04614">
        <ele>377.7</ele>
      </trkpt>
      <trkpt lat="43.7027" lon="6.04572">
        <ele>377.1</ele>
      </trkpt>
      <trkpt lat="43.70281" lon="6.04525">
        <ele>377.1</ele>
      </trkpt>
      <trkpt lat="43.70288" lon="6.04495">
        <ele>377.3</ele>
      </trkpt>
      <trkpt lat="43.70285" lon="6.04442">
        <ele>377.5</ele>
      </trkpt>
      <trkpt lat="43.70288" lon="6.04408">
        <ele>377.7</ele>
      </trkpt>
      <trkpt lat="43.70289" lon="6.04392">
        <ele>377.6</ele>
      </trkpt>
      <trkpt lat="43.70279" lon="6.0435">
        <ele>376.4</ele>
      </trkpt>
      <trkpt lat="43.70265" lon="6.04314">
        <ele>375.1</ele>
      </trkpt>
      <trkpt lat="43.70252" lon="6.04274">
        <ele>374.8</ele>
      </trkpt>
      <trkpt lat="43.70254" lon="6.04254">
        <ele>375.1</ele>
      </trkpt>
      <trkpt lat="43.70255" lon="6.04226">
        <ele>375.1</ele>
      </trkpt>
      <trkpt lat="43.70238" lon="6.04207">
        <ele>374.6</ele>
      </trkpt>
      <trkpt lat="43.70242" lon="6.04179">
        <ele>374.8</ele>
      </trkpt>
      <trkpt lat="43.70239" lon="6.04149">
        <ele>375</ele>
      </trkpt>
      <trkpt lat="43.70222" lon="6.04131">
        <ele>375.1</ele>
      </trkpt>
      <trkpt lat="43.70202" lon="6.0411">
        <ele>375.3</ele>
      </trkpt>
      <trkpt lat="43.702" lon="6.04089">
        <ele>375.9</ele>
      </trkpt>
      <trkpt lat="43.70198" lon="6.04059">
        <ele>377.9</ele>
      </trkpt>
      <trkpt lat="43.70221" lon="6.04034">
        <ele>379.2</ele>
      </trkpt>
      <trkpt lat="43.70248" lon="6.04004">
        <ele>379.9</ele>
      </trkpt>
      <trkpt lat="43.70266" lon="6.03988">
        <ele>381.3</ele>
      </trkpt>
      <trkpt lat="43.70263" lon="6.03983">
        <ele>381.6</ele>
      </trkpt>
      <trkpt lat="43.70256" lon="6.03972">
        <ele>382.2</ele>
      </trkpt>
      <trkpt lat="43.70245" lon="6.03961">
        <ele>383</ele>
      </trkpt>
      <trkpt lat="43.7023" lon="6.03938">
        <ele>385.3</ele>
      </trkpt>
      <trkpt lat="43.70213" lon="6.0391">
        <ele>387.7</ele>
      </trkpt>
      <trkpt lat="43.70198" lon="6.03901">
        <ele>388.6</ele>
      </trkpt>
      <trkpt lat="43.70185" lon="6.03904">
        <ele>388.8</ele>
      </trkpt>
      <trkpt lat="43.70166" lon="6.03916">
        <ele>389</ele>
      </trkpt>
      <trkpt lat="43.70151" lon="6.03921">
        <ele>388.2</ele>
      </trkpt>
      <trkpt lat="43.70151" lon="6.03921">
        <ele>388.2</ele>
      </trkpt>
      <trkpt lat="43.70151" lon="6.03918">
        <ele>388.4</ele>
      </trkpt>
      <trkpt lat="43.70151" lon="6.03918">
        <ele>388.4</ele>
      </trkpt>
      <trkpt lat="43.7016" lon="6.03907">
        <ele>389.1</ele>
      </trkpt>
      <trkpt lat="43.70174" lon="6.03881">
        <ele>390.1</ele>
      </trkpt>
      <trkpt lat="43.70185" lon="6.03861">
        <ele>390.5</ele>
      </trkpt>
      <trkpt lat="43.70187" lon="6.03843">
        <ele>391.2</ele>
      </trkpt>
      <trkpt lat="43.70186" lon="6.03834">
        <ele>391.5</ele>
      </trkpt>
      <trkpt lat="43.70176" lon="6.03816">
        <ele>392.5</ele>
      </trkpt>
      <trkpt lat="43.70158" lon="6.03785">
        <ele>393.3</ele>
      </trkpt>
      <trkpt lat="43.70148" lon="6.03759">
        <ele>393.8</ele>
      </trkpt>
      <trkpt lat="43.7014" lon="6.03723">
        <ele>394.9</ele>
      </trkpt>
      <trkpt lat="43.70137" lon="6.03697">
        <ele>395.9</ele>
      </trkpt>
      <trkpt lat="43.70143" lon="6.03678">
        <ele>397</ele>
      </trkpt>
      <trkpt lat="43.70153" lon="6.03645">
        <ele>399.3</ele>
      </trkpt>
      <trkpt lat="43.70165" lon="6.03606">
        <ele>401.9</ele>
      </trkpt>
      <trkpt lat="43.70174" lon="6.03578">
        <ele>403.9</ele>
      </trkpt>
      <trkpt lat="43.70176" lon="6.03556">
        <ele>405.3</ele>
      </trkpt>
      <trkpt lat="43.70168" lon="6.03539">
        <ele>405.7</ele>
      </trkpt>
      <trkpt lat="43.70168" lon="6.03538">
        <ele>405.8</ele>
      </trkpt>
      <trkpt lat="43.70161" lon="6.03532">
        <ele>405.9</ele>
      </trkpt>
      <trkpt lat="43.70154" lon="6.03523">
        <ele>406.1</ele>
      </trkpt>
      <trkpt lat="43.70147" lon="6.03514">
        <ele>406.3</ele>
      </trkpt>
      <trkpt lat="43.70135" lon="6.0351">
        <ele>405.9</ele>
      </trkpt>
      <trkpt lat="43.70119" lon="6.035">
        <ele>405.8</ele>
      </trkpt>
      <trkpt lat="43.701" lon="6.03485">
        <ele>405.8</ele>
      </trkpt>
      <trkpt lat="43.70082" lon="6.03473">
        <ele>405.6</ele>
      </trkpt>
      <trkpt lat="43.70067" lon="6.03462">
        <ele>405.9</ele>
      </trkpt>
      <trkpt lat="43.70053" lon="6.03451">
        <ele>406.3</ele>
      </trkpt>
      <trkpt lat="43.70036" lon="6.03437">
        <ele>407</ele>
      </trkpt>
      <trkpt lat="43.70022" lon="6.03426">
        <ele>407.6</ele>
      </trkpt>
      <trkpt lat="43.70016" lon="6.0342">
        <ele>408</ele>
      </trkpt>
      <trkpt lat="43.70006" lon="6.03408">
        <ele>409.7</ele>
      </trkpt>
      <trkpt lat="43.70006" lon="6.03398">
        <ele>411.5</ele>
      </trkpt>
      <trkpt lat="43.70009" lon="6.03391">
        <ele>412.6</ele>
      </trkpt>
      <trkpt lat="43.70017" lon="6.03384">
        <ele>413.8</ele>
      </trkpt>
      <trkpt lat="43.70029" lon="6.03375">
        <ele>415</ele>
      </trkpt>
      <trkpt lat="43.7004" lon="6.03363">
        <ele>416.3</ele>
      </trkpt>
      <trkpt lat="43.7005" lon="6.03354">
        <ele>417.3</ele>
      </trkpt>
      <trkpt lat="43.70063" lon="6.03342">
        <ele>418.1</ele>
      </trkpt>
      <trkpt lat="43.70074" lon="6.03335">
        <ele>418.4</ele>
      </trkpt>
      <trkpt lat="43.70088" lon="6.03322">
        <ele>420.4</ele>
      </trkpt>
      <trkpt lat="43.70099" lon="6.0331">
        <ele>423.3</ele>
      </trkpt>
      <trkpt lat="43.70112" lon="6.03298">
        <ele>426.4</ele>
      </trkpt>
      <trkpt lat="43.70122" lon="6.03286">
        <ele>429</ele>
      </trkpt>
      <trkpt lat="43.70139" lon="6.03267">
        <ele>433.1</ele>
      </trkpt>
      <trkpt lat="43.70154" lon="6.03244">
        <ele>437.3</ele>
      </trkpt>
      <trkpt lat="43.70163" lon="6.03228">
        <ele>439.9</ele>
      </trkpt>
      <trkpt lat="43.70168" lon="6.03211">
        <ele>442.4</ele>
      </trkpt>
      <trkpt lat="43.70176" lon="6.03196">
        <ele>445.4</ele>
      </trkpt>
      <trkpt lat="43.70189" lon="6.03182">
        <ele>448.8</ele>
      </trkpt>
      <trkpt lat="43.70198" lon="6.03174">
        <ele>451</ele>
      </trkpt>
      <trkpt lat="43.70208" lon="6.03166">
        <ele>453.4</ele>
      </trkpt>
      <trkpt lat="43.70216" lon="6.0316">
        <ele>455.6</ele>
      </trkpt>
      <trkpt lat="43.70224" lon="6.03159">
        <ele>457.1</ele>
      </trkpt>
      <trkpt lat="43.70228" lon="6.03156">
        <ele>458.2</ele>
      </trkpt>
      <trkpt lat="43.70235" lon="6.03153">
        <ele>459.5</ele>
      </trkpt>
      <trkpt lat="43.70236" lon="6.03154">
        <ele>459.2</ele>
      </trkpt>
      <trkpt lat="43.70243" lon="6.0315">
        <ele>460.8</ele>
      </trkpt>
      <trkpt lat="43.70245" lon="6.03149">
        <ele>461.3</ele>
      </trkpt>
      <trkpt lat="43.70252" lon="6.0315">
        <ele>461.7</ele>
      </trkpt>
      <trkpt lat="43.70257" lon="6.03151">
        <ele>462</ele>
      </trkpt>
      <trkpt lat="43.70264" lon="6.03151">
        <ele>462.7</ele>
      </trkpt>
      <trkpt lat="43.70266" lon="6.03151">
        <ele>463.1</ele>
      </trkpt>
      <trkpt lat="43.70267" lon="6.03144">
        <ele>464.6</ele>
      </trkpt>
      <trkpt lat="43.70265" lon="6.03137">
        <ele>465.7</ele>
      </trkpt>
      <trkpt lat="43.70265" lon="6.03133">
        <ele>466.5</ele>
      </trkpt>
      <trkpt lat="43.70265" lon="6.03131">
        <ele>467.1</ele>
      </trkpt>
      <trkpt lat="43.70266" lon="6.03123">
        <ele>468.8</ele>
      </trkpt>
      <trkpt lat="43.70265" lon="6.03118">
        <ele>469.8</ele>
      </trkpt>
      <trkpt lat="43.70266" lon="6.03114">
        <ele>470.6</ele>
      </trkpt>
      <trkpt lat="43.70267" lon="6.03107">
        <ele>472</ele>
      </trkpt>
      <trkpt lat="43.70268" lon="6.03103">
        <ele>472.9</ele>
      </trkpt>
      <trkpt lat="43.70267" lon="6.03099">
        <ele>473.7</ele>
      </trkpt>
      <trkpt lat="43.70268" lon="6.03095">
        <ele>474.5</ele>
      </trkpt>
      <trkpt lat="43.70267" lon="6.0309">
        <ele>475.5</ele>
      </trkpt>
      <trkpt lat="43.70267" lon="6.03087">
        <ele>476.3</ele>
      </trkpt>
      <trkpt lat="43.70265" lon="6.0308">
        <ele>478.2</ele>
      </trkpt>
      <trkpt lat="43.70263" lon="6.03074">
        <ele>480.4</ele>
      </trkpt>
      <trkpt lat="43.7026" lon="6.03069">
        <ele>481.6</ele>
      </trkpt>
      <trkpt lat="43.70257" lon="6.03064">
        <ele>483.4</ele>
      </trkpt>
      <trkpt lat="43.70254" lon="6.03058">
        <ele>485.7</ele>
      </trkpt>
      <trkpt lat="43.70251" lon="6.03053">
        <ele>487.5</ele>
      </trkpt>
      <trkpt lat="43.70248" lon="6.03048">
        <ele>488.9</ele>
      </trkpt>
      <trkpt lat="43.70245" lon="6.03046">
        <ele>490</ele>
      </trkpt>
      <trkpt lat="43.70243" lon="6.03043">
        <ele>491.5</ele>
      </trkpt>
      <trkpt lat="43.7024" lon="6.03038">
        <ele>493</ele>
      </trkpt>
      <trkpt lat="43.70239" lon="6.03033">
        <ele>495.1</ele>
      </trkpt>
      <trkpt lat="43.70236" lon="6.03031">
        <ele>496.1</ele>
      </trkpt>
      <trkpt lat="43.70231" lon="6.0303">
        <ele>496.1</ele>
      </trkpt>
      <trkpt lat="43.70227" lon="6.0303">
        <ele>496.1</ele>
      </trkpt>
      <trkpt lat="43.70222" lon="6.03032">
        <ele>495.5</ele>
      </trkpt>
      <trkpt lat="43.70218" lon="6.03034">
        <ele>495</ele>
      </trkpt>
      <trkpt lat="43.7021" lon="6.03029">
        <ele>496.5</ele>
      </trkpt>
      <trkpt lat="43.70206" lon="6.03029">
        <ele>496.5</ele>
      </trkpt>
      <trkpt lat="43.70202" lon="6.03033">
        <ele>495</ele>
      </trkpt>
      <trkpt lat="43.70197" lon="6.03035">
        <ele>494</ele>
      </trkpt>
      <trkpt lat="43.70192" lon="6.03038">
        <ele>493</ele>
      </trkpt>
      <trkpt lat="43.70189" lon="6.03037">
        <ele>493.5</ele>
      </trkpt>
      <trkpt lat="43.70185" lon="6.03036">
        <ele>493.5</ele>
      </trkpt>
      <trkpt lat="43.70181" lon="6.03035">
        <ele>493.9</ele>
      </trkpt>
      <trkpt lat="43.70177" lon="6.03038">
        <ele>493</ele>
      </trkpt>
      <trkpt lat="43.7017" lon="6.03042">
        <ele>491.5</ele>
      </trkpt>
      <trkpt lat="43.70166" lon="6.03043">
        <ele>491.6</ele>
      </trkpt>
      <trkpt lat="43.7016" lon="6.03047">
        <ele>491</ele>
      </trkpt>
      <trkpt lat="43.70153" lon="6.03052">
        <ele>491</ele>
      </trkpt>
      <trkpt lat="43.70149" lon="6.03055">
        <ele>490.5</ele>
      </trkpt>
      <trkpt lat="43.70144" lon="6.03059">
        <ele>490.2</ele>
      </trkpt>
      <trkpt lat="43.70141" lon="6.03061">
        <ele>490.1</ele>
      </trkpt>
      <trkpt lat="43.70136" lon="6.03063">
        <ele>490.7</ele>
      </trkpt>
      <trkpt lat="43.70133" lon="6.03063">
        <ele>491.5</ele>
      </trkpt>
      <trkpt lat="43.7013" lon="6.0306">
        <ele>493.3</ele>
      </trkpt>
      <trkpt lat="43.70131" lon="6.03055">
        <ele>494.6</ele>
      </trkpt>
      <trkpt lat="43.70131" lon="6.03051">
        <ele>496.2</ele>
      </trkpt>
      <trkpt lat="43.7013" lon="6.03046">
        <ele>497.7</ele>
      </trkpt>
      <trkpt lat="43.70129" lon="6.03039">
        <ele>500.4</ele>
      </trkpt>
      <trkpt lat="43.70129" lon="6.03034">
        <ele>502.2</ele>
      </trkpt>
      <trkpt lat="43.70129" lon="6.03031">
        <ele>503.1</ele>
      </trkpt>
      <trkpt lat="43.70128" lon="6.03027">
        <ele>504.5</ele>
      </trkpt>
      <trkpt lat="43.70128" lon="6.03024">
        <ele>505.4</ele>
      </trkpt>
      <trkpt lat="43.70125" lon="6.03015">
        <ele>508.9</ele>
      </trkpt>
      <trkpt lat="43.70122" lon="6.0301">
        <ele>511</ele>
      </trkpt>
      <trkpt lat="43.70114" lon="6.02999">
        <ele>515.4</ele>
      </trkpt>
      <trkpt lat="43.70112" lon="6.02997">
        <ele>516.1</ele>
      </trkpt>
      <trkpt lat="43.701" lon="6.02983">
        <ele>519.3</ele>
      </trkpt>
      <trkpt lat="43.70098" lon="6.02977">
        <ele>520.3</ele>
      </trkpt>
      <trkpt lat="43.70103" lon="6.02969">
        <ele>520.7</ele>
      </trkpt>
      <trkpt lat="43.7012" lon="6.02961">
        <ele>521</ele>
      </trkpt>
      <trkpt lat="43.7014" lon="6.02952">
        <ele>521.7</ele>
      </trkpt>
      <trkpt lat="43.70162" lon="6.02948">
        <ele>522.1</ele>
      </trkpt>
      <trkpt lat="43.70166" lon="6.02948">
        <ele>522</ele>
      </trkpt>
      <trkpt lat="43.70187" lon="6.0294">
        <ele>524.7</ele>
      </trkpt>
      <trkpt lat="43.70204" lon="6.02923">
        <ele>529.2</ele>
      </trkpt>
      <trkpt lat="43.70224" lon="6.02913">
        <ele>531.3</ele>
      </trkpt>
      <trkpt lat="43.70261" lon="6.02897">
        <ele>532.3</ele>
      </trkpt>
      <trkpt lat="43.70266" lon="6.02896">
        <ele>532.3</ele>
      </trkpt>
      <trkpt lat="43.70283" lon="6.02887">
        <ele>532.5</ele>
      </trkpt>
      <trkpt lat="43.70306" lon="6.02876">
        <ele>533</ele>
      </trkpt>
      <trkpt lat="43.70329" lon="6.02869">
        <ele>533.1</ele>
      </trkpt>
      <trkpt lat="43.70358" lon="6.02869">
        <ele>534.3</ele>
      </trkpt>
      <trkpt lat="43.7039" lon="6.02872">
        <ele>535.7</ele>
      </trkpt>
      <trkpt lat="43.70409" lon="6.02865">
        <ele>536.9</ele>
      </trkpt>
      <trkpt lat="43.70417" lon="6.02858">
        <ele>537.5</ele>
      </trkpt>
      <trkpt lat="43.70434" lon="6.02845">
        <ele>538.4</ele>
      </trkpt>
      <trkpt lat="43.70448" lon="6.0283">
        <ele>539.1</ele>
      </trkpt>
      <trkpt lat="43.70475" lon="6.0279">
        <ele>540.1</ele>
      </trkpt>
      <trkpt lat="43.70479" lon="6.02787">
        <ele>540.2</ele>
      </trkpt>
      <trkpt lat="43.70495" lon="6.02782">
        <ele>540.8</ele>
      </trkpt>
      <trkpt lat="43.7052" lon="6.02765">
        <ele>541</ele>
      </trkpt>
      <trkpt lat="43.70524" lon="6.02762">
        <ele>541</ele>
      </trkpt>
      <trkpt lat="43.70543" lon="6.02757">
        <ele>541</ele>
      </trkpt>
      <trkpt lat="43.70553" lon="6.02756">
        <ele>541</ele>
      </trkpt>
      <trkpt lat="43.70582" lon="6.02753">
        <ele>541</ele>
      </trkpt>
      <trkpt lat="43.70587" lon="6.02753">
        <ele>541</ele>
      </trkpt>
      <trkpt lat="43.70596" lon="6.02754">
        <ele>541.1</ele>
      </trkpt>
      <trkpt lat="43.70615" lon="6.02759">
        <ele>541.4</ele>
      </trkpt>
      <trkpt lat="43.70619" lon="6.02763">
        <ele>541.4</ele>
      </trkpt>
      <trkpt lat="43.70616" lon="6.02755">
        <ele>541.4</ele>
      </trkpt>
      <trkpt lat="43.70623" lon="6.02748">
        <ele>541.5</ele>
      </trkpt>
      <trkpt lat="43.70643" lon="6.02732">
        <ele>541.8</ele>
      </trkpt>
      <trkpt lat="43.70654" lon="6.02724">
        <ele>541.9</ele>
      </trkpt>
      <trkpt lat="43.70673" lon="6.02704">
        <ele>542</ele>
      </trkpt>
      <trkpt lat="43.70688" lon="6.02694">
        <ele>542.1</ele>
      </trkpt>
      <trkpt lat="43.70705" lon="6.02684">
        <ele>542.1</ele>
      </trkpt>
      <trkpt lat="43.70723" lon="6.02674">
        <ele>542.1</ele>
      </trkpt>
      <trkpt lat="43.7075" lon="6.02667">
        <ele>542</ele>
      </trkpt>
      <trkpt lat="43.70774" lon="6.02669">
        <ele>542</ele>
      </trkpt>
      <trkpt lat="43.70789" lon="6.02667">
        <ele>542</ele>
      </trkpt>
      <trkpt lat="43.70809" lon="6.02661">
        <ele>542.1</ele>
      </trkpt>
      <trkpt lat="43.70824" lon="6.02654">
        <ele>542.3</ele>
      </trkpt>
      <trkpt lat="43.70826" lon="6.02653">
        <ele>542.3</ele>
      </trkpt>
      <trkpt lat="43.70838" lon="6.02649">
        <ele>542.5</ele>
      </trkpt>
      <trkpt lat="43.70862" lon="6.02634">
        <ele>543.5</ele>
      </trkpt>
      <trkpt lat="43.70883" lon="6.02625">
        <ele>544.2</ele>
      </trkpt>
      <trkpt lat="43.70904" lon="6.02614">
        <ele>545</ele>
      </trkpt>
      <trkpt lat="43.70924" lon="6.02604">
        <ele>545.4</ele>
      </trkpt>
      <trkpt lat="43.70936" lon="6.02597">
        <ele>545.4</ele>
      </trkpt>
      <trkpt lat="43.70977" lon="6.0257">
        <ele>545.1</ele>
      </trkpt>
      <trkpt lat="43.7102" lon="6.02542">
        <ele>544.6</ele>
      </trkpt>
      <trkpt lat="43.71057" lon="6.02514">
        <ele>544.2</ele>
      </trkpt>
      <trkpt lat="43.711" lon="6.02485">
        <ele>544.1</ele>
      </trkpt>
      <trkpt lat="43.71127" lon="6.02451">
        <ele>544.1</ele>
      </trkpt>
      <trkpt lat="43.7115" lon="6.02413">
        <ele>543.8</ele>
      </trkpt>
      <trkpt lat="43.71154" lon="6.02406">
        <ele>543.7</ele>
      </trkpt>
      <trkpt lat="43.71185" lon="6.02373">
        <ele>543.1</ele>
      </trkpt>
      <trkpt lat="43.71223" lon="6.02332">
        <ele>542.7</ele>
      </trkpt>
      <trkpt lat="43.71246" lon="6.0231">
        <ele>542.6</ele>
      </trkpt>
      <trkpt lat="43.71307" lon="6.02261">
        <ele>542</ele>
      </trkpt>
      <trkpt lat="43.71363" lon="6.0222">
        <ele>542.2</ele>
      </trkpt>
      <trkpt lat="43.71422" lon="6.02174">
        <ele>543.1</ele>
      </trkpt>
      <trkpt lat="43.71438" lon="6.02162">
        <ele>543.6</ele>
      </trkpt>
      <trkpt lat="43.71455" lon="6.02137">
        <ele>544.5</ele>
      </trkpt>
      <trkpt lat="43.71488" lon="6.02068">
        <ele>545.9</ele>
      </trkpt>
      <trkpt lat="43.71518" lon="6.0201">
        <ele>545.6</ele>
      </trkpt>
      <trkpt lat="43.71549" lon="6.01966">
        <ele>544.6</ele>
      </trkpt>
      <trkpt lat="43.71554" lon="6.0196">
        <ele>544.5</ele>
      </trkpt>
      <trkpt lat="43.7159" lon="6.01922">
        <ele>543.9</ele>
      </trkpt>
      <trkpt lat="43.71641" lon="6.01871">
        <ele>543</ele>
      </trkpt>
      <trkpt lat="43.71698" lon="6.01815">
        <ele>541.6</ele>
      </trkpt>
      <trkpt lat="43.71764" lon="6.0175">
        <ele>539</ele>
      </trkpt>
      <trkpt lat="43.71792" lon="6.0172">
        <ele>539.5</ele>
      </trkpt>
      <trkpt lat="43.71824" lon="6.01679">
        <ele>540</ele>
      </trkpt>
      <trkpt lat="43.71832" lon="6.01662">
        <ele>540.1</ele>
      </trkpt>
      <trkpt lat="43.71829" lon="6.0164">
        <ele>540.7</ele>
      </trkpt>
      <trkpt lat="43.71839" lon="6.0163">
        <ele>540.7</ele>
      </trkpt>
      <trkpt lat="43.71854" lon="6.01602">
        <ele>540.5</ele>
      </trkpt>
      <trkpt lat="43.71879" lon="6.01568">
        <ele>539.2</ele>
      </trkpt>
      <trkpt lat="43.71896" lon="6.01532">
        <ele>538.1</ele>
      </trkpt>
      <trkpt lat="43.71903" lon="6.01516">
        <ele>537.7</ele>
      </trkpt>
      <trkpt lat="43.71916" lon="6.01489">
        <ele>537.2</ele>
      </trkpt>
      <trkpt lat="43.71927" lon="6.01467">
        <ele>537.7</ele>
      </trkpt>
      <trkpt lat="43.71954" lon="6.0142">
        <ele>538.9</ele>
      </trkpt>
      <trkpt lat="43.71971" lon="6.01392">
        <ele>539.5</ele>
      </trkpt>
      <trkpt lat="43.71996" lon="6.01347">
        <ele>540</ele>
      </trkpt>
      <trkpt lat="43.72021" lon="6.013">
        <ele>540.5</ele>
      </trkpt>
      <trkpt lat="43.72045" lon="6.01267">
        <ele>541.2</ele>
      </trkpt>
      <trkpt lat="43.72105" lon="6.01196">
        <ele>542.7</ele>
      </trkpt>
      <trkpt lat="43.72129" lon="6.01166">
        <ele>543.6</ele>
      </trkpt>
      <trkpt lat="43.72165" lon="6.01125">
        <ele>543.4</ele>
      </trkpt>
      <trkpt lat="43.72215" lon="6.01062">
        <ele>541.8</ele>
      </trkpt>
      <trkpt lat="43.72237" lon="6.0102">
        <ele>543</ele>
      </trkpt>
      <trkpt lat="43.72256" lon="6.00984">
        <ele>543.6</ele>
      </trkpt>
      <trkpt lat="43.72293" lon="6.00923">
        <ele>542.6</ele>
      </trkpt>
      <trkpt lat="43.72331" lon="6.00871">
        <ele>543.5</ele>
      </trkpt>
      <trkpt lat="43.72362" lon="6.00821">
        <ele>544.2</ele>
      </trkpt>
      <trkpt lat="43.72393" lon="6.00764">
        <ele>544.5</ele>
      </trkpt>
      <trkpt lat="43.72425" lon="6.00705">
        <ele>543.2</ele>
      </trkpt>
      <trkpt lat="43.72462" lon="6.00652">
        <ele>540.8</ele>
      </trkpt>
      <trkpt lat="43.72495" lon="6.00591">
        <ele>540.1</ele>
      </trkpt>
      <trkpt lat="43.72531" lon="6.00542">
        <ele>540.2</ele>
      </trkpt>
      <trkpt lat="43.72558" lon="6.00472">
        <ele>540.2</ele>
      </trkpt>
      <trkpt lat="43.726" lon="6.00357">
        <ele>540</ele>
      </trkpt>
      <trkpt lat="43.72627" lon="6.00279">
        <ele>539.6</ele>
      </trkpt>
      <trkpt lat="43.72666" lon="6.00171">
        <ele>540.9</ele>
      </trkpt>
      <trkpt lat="43.7269" lon="6.00145">
        <ele>540.4</ele>
      </trkpt>
      <trkpt lat="43.7267" lon="6.00109">
        <ele>539.6</ele>
      </trkpt>
      <trkpt lat="43.72651" lon="6.00067">
        <ele>538.6</ele>
      </trkpt>
      <trkpt lat="43.72671" lon="6.00033">
        <ele>537.8</ele>
      </trkpt>
      <trkpt lat="43.72651" lon="6.00012">
        <ele>537.1</ele>
      </trkpt>
      <trkpt lat="43.72621" lon="5.99981">
        <ele>536.3</ele>
      </trkpt>
      <trkpt lat="43.72595" lon="5.99961">
        <ele>536.1</ele>
      </trkpt>
      <trkpt lat="43.72607" lon="5.99925">
        <ele>536</ele>
      </trkpt>
      <trkpt lat="43.72623" lon="5.9989">
        <ele>535</ele>
      </trkpt>
      <trkpt lat="43.7264" lon="5.99838">
        <ele>533.5</ele>
      </trkpt>
      <trkpt lat="43.72663" lon="5.99794">
        <ele>533</ele>
      </trkpt>
      <trkpt lat="43.72664" lon="5.99768">
        <ele>532.4</ele>
      </trkpt>
      <trkpt lat="43.72673" lon="5.99737">
        <ele>531.9</ele>
      </trkpt>
      <trkpt lat="43.72701" lon="5.99732">
        <ele>531.9</ele>
      </trkpt>
      <trkpt lat="43.72721" lon="5.9971">
        <ele>531.8</ele>
      </trkpt>
      <trkpt lat="43.72749" lon="5.99676">
        <ele>532</ele>
      </trkpt>
      <trkpt lat="43.7278" lon="5.99674">
        <ele>533.1</ele>
      </trkpt>
      <trkpt lat="43.72808" lon="5.99654">
        <ele>534.1</ele>
      </trkpt>
      <trkpt lat="43.72841" lon="5.99674">
        <ele>534.9</ele>
      </trkpt>
      <trkpt lat="43.72877" lon="5.99688">
        <ele>535.1</ele>
      </trkpt>
      <trkpt lat="43.72914" lon="5.99711">
        <ele>536</ele>
      </trkpt>
      <trkpt lat="43.72933" lon="5.99667">
        <ele>535</ele>
      </trkpt>
      <trkpt lat="43.72953" lon="5.99581">
        <ele>535.1</ele>
      </trkpt>
      <trkpt lat="43.72981" lon="5.99518">
        <ele>534.3</ele>
      </trkpt>
      <trkpt lat="43.73" lon="5.99462">
        <ele>534.4</ele>
      </trkpt>
      <trkpt lat="43.73011" lon="5.99411">
        <ele>534.2</ele>
      </trkpt>
      <trkpt lat="43.73036" lon="5.99344">
        <ele>533.8</ele>
      </trkpt>
      <trkpt lat="43.73046" lon="5.99304">
        <ele>534.4</ele>
      </trkpt>
      <trkpt lat="43.73061" lon="5.99259">
        <ele>535.3</ele>
      </trkpt>
      <trkpt lat="43.73078" lon="5.99225">
        <ele>534.7</ele>
      </trkpt>
      <trkpt lat="43.73082" lon="5.99214">
        <ele>534.2</ele>
      </trkpt>
      <trkpt lat="43.73087" lon="5.99192">
        <ele>533</ele>
      </trkpt>
      <trkpt lat="43.73099" lon="5.99171">
        <ele>531.6</ele>
      </trkpt>
      <trkpt lat="43.73115" lon="5.99121">
        <ele>528.1</ele>
      </trkpt>
      <trkpt lat="43.73117" lon="5.99093">
        <ele>526.1</ele>
      </trkpt>
      <trkpt lat="43.73118" lon="5.99084">
        <ele>525.5</ele>
      </trkpt>
      <trkpt lat="43.73128" lon="5.99047">
        <ele>523.9</ele>
      </trkpt>
      <trkpt lat="43.73163" lon="5.98983">
        <ele>520.4</ele>
      </trkpt>
      <trkpt lat="43.73174" lon="5.9897">
        <ele>519.3</ele>
      </trkpt>
      <trkpt lat="43.73176" lon="5.98968">
        <ele>518.8</ele>
      </trkpt>
      <trkpt lat="43.73179" lon="5.98968">
        <ele>518.3</ele>
      </trkpt>
      <trkpt lat="43.73178" lon="5.98969">
        <ele>518.4</ele>
      </trkpt>
      <trkpt lat="43.73187" lon="5.98974">
        <ele>516.3</ele>
      </trkpt>
      <trkpt lat="43.73195" lon="5.98973">
        <ele>514.7</ele>
      </trkpt>
      <trkpt lat="43.7322" lon="5.98971">
        <ele>509.4</ele>
      </trkpt>
      <trkpt lat="43.73253" lon="5.9896">
        <ele>502</ele>
      </trkpt>
      <trkpt lat="43.73271" lon="5.98947">
        <ele>496.6</ele>
      </trkpt>
      <trkpt lat="43.73302" lon="5.98903">
        <ele>489</ele>
      </trkpt>
      <trkpt lat="43.73321" lon="5.98876">
        <ele>486.1</ele>
      </trkpt>
      <trkpt lat="43.73347" lon="5.98838">
        <ele>483.2</ele>
      </trkpt>
      <trkpt lat="43.73379" lon="5.9881">
        <ele>477.6</ele>
      </trkpt>
      <trkpt lat="43.73416" lon="5.98786">
        <ele>471.9</ele>
      </trkpt>
      <trkpt lat="43.73425" lon="5.98779">
        <ele>470.6</ele>
      </trkpt>
      <trkpt lat="43.73453" lon="5.98766">
        <ele>465.7</ele>
      </trkpt>
      <trkpt lat="43.73474" lon="5.98761">
        <ele>461.4</ele>
      </trkpt>
      <trkpt lat="43.73519" lon="5.98736">
        <ele>453.4</ele>
      </trkpt>
      <trkpt lat="43.73555" lon="5.98715">
        <ele>450.1</ele>
      </trkpt>
      <trkpt lat="43.7356" lon="5.98708">
        <ele>450.1</ele>
      </trkpt>
      <trkpt lat="43.73588" lon="5.98688">
        <ele>450.1</ele>
      </trkpt>
      <trkpt lat="43.73611" lon="5.98674">
        <ele>451.4</ele>
      </trkpt>
      <trkpt lat="43.73646" lon="5.98628">
        <ele>454.1</ele>
      </trkpt>
      <trkpt lat="43.73655" lon="5.9861">
        <ele>455.8</ele>
      </trkpt>
      <trkpt lat="43.73668" lon="5.98595">
        <ele>457.8</ele>
      </trkpt>
      <trkpt lat="43.73677" lon="5.98604">
        <ele>456.8</ele>
      </trkpt>
      <trkpt lat="43.73695" lon="5.98641">
        <ele>451.8</ele>
      </trkpt>
      <trkpt lat="43.73715" lon="5.98659">
        <ele>448</ele>
      </trkpt>
      <trkpt lat="43.73725" lon="5.98663">
        <ele>446.7</ele>
      </trkpt>
      <trkpt lat="43.73769" lon="5.98691">
        <ele>438.9</ele>
      </trkpt>
      <trkpt lat="43.73823" lon="5.98716">
        <ele>431.5</ele>
      </trkpt>
      <trkpt lat="43.73873" lon="5.98732">
        <ele>425.1</ele>
      </trkpt>
      <trkpt lat="43.73889" lon="5.98737">
        <ele>423.3</ele>
      </trkpt>
      <trkpt lat="43.73905" lon="5.98752">
        <ele>420.8</ele>
      </trkpt>
      <trkpt lat="43.73909" lon="5.98761">
        <ele>420.6</ele>
      </trkpt>
      <trkpt lat="43.73932" lon="5.98795">
        <ele>420.7</ele>
      </trkpt>
      <trkpt lat="43.73944" lon="5.98808">
        <ele>421.3</ele>
      </trkpt>
      <trkpt lat="43.73963" lon="5.98822">
        <ele>422.6</ele>
      </trkpt>
      <trkpt lat="43.73976" lon="5.98841">
        <ele>424.7</ele>
      </trkpt>
      <trkpt lat="43.73986" lon="5.98857">
        <ele>427</ele>
      </trkpt>
      <trkpt lat="43.73996" lon="5.9885">
        <ele>426.7</ele>
      </trkpt>
      <trkpt lat="43.74007" lon="5.98835">
        <ele>423.7</ele>
      </trkpt>
      <trkpt lat="43.74045" lon="5.98805">
        <ele>414.5</ele>
      </trkpt>
      <trkpt lat="43.74082" lon="5.98775">
        <ele>408.1</ele>
      </trkpt>
      <trkpt lat="43.74097" lon="5.98763">
        <ele>407.2</ele>
      </trkpt>
      <trkpt lat="43.74104" lon="5.98756">
        <ele>406.8</ele>
      </trkpt>
      <trkpt lat="43.74108" lon="5.98738">
        <ele>406.5</ele>
      </trkpt>
      <trkpt lat="43.74109" lon="5.98721">
        <ele>406.5</ele>
      </trkpt>
      <trkpt lat="43.74113" lon="5.9869">
        <ele>406.2</ele>
      </trkpt>
      <trkpt lat="43.74126" lon="5.98606">
        <ele>404.4</ele>
      </trkpt>
      <trkpt lat="43.74129" lon="5.9858">
        <ele>403.8</ele>
      </trkpt>
      <trkpt lat="43.74125" lon="5.98469">
        <ele>400.8</ele>
      </trkpt>
      <trkpt lat="43.74125" lon="5.9843">
        <ele>400.6</ele>
      </trkpt>
      <trkpt lat="43.74116" lon="5.98387">
        <ele>400.7</ele>
      </trkpt>
      <trkpt lat="43.7409" lon="5.98317">
        <ele>398.9</ele>
      </trkpt>
      <trkpt lat="43.74078" lon="5.98287">
        <ele>398.4</ele>
      </trkpt>
      <trkpt lat="43.74073" lon="5.98252">
        <ele>398.5</ele>
      </trkpt>
      <trkpt lat="43.74073" lon="5.98243">
        <ele>398.3</ele>
      </trkpt>
      <trkpt lat="43.74075" lon="5.98181">
        <ele>397.2</ele>
      </trkpt>
      <trkpt lat="43.74068" lon="5.98126">
        <ele>395.2</ele>
      </trkpt>
      <trkpt lat="43.74061" lon="5.98103">
        <ele>394.1</ele>
      </trkpt>
      <trkpt lat="43.74053" lon="5.9808">
        <ele>393.4</ele>
      </trkpt>
      <trkpt lat="43.7405" lon="5.98068">
        <ele>393.4</ele>
      </trkpt>
      <trkpt lat="43.74045" lon="5.9803">
        <ele>393.2</ele>
      </trkpt>
      <trkpt lat="43.74048" lon="5.98018">
        <ele>393.2</ele>
      </trkpt>
      <trkpt lat="43.74048" lon="5.97968">
        <ele>392.7</ele>
      </trkpt>
      <trkpt lat="43.7404" lon="5.97955">
        <ele>392.4</ele>
      </trkpt>
      <trkpt lat="43.73999" lon="5.97907">
        <ele>391.6</ele>
      </trkpt>
      <trkpt lat="43.73982" lon="5.97883">
        <ele>392.2</ele>
      </trkpt>
      <trkpt lat="43.73969" lon="5.97847">
        <ele>391.7</ele>
      </trkpt>
      <trkpt lat="43.7395" lon="5.97814">
        <ele>391.1</ele>
      </trkpt>
      <trkpt lat="43.73946" lon="5.97809">
        <ele>390.9</ele>
      </trkpt>
      <trkpt lat="43.73924" lon="5.978">
        <ele>391.5</ele>
      </trkpt>
      <trkpt lat="43.7392" lon="5.97801">
        <ele>391.9</ele>
      </trkpt>
      <trkpt lat="43.73908" lon="5.97805">
        <ele>393.7</ele>
      </trkpt>
      <trkpt lat="43.73864" lon="5.97821">
        <ele>402.6</ele>
      </trkpt>
      <trkpt lat="43.73854" lon="5.97825">
        <ele>405</ele>
      </trkpt>
      <trkpt lat="43.73842" lon="5.97816">
        <ele>404.9</ele>
      </trkpt>
      <trkpt lat="43.73844" lon="5.97799">
        <ele>401.3</ele>
      </trkpt>
      <trkpt lat="43.73865" lon="5.97739">
        <ele>389.3</ele>
      </trkpt>
      <trkpt lat="43.73879" lon="5.97689">
        <ele>385.7</ele>
      </trkpt>
      <trkpt lat="43.73883" lon="5.97676">
        <ele>384.5</ele>
      </trkpt>
      <trkpt lat="43.7389" lon="5.97652">
        <ele>383.2</ele>
      </trkpt>
      <trkpt lat="43.73891" lon="5.9765">
        <ele>383</ele>
      </trkpt>
      <trkpt lat="43.73888" lon="5.97649">
        <ele>383.3</ele>
      </trkpt>
      <trkpt lat="43.73893" lon="5.97631">
        <ele>382.7</ele>
      </trkpt>
      <trkpt lat="43.73896" lon="5.97622">
        <ele>382.2</ele>
      </trkpt>
      <trkpt lat="43.73909" lon="5.97604">
        <ele>380.3</ele>
      </trkpt>
      <trkpt lat="43.7393" lon="5.97594">
        <ele>382.4</ele>
      </trkpt>
      <trkpt lat="43.73947" lon="5.97586">
        <ele>386.4</ele>
      </trkpt>
      <trkpt lat="43.73957" lon="5.97577">
        <ele>389.6</ele>
      </trkpt>
      <trkpt lat="43.73972" lon="5.97551">
        <ele>395.6</ele>
      </trkpt>
      <trkpt lat="43.73976" lon="5.97535">
        <ele>398.1</ele>
      </trkpt>
      <trkpt lat="43.73989" lon="5.97485">
        <ele>404.6</ele>
      </trkpt>
      <trkpt lat="43.73989" lon="5.97443">
        <ele>404.1</ele>
      </trkpt>
      <trkpt lat="43.73975" lon="5.97427">
        <ele>401.4</ele>
      </trkpt>
      <trkpt lat="43.73956" lon="5.97428">
        <ele>397.6</ele>
      </trkpt>
      <trkpt lat="43.7395" lon="5.97433">
        <ele>396.4</ele>
      </trkpt>
      <trkpt lat="43.73941" lon="5.97442">
        <ele>393.9</ele>
      </trkpt>
      <trkpt lat="43.73923" lon="5.97445">
        <ele>389.5</ele>
      </trkpt>
      <trkpt lat="43.73905" lon="5.97431">
        <ele>388.9</ele>
      </trkpt>
      <trkpt lat="43.73894" lon="5.97419">
        <ele>389.3</ele>
      </trkpt>
      <trkpt lat="43.73878" lon="5.97404">
        <ele>389.4</ele>
      </trkpt>
      <trkpt lat="43.73869" lon="5.97379">
        <ele>390.5</ele>
      </trkpt>
      <trkpt lat="43.73874" lon="5.97361">
        <ele>392.6</ele>
      </trkpt>
      <trkpt lat="43.73886" lon="5.97345">
        <ele>395.9</ele>
      </trkpt>
      <trkpt lat="43.73899" lon="5.97316">
        <ele>401.2</ele>
      </trkpt>
      <trkpt lat="43.73899" lon="5.97309">
        <ele>401.9</ele>
      </trkpt>
      <trkpt lat="43.73894" lon="5.97269">
        <ele>405.2</ele>
      </trkpt>
      <trkpt lat="43.73892" lon="5.97256">
        <ele>406.2</ele>
      </trkpt>
      <trkpt lat="43.73887" lon="5.97227">
        <ele>406.1</ele>
      </trkpt>
      <trkpt lat="43.73878" lon="5.97205">
        <ele>404.7</ele>
      </trkpt>
      <trkpt lat="43.73869" lon="5.9719">
        <ele>402.6</ele>
      </trkpt>
      <trkpt lat="43.73837" lon="5.97162">
        <ele>394.6</ele>
      </trkpt>
      <trkpt lat="43.73813" lon="5.97143">
        <ele>392.8</ele>
      </trkpt>
      <trkpt lat="43.73804" lon="5.97137">
        <ele>392.2</ele>
      </trkpt>
      <trkpt lat="43.73796" lon="5.97133">
        <ele>391.4</ele>
      </trkpt>
      <trkpt lat="43.73796" lon="5.97133">
        <ele>391.4</ele>
      </trkpt>
      <trkpt lat="43.73791" lon="5.97118">
        <ele>392.6</ele>
      </trkpt>
      <trkpt lat="43.73791" lon="5.97118">
        <ele>392.6</ele>
      </trkpt>
      <trkpt lat="43.73799" lon="5.97118">
        <ele>393.8</ele>
      </trkpt>
      <trkpt lat="43.73813" lon="5.97135">
        <ele>393.9</ele>
      </trkpt>
      <trkpt lat="43.73836" lon="5.97147">
        <ele>396.3</ele>
      </trkpt>
      <trkpt lat="43.73862" lon="5.97145">
        <ele>404</ele>
      </trkpt>
      <trkpt lat="43.73891" lon="5.97151">
        <ele>411.5</ele>
      </trkpt>
      <trkpt lat="43.73911" lon="5.97165">
        <ele>416.6</ele>
      </trkpt>
      <trkpt lat="43.73924" lon="5.97178">
        <ele>419.2</ele>
      </trkpt>
      <trkpt lat="43.73925" lon="5.9718">
        <ele>419.3</ele>
      </trkpt>
      <trkpt lat="43.73926" lon="5.97184">
        <ele>419.4</ele>
      </trkpt>
      <trkpt lat="43.73925" lon="5.97193">
        <ele>418.5</ele>
      </trkpt>
      <trkpt lat="43.73924" lon="5.97203">
        <ele>417.9</ele>
      </trkpt>
      <trkpt lat="43.73923" lon="5.97207">
        <ele>417.6</ele>
      </trkpt>
      <trkpt lat="43.73924" lon="5.97235">
        <ele>416.3</ele>
      </trkpt>
      <trkpt lat="43.73924" lon="5.97239">
        <ele>415.9</ele>
      </trkpt>
      <trkpt lat="43.7392" lon="5.97277">
        <ele>410.6</ele>
      </trkpt>
      <trkpt lat="43.73922" lon="5.97291">
        <ele>409.1</ele>
      </trkpt>
      <trkpt lat="43.73927" lon="5.97309">
        <ele>407</ele>
      </trkpt>
      <trkpt lat="43.73937" lon="5.97329">
        <ele>405.2</ele>
      </trkpt>
      <trkpt lat="43.73947" lon="5.9735">
        <ele>404</ele>
      </trkpt>
      <trkpt lat="43.73952" lon="5.97357">
        <ele>403.8</ele>
      </trkpt>
      <trkpt lat="43.73961" lon="5.97363">
        <ele>404.5</ele>
      </trkpt>
      <trkpt lat="43.73968" lon="5.97369">
        <ele>404.9</ele>
      </trkpt>
      <trkpt lat="43.73991" lon="5.97374">
        <ele>407.8</ele>
      </trkpt>
      <trkpt lat="43.74014" lon="5.97377">
        <ele>410.9</ele>
      </trkpt>
      <trkpt lat="43.74028" lon="5.9738">
        <ele>412.8</ele>
      </trkpt>
      <trkpt lat="43.74044" lon="5.97384">
        <ele>415</ele>
      </trkpt>
      <trkpt lat="43.74057" lon="5.97385">
        <ele>417</ele>
      </trkpt>
      <trkpt lat="43.74063" lon="5.97384">
        <ele>417.9</ele>
      </trkpt>
      <trkpt lat="43.74064" lon="5.97384">
        <ele>418</ele>
      </trkpt>
      <trkpt lat="43.74066" lon="5.97385">
        <ele>418.3</ele>
      </trkpt>
      <trkpt lat="43.74064" lon="5.97389">
        <ele>418</ele>
      </trkpt>
      <trkpt lat="43.74078" lon="5.97389">
        <ele>420.1</ele>
      </trkpt>
      <trkpt lat="43.74091" lon="5.97389">
        <ele>421.6</ele>
      </trkpt>
      <trkpt lat="43.74105" lon="5.97387">
        <ele>422.5</ele>
      </trkpt>
      <trkpt lat="43.74116" lon="5.97386">
        <ele>423.2</ele>
      </trkpt>
      <trkpt lat="43.74127" lon="5.97385">
        <ele>423.9</ele>
      </trkpt>
      <trkpt lat="43.74131" lon="5.97384">
        <ele>424.1</ele>
      </trkpt>
      <trkpt lat="43.74138" lon="5.97374">
        <ele>424.3</ele>
      </trkpt>
      <trkpt lat="43.74144" lon="5.97369">
        <ele>424.4</ele>
      </trkpt>
      <trkpt lat="43.7416" lon="5.97375">
        <ele>425.6</ele>
      </trkpt>
      <trkpt lat="43.74176" lon="5.97378">
        <ele>427.7</ele>
      </trkpt>
      <trkpt lat="43.74191" lon="5.97379">
        <ele>430</ele>
      </trkpt>
      <trkpt lat="43.74205" lon="5.97379">
        <ele>432.2</ele>
      </trkpt>
      <trkpt lat="43.74221" lon="5.97378">
        <ele>434.7</ele>
      </trkpt>
      <trkpt lat="43.7424" lon="5.97377">
        <ele>437.6</ele>
      </trkpt>
      <trkpt lat="43.74256" lon="5.97374">
        <ele>440.2</ele>
      </trkpt>
      <trkpt lat="43.74272" lon="5.97364">
        <ele>443.3</ele>
      </trkpt>
      <trkpt lat="43.74285" lon="5.9735">
        <ele>444.6</ele>
      </trkpt>
      <trkpt lat="43.74298" lon="5.97336">
        <ele>446.1</ele>
      </trkpt>
      <trkpt lat="43.74309" lon="5.97324">
        <ele>447</ele>
      </trkpt>
      <trkpt lat="43.74323" lon="5.97307">
        <ele>448.1</ele>
      </trkpt>
      <trkpt lat="43.74335" lon="5.97294">
        <ele>448.4</ele>
      </trkpt>
      <trkpt lat="43.74349" lon="5.97279">
        <ele>448.2</ele>
      </trkpt>
      <trkpt lat="43.74367" lon="5.97259">
        <ele>447.8</ele>
      </trkpt>
      <trkpt lat="43.74369" lon="5.97258">
        <ele>447.9</ele>
      </trkpt>
      <trkpt lat="43.74373" lon="5.97268">
        <ele>449.5</ele>
      </trkpt>
      <trkpt lat="43.74372" lon="5.97271">
        <ele>449.8</ele>
      </trkpt>
      <trkpt lat="43.74353" lon="5.97299">
        <ele>451.1</ele>
      </trkpt>
      <trkpt lat="43.74335" lon="5.97328">
        <ele>452.4</ele>
      </trkpt>
      <trkpt lat="43.74328" lon="5.97352">
        <ele>454.5</ele>
      </trkpt>
      <trkpt lat="43.74327" lon="5.97382">
        <ele>458.3</ele>
      </trkpt>
      <trkpt lat="43.74332" lon="5.97404">
        <ele>462.9</ele>
      </trkpt>
      <trkpt lat="43.74345" lon="5.97422">
        <ele>467.2</ele>
      </trkpt>
      <trkpt lat="43.74352" lon="5.97435">
        <ele>469</ele>
      </trkpt>
      <trkpt lat="43.74345" lon="5.9745">
        <ele>468.4</ele>
      </trkpt>
      <trkpt lat="43.74326" lon="5.97476">
        <ele>465.2</ele>
      </trkpt>
      <trkpt lat="43.74324" lon="5.97498">
        <ele>465.6</ele>
      </trkpt>
      <trkpt lat="43.74335" lon="5.97516">
        <ele>468.2</ele>
      </trkpt>
      <trkpt lat="43.74354" lon="5.97529">
        <ele>472.3</ele>
      </trkpt>
      <trkpt lat="43.74372" lon="5.97549">
        <ele>476.3</ele>
      </trkpt>
      <trkpt lat="43.74373" lon="5.97567">
        <ele>476.5</ele>
      </trkpt>
      <trkpt lat="43.74355" lon="5.97578">
        <ele>472.3</ele>
      </trkpt>
      <trkpt lat="43.74332" lon="5.97591">
        <ele>466.7</ele>
      </trkpt>
      <trkpt lat="43.74337" lon="5.97612">
        <ele>467</ele>
      </trkpt>
      <trkpt lat="43.74358" lon="5.97609">
        <ele>471.9</ele>
      </trkpt>
      <trkpt lat="43.74385" lon="5.97623">
        <ele>476.8</ele>
      </trkpt>
      <trkpt lat="43.74408" lon="5.97633">
        <ele>480.5</ele>
      </trkpt>
      <trkpt lat="43.74432" lon="5.97635">
        <ele>482.7</ele>
      </trkpt>
      <trkpt lat="43.74453" lon="5.97637">
        <ele>483.7</ele>
      </trkpt>
      <trkpt lat="43.74476" lon="5.97645">
        <ele>484</ele>
      </trkpt>
      <trkpt lat="43.74502" lon="5.97654">
        <ele>484.1</ele>
      </trkpt>
      <trkpt lat="43.74529" lon="5.97685">
        <ele>477.2</ele>
      </trkpt>
      <trkpt lat="43.74546" lon="5.97708">
        <ele>471.7</ele>
      </trkpt>
      <trkpt lat="43.74558" lon="5.97736">
        <ele>466.2</ele>
      </trkpt>
      <trkpt lat="43.74574" lon="5.97747">
        <ele>462.5</ele>
      </trkpt>
      <trkpt lat="43.74573" lon="5.9776">
        <ele>462.3</ele>
      </trkpt>
      <trkpt lat="43.74575" lon="5.97786">
        <ele>462.5</ele>
      </trkpt>
      <trkpt lat="43.74588" lon="5.97792">
        <ele>461</ele>
      </trkpt>
      <trkpt lat="43.74594" lon="5.97791">
        <ele>460.4</ele>
      </trkpt>
      <trkpt lat="43.74622" lon="5.97778">
        <ele>458.1</ele>
      </trkpt>
      <trkpt lat="43.74644" lon="5.97775">
        <ele>456.3</ele>
      </trkpt>
      <trkpt lat="43.74651" lon="5.97778">
        <ele>455.7</ele>
      </trkpt>
      <trkpt lat="43.74658" lon="5.97781">
        <ele>454.9</ele>
      </trkpt>
      <trkpt lat="43.74697" lon="5.97787">
        <ele>451.8</ele>
      </trkpt>
      <trkpt lat="43.74712" lon="5.97797">
        <ele>450.2</ele>
      </trkpt>
      <trkpt lat="43.74719" lon="5.97804">
        <ele>449.4</ele>
      </trkpt>
      <trkpt lat="43.74761" lon="5.97825">
        <ele>445.3</ele>
      </trkpt>
      <trkpt lat="43.74782" lon="5.97815">
        <ele>443.5</ele>
      </trkpt>
      <trkpt lat="43.74821" lon="5.97799">
        <ele>439.4</ele>
      </trkpt>
      <trkpt lat="43.74838" lon="5.97805">
        <ele>437.3</ele>
      </trkpt>
      <trkpt lat="43.749" lon="5.97818">
        <ele>428</ele>
      </trkpt>
      <trkpt lat="43.74949" lon="5.97821">
        <ele>422.1</ele>
      </trkpt>
      <trkpt lat="43.74957" lon="5.97821">
        <ele>421.2</ele>
      </trkpt>
      <trkpt lat="43.74974" lon="5.97824">
        <ele>419.5</ele>
      </trkpt>
      <trkpt lat="43.74989" lon="5.9783">
        <ele>418.1</ele>
      </trkpt>
      <trkpt lat="43.75005" lon="5.97825">
        <ele>417.2</ele>
      </trkpt>
      <trkpt lat="43.75009" lon="5.97813">
        <ele>417.2</ele>
      </trkpt>
      <trkpt lat="43.75007" lon="5.97791">
        <ele>416.5</ele>
      </trkpt>
      <trkpt lat="43.75017" lon="5.97779">
        <ele>417</ele>
      </trkpt>
      <trkpt lat="43.75022" lon="5.97775">
        <ele>417.3</ele>
      </trkpt>
      <trkpt lat="43.75024" lon="5.97775">
        <ele>417.4</ele>
      </trkpt>
      <trkpt lat="43.75022" lon="5.97763">
        <ele>416.9</ele>
      </trkpt>
      <trkpt lat="43.75018" lon="5.97748">
        <ele>416.2</ele>
      </trkpt>
      <trkpt lat="43.75015" lon="5.97738">
        <ele>415.6</ele>
      </trkpt>
      <trkpt lat="43.75005" lon="5.9771">
        <ele>413.9</ele>
      </trkpt>
      <trkpt lat="43.74998" lon="5.97679">
        <ele>412.6</ele>
      </trkpt>
      <trkpt lat="43.74993" lon="5.97648">
        <ele>412.4</ele>
      </trkpt>
      <trkpt lat="43.74988" lon="5.97625">
        <ele>412.6</ele>
      </trkpt>
      <trkpt lat="43.74983" lon="5.97602">
        <ele>412.9</ele>
      </trkpt>
      <trkpt lat="43.74979" lon="5.97574">
        <ele>412.8</ele>
      </trkpt>
      <trkpt lat="43.74978" lon="5.97541">
        <ele>412.1</ele>
      </trkpt>
      <trkpt lat="43.74977" lon="5.97503">
        <ele>411.3</ele>
      </trkpt>
      <trkpt lat="43.74979" lon="5.97475">
        <ele>410.4</ele>
      </trkpt>
      <trkpt lat="43.74984" lon="5.97439">
        <ele>409</ele>
      </trkpt>
      <trkpt lat="43.74984" lon="5.97413">
        <ele>408.6</ele>
      </trkpt>
      <trkpt lat="43.74983" lon="5.97406">
        <ele>408.8</ele>
      </trkpt>
      <trkpt lat="43.74974" lon="5.97368">
        <ele>410.3</ele>
      </trkpt>
      <trkpt lat="43.74972" lon="5.97363">
        <ele>410.6</ele>
      </trkpt>
      <trkpt lat="43.74969" lon="5.97346">
        <ele>411.1</ele>
      </trkpt>
      <trkpt lat="43.74971" lon="5.9732">
        <ele>410.9</ele>
      </trkpt>
      <trkpt lat="43.7497" lon="5.97296">
        <ele>410.6</ele>
      </trkpt>
      <trkpt lat="43.7497" lon="5.97261">
        <ele>410</ele>
      </trkpt>
      <trkpt lat="43.7497" lon="5.97211">
        <ele>408.8</ele>
      </trkpt>
      <trkpt lat="43.7497" lon="5.97204">
        <ele>408.7</ele>
      </trkpt>
      <trkpt lat="43.74977" lon="5.97142">
        <ele>406.2</ele>
      </trkpt>
      <trkpt lat="43.74986" lon="5.97086">
        <ele>403.9</ele>
      </trkpt>
      <trkpt lat="43.7499" lon="5.97061">
        <ele>402.5</ele>
      </trkpt>
      <trkpt lat="43.74983" lon="5.97019">
        <ele>401.6</ele>
      </trkpt>
      <trkpt lat="43.74978" lon="5.97003">
        <ele>401.5</ele>
      </trkpt>
      <trkpt lat="43.74978" lon="5.96979">
        <ele>401.4</ele>
      </trkpt>
      <trkpt lat="43.7498" lon="5.96971">
        <ele>401.2</ele>
      </trkpt>
      <trkpt lat="43.74982" lon="5.96959">
        <ele>401</ele>
      </trkpt>
      <trkpt lat="43.74986" lon="5.96951">
        <ele>400.6</ele>
      </trkpt>
      <trkpt lat="43.74992" lon="5.96952">
        <ele>399.9</ele>
      </trkpt>
      <trkpt lat="43.75012" lon="5.96952">
        <ele>399.9</ele>
      </trkpt>
      <trkpt lat="43.75045" lon="5.96945">
        <ele>402.1</ele>
      </trkpt>
      <trkpt lat="43.7508" lon="5.96948">
        <ele>404.6</ele>
      </trkpt>
      <trkpt lat="43.75117" lon="5.96937">
        <ele>409</ele>
      </trkpt>
      <trkpt lat="43.75123" lon="5.96932">
        <ele>409.8</ele>
      </trkpt>
      <trkpt lat="43.75129" lon="5.96922">
        <ele>410.7</ele>
      </trkpt>
      <trkpt lat="43.75128" lon="5.96922">
        <ele>410.4</ele>
      </trkpt>
      <trkpt lat="43.75131" lon="5.96919">
        <ele>411</ele>
      </trkpt>
      <trkpt lat="43.75133" lon="5.96915">
        <ele>411.3</ele>
      </trkpt>
      <trkpt lat="43.75136" lon="5.96914">
        <ele>411.7</ele>
      </trkpt>
      <trkpt lat="43.75137" lon="5.96922">
        <ele>412</ele>
      </trkpt>
      <trkpt lat="43.75136" lon="5.9693">
        <ele>411.7</ele>
      </trkpt>
      <trkpt lat="43.75133" lon="5.96953">
        <ele>411.2</ele>
      </trkpt>
      <trkpt lat="43.75143" lon="5.96962">
        <ele>412.3</ele>
      </trkpt>
      <trkpt lat="43.75159" lon="5.9697">
        <ele>413.7</ele>
      </trkpt>
      <trkpt lat="43.75177" lon="5.96974">
        <ele>415.5</ele>
      </trkpt>
      <trkpt lat="43.75193" lon="5.9698">
        <ele>417.2</ele>
      </trkpt>
      <trkpt lat="43.75205" lon="5.96978">
        <ele>418.9</ele>
      </trkpt>
      <trkpt lat="43.75215" lon="5.96967">
        <ele>420.9</ele>
      </trkpt>
      <trkpt lat="43.75226" lon="5.96961">
        <ele>422.9</ele>
      </trkpt>
      <trkpt lat="43.75234" lon="5.96962">
        <ele>424</ele>
      </trkpt>
      <trkpt lat="43.75238" lon="5.96959">
        <ele>424.8</ele>
      </trkpt>
      <trkpt lat="43.75248" lon="5.96959">
        <ele>426.2</ele>
      </trkpt>
      <trkpt lat="43.75259" lon="5.96959">
        <ele>427.1</ele>
      </trkpt>
      <trkpt lat="43.75274" lon="5.96959">
        <ele>427.9</ele>
      </trkpt>
      <trkpt lat="43.75292" lon="5.96958">
        <ele>429.1</ele>
      </trkpt>
      <trkpt lat="43.75294" lon="5.96958">
        <ele>429.2</ele>
      </trkpt>
      <trkpt lat="43.75294" lon="5.96952">
        <ele>429.8</ele>
      </trkpt>
      <trkpt lat="43.75292" lon="5.96952">
        <ele>429.8</ele>
      </trkpt>
      <trkpt lat="43.75271" lon="5.96944">
        <ele>429.2</ele>
      </trkpt>
      <trkpt lat="43.75262" lon="5.96936">
        <ele>429.6</ele>
      </trkpt>
      <trkpt lat="43.75257" lon="5.96918">
        <ele>431.2</ele>
      </trkpt>
      <trkpt lat="43.7526" lon="5.96902">
        <ele>431.8</ele>
      </trkpt>
      <trkpt lat="43.7526" lon="5.96885">
        <ele>432.3</ele>
      </trkpt>
      <trkpt lat="43.75264" lon="5.96862">
        <ele>433.2</ele>
      </trkpt>
      <trkpt lat="43.75267" lon="5.96852">
        <ele>433.8</ele>
      </trkpt>
      <trkpt lat="43.75277" lon="5.96822">
        <ele>435.6</ele>
      </trkpt>
      <trkpt lat="43.75297" lon="5.96776">
        <ele>437.9</ele>
      </trkpt>
      <trkpt lat="43.75301" lon="5.96768">
        <ele>438.7</ele>
      </trkpt>
      <trkpt lat="43.75306" lon="5.96743">
        <ele>440.1</ele>
      </trkpt>
      <trkpt lat="43.753" lon="5.96726">
        <ele>439.7</ele>
      </trkpt>
      <trkpt lat="43.75278" lon="5.96674">
        <ele>437.7</ele>
      </trkpt>
      <trkpt lat="43.75273" lon="5.96655">
        <ele>436.1</ele>
      </trkpt>
      <trkpt lat="43.75273" lon="5.96634">
        <ele>434.6</ele>
      </trkpt>
      <trkpt lat="43.75277" lon="5.96591">
        <ele>432.3</ele>
      </trkpt>
      <trkpt lat="43.75294" lon="5.96548">
        <ele>432</ele>
      </trkpt>
      <trkpt lat="43.75306" lon="5.96518">
        <ele>432.5</ele>
      </trkpt>
      <trkpt lat="43.75304" lon="5.96487">
        <ele>430.5</ele>
      </trkpt>
      <trkpt lat="43.75304" lon="5.96458">
        <ele>431.3</ele>
      </trkpt>
      <trkpt lat="43.75315" lon="5.96397">
        <ele>436.1</ele>
      </trkpt>
      <trkpt lat="43.7531" lon="5.96352">
        <ele>435</ele>
      </trkpt>
      <trkpt lat="43.75287" lon="5.96274">
        <ele>431.4</ele>
      </trkpt>
      <trkpt lat="43.75268" lon="5.96228">
        <ele>427.2</ele>
      </trkpt>
      <trkpt lat="43.75264" lon="5.9622">
        <ele>426.5</ele>
      </trkpt>
      <trkpt lat="43.75248" lon="5.96195">
        <ele>423.2</ele>
      </trkpt>
      <trkpt lat="43.75244" lon="5.96179">
        <ele>422.9</ele>
      </trkpt>
      <trkpt lat="43.75242" lon="5.96172">
        <ele>422.8</ele>
      </trkpt>
      <trkpt lat="43.75243" lon="5.96157">
        <ele>423.5</ele>
      </trkpt>
      <trkpt lat="43.7525" lon="5.96124">
        <ele>426.5</ele>
      </trkpt>
      <trkpt lat="43.75254" lon="5.96114">
        <ele>427.8</ele>
      </trkpt>
      <trkpt lat="43.75266" lon="5.96092">
        <ele>431.1</ele>
      </trkpt>
      <trkpt lat="43.75269" lon="5.96068">
        <ele>432.3</ele>
      </trkpt>
      <trkpt lat="43.75269" lon="5.96036">
        <ele>432.9</ele>
      </trkpt>
      <trkpt lat="43.75278" lon="5.95994">
        <ele>434.9</ele>
      </trkpt>
      <trkpt lat="43.75289" lon="5.95959">
        <ele>435.5</ele>
      </trkpt>
      <trkpt lat="43.75291" lon="5.95953">
        <ele>435.7</ele>
      </trkpt>
      <trkpt lat="43.75291" lon="5.95928">
        <ele>434.9</ele>
      </trkpt>
      <trkpt lat="43.75286" lon="5.9592">
        <ele>433.6</ele>
      </trkpt>
      <trkpt lat="43.75271" lon="5.95908">
        <ele>432.1</ele>
      </trkpt>
      <trkpt lat="43.75258" lon="5.95884">
        <ele>432.7</ele>
      </trkpt>
      <trkpt lat="43.75257" lon="5.95878">
        <ele>433.1</ele>
      </trkpt>
      <trkpt lat="43.75252" lon="5.95835">
        <ele>437.3</ele>
      </trkpt>
      <trkpt lat="43.75245" lon="5.95815">
        <ele>437.2</ele>
      </trkpt>
      <trkpt lat="43.7523" lon="5.95777">
        <ele>436.4</ele>
      </trkpt>
      <trkpt lat="43.75224" lon="5.95753">
        <ele>436.8</ele>
      </trkpt>
      <trkpt lat="43.75221" lon="5.95716">
        <ele>438.7</ele>
      </trkpt>
      <trkpt lat="43.75224" lon="5.95668">
        <ele>443.9</ele>
      </trkpt>
      <trkpt lat="43.7523" lon="5.95642">
        <ele>445.5</ele>
      </trkpt>
      <trkpt lat="43.75226" lon="5.95608">
        <ele>444.1</ele>
      </trkpt>
      <trkpt lat="43.75222" lon="5.95599">
        <ele>443.2</ele>
      </trkpt>
      <trkpt lat="43.75213" lon="5.95556">
        <ele>439.2</ele>
      </trkpt>
      <trkpt lat="43.7521" lon="5.95531">
        <ele>437.2</ele>
      </trkpt>
      <trkpt lat="43.75213" lon="5.955">
        <ele>436.3</ele>
      </trkpt>
      <trkpt lat="43.75225" lon="5.95459">
        <ele>436.9</ele>
      </trkpt>
      <trkpt lat="43.75234" lon="5.95431">
        <ele>438</ele>
      </trkpt>
      <trkpt lat="43.75249" lon="5.95418">
        <ele>441.8</ele>
      </trkpt>
      <trkpt lat="43.75266" lon="5.95408">
        <ele>445.5</ele>
      </trkpt>
      <trkpt lat="43.75266" lon="5.95394">
        <ele>445</ele>
      </trkpt>
      <trkpt lat="43.75267" lon="5.95379">
        <ele>444.4</ele>
      </trkpt>
      <trkpt lat="43.75269" lon="5.95318">
        <ele>442.2</ele>
      </trkpt>
      <trkpt lat="43.75269" lon="5.95291">
        <ele>441</ele>
      </trkpt>
      <trkpt lat="43.75279" lon="5.95265">
        <ele>441.9</ele>
      </trkpt>
      <trkpt lat="43.75291" lon="5.9524">
        <ele>444.6</ele>
      </trkpt>
      <trkpt lat="43.75286" lon="5.95229">
        <ele>444.1</ele>
      </trkpt>
      <trkpt lat="43.75269" lon="5.95205">
        <ele>442.2</ele>
      </trkpt>
      <trkpt lat="43.75248" lon="5.95175">
        <ele>440</ele>
      </trkpt>
      <trkpt lat="43.75238" lon="5.95151">
        <ele>437.1</ele>
      </trkpt>
      <trkpt lat="43.75229" lon="5.95127">
        <ele>434</ele>
      </trkpt>
      <trkpt lat="43.7523" lon="5.95109">
        <ele>433.4</ele>
      </trkpt>
      <trkpt lat="43.75237" lon="5.95109">
        <ele>434.5</ele>
      </trkpt>
      <trkpt lat="43.75239" lon="5.95119">
        <ele>435.5</ele>
      </trkpt>
      <trkpt lat="43.7524" lon="5.95122">
        <ele>435.9</ele>
      </trkpt>
      <trkpt lat="43.75249" lon="5.95136">
        <ele>438.5</ele>
      </trkpt>
      <trkpt lat="43.75256" lon="5.95145">
        <ele>440.5</ele>
      </trkpt>
      <trkpt lat="43.75268" lon="5.95157">
        <ele>443.6</ele>
      </trkpt>
      <trkpt lat="43.75279" lon="5.95165">
        <ele>446.4</ele>
      </trkpt>
      <trkpt lat="43.75297" lon="5.95177">
        <ele>449.5</ele>
      </trkpt>
      <trkpt lat="43.75317" lon="5.95189">
        <ele>452.8</ele>
      </trkpt>
      <trkpt lat="43.75335" lon="5.95199">
        <ele>455.6</ele>
      </trkpt>
      <trkpt lat="43.75349" lon="5.95209">
        <ele>457.7</ele>
      </trkpt>
      <trkpt lat="43.7537" lon="5.95222">
        <ele>461</ele>
      </trkpt>
      <trkpt lat="43.75387" lon="5.95232">
        <ele>463.9</ele>
      </trkpt>
      <trkpt lat="43.75399" lon="5.9524">
        <ele>466.4</ele>
      </trkpt>
      <trkpt lat="43.75416" lon="5.9525">
        <ele>469.9</ele>
      </trkpt>
      <trkpt lat="43.75429" lon="5.95259">
        <ele>470.8</ele>
      </trkpt>
      <trkpt lat="43.7543" lon="5.95262">
        <ele>471.1</ele>
      </trkpt>
      <trkpt lat="43.75428" lon="5.95283">
        <ele>473.4</ele>
      </trkpt>
      <trkpt lat="43.75422" lon="5.95304">
        <ele>475.7</ele>
      </trkpt>
      <trkpt lat="43.7541" lon="5.95317">
        <ele>475.5</ele>
      </trkpt>
      <trkpt lat="43.75388" lon="5.95334">
        <ele>471.2</ele>
      </trkpt>
      <trkpt lat="43.75371" lon="5.95351">
        <ele>468</ele>
      </trkpt>
      <trkpt lat="43.75365" lon="5.95369">
        <ele>468</ele>
      </trkpt>
      <trkpt lat="43.75366" lon="5.95386">
        <ele>469.8</ele>
      </trkpt>
      <trkpt lat="43.75373" lon="5.95396">
        <ele>473</ele>
      </trkpt>
      <trkpt lat="43.75386" lon="5.95397">
        <ele>476.9</ele>
      </trkpt>
      <trkpt lat="43.75397" lon="5.95381">
        <ele>478.6</ele>
      </trkpt>
      <trkpt lat="43.75406" lon="5.95362">
        <ele>479.3</ele>
      </trkpt>
      <trkpt lat="43.75422" lon="5.95353">
        <ele>481.4</ele>
      </trkpt>
      <trkpt lat="43.75442" lon="5.95343">
        <ele>480</ele>
      </trkpt>
      <trkpt lat="43.75453" lon="5.95332">
        <ele>478.3</ele>
      </trkpt>
      <trkpt lat="43.75468" lon="5.95313">
        <ele>476.1</ele>
      </trkpt>
      <trkpt lat="43.75483" lon="5.95286">
        <ele>473.1</ele>
      </trkpt>
      <trkpt lat="43.75494" lon="5.95265">
        <ele>470.6</ele>
      </trkpt>
      <trkpt lat="43.75506" lon="5.95239">
        <ele>467.4</ele>
      </trkpt>
      <trkpt lat="43.7551" lon="5.95236">
        <ele>466.6</ele>
      </trkpt>
      <trkpt lat="43.75526" lon="5.95233">
        <ele>464.8</ele>
      </trkpt>
      <trkpt lat="43.75553" lon="5.95232">
        <ele>462.1</ele>
      </trkpt>
      <trkpt lat="43.75567" lon="5.95234">
        <ele>460.9</ele>
      </trkpt>
      <trkpt lat="43.75568" lon="5.95234">
        <ele>461</ele>
      </trkpt>
      <trkpt lat="43.75577" lon="5.95238">
        <ele>460.4</ele>
      </trkpt>
      <trkpt lat="43.75588" lon="5.95236">
        <ele>458.8</ele>
      </trkpt>
      <trkpt lat="43.75602" lon="5.9523">
        <ele>455.9</ele>
      </trkpt>
      <trkpt lat="43.75628" lon="5.95211">
        <ele>449.7</ele>
      </trkpt>
      <trkpt lat="43.75635" lon="5.95206">
        <ele>448</ele>
      </trkpt>
      <trkpt lat="43.75642" lon="5.95201">
        <ele>446.5</ele>
      </trkpt>
      <trkpt lat="43.7565" lon="5.95196">
        <ele>444.8</ele>
      </trkpt>
      <trkpt lat="43.75663" lon="5.95189">
        <ele>442.2</ele>
      </trkpt>
      <trkpt lat="43.75674" lon="5.95172">
        <ele>438.7</ele>
      </trkpt>
      <trkpt lat="43.75678" lon="5.95162">
        <ele>436.8</ele>
      </trkpt>
      <trkpt lat="43.75684" lon="5.95139">
        <ele>432.5</ele>
      </trkpt>
      <trkpt lat="43.75689" lon="5.95118">
        <ele>428.7</ele>
      </trkpt>
      <trkpt lat="43.75693" lon="5.95092">
        <ele>424.4</ele>
      </trkpt>
      <trkpt lat="43.75686" lon="5.95066">
        <ele>422.6</ele>
      </trkpt>
      <trkpt lat="43.75672" lon="5.95061">
        <ele>425.5</ele>
      </trkpt>
      <trkpt lat="43.75661" lon="5.95058">
        <ele>427</ele>
      </trkpt>
      <trkpt lat="43.75653" lon="5.95047">
        <ele>427</ele>
      </trkpt>
      <trkpt lat="43.75661" lon="5.9504">
        <ele>424.7</ele>
      </trkpt>
      <trkpt lat="43.75664" lon="5.95037">
        <ele>423.7</ele>
      </trkpt>
      <trkpt lat="43.75688" lon="5.95018">
        <ele>414.7</ele>
      </trkpt>
      <trkpt lat="43.75701" lon="5.95016">
        <ele>411.1</ele>
      </trkpt>
      <trkpt lat="43.75717" lon="5.95018">
        <ele>407.2</ele>
      </trkpt>
      <trkpt lat="43.75728" lon="5.95022">
        <ele>405.1</ele>
      </trkpt>
      <trkpt lat="43.75738" lon="5.95032">
        <ele>404</ele>
      </trkpt>
      <trkpt lat="43.75752" lon="5.95057">
        <ele>404.9</ele>
      </trkpt>
      <trkpt lat="43.75764" lon="5.95078">
        <ele>407.3</ele>
      </trkpt>
      <trkpt lat="43.75782" lon="5.95095">
        <ele>407.3</ele>
      </trkpt>
      <trkpt lat="43.758" lon="5.95117">
        <ele>406.9</ele>
      </trkpt>
      <trkpt lat="43.75804" lon="5.95125">
        <ele>406.8</ele>
      </trkpt>
      <trkpt lat="43.75824" lon="5.95151">
        <ele>404.6</ele>
      </trkpt>
      <trkpt lat="43.75846" lon="5.95173">
        <ele>405.7</ele>
      </trkpt>
      <trkpt lat="43.7585" lon="5.95179">
        <ele>406.6</ele>
      </trkpt>
      <trkpt lat="43.75858" lon="5.95192">
        <ele>408.5</ele>
      </trkpt>
      <trkpt lat="43.75887" lon="5.95241">
        <ele>412.3</ele>
      </trkpt>
      <trkpt lat="43.75897" lon="5.9526">
        <ele>412.6</ele>
      </trkpt>
      <trkpt lat="43.75901" lon="5.95252">
        <ele>412.6</ele>
      </trkpt>
      <trkpt lat="43.75903" lon="5.95208">
        <ele>413.7</ele>
      </trkpt>
      <trkpt lat="43.75904" lon="5.95197">
        <ele>414</ele>
      </trkpt>
      <trkpt lat="43.75901" lon="5.95164">
        <ele>414.7</ele>
      </trkpt>
      <trkpt lat="43.75894" lon="5.95148">
        <ele>414.1</ele>
      </trkpt>
      <trkpt lat="43.75881" lon="5.95128">
        <ele>412.4</ele>
      </trkpt>
      <trkpt lat="43.75873" lon="5.95113">
        <ele>411.1</ele>
      </trkpt>
      <trkpt lat="43.75857" lon="5.95089">
        <ele>408</ele>
      </trkpt>
      <trkpt lat="43.75853" lon="5.95066">
        <ele>409.4</ele>
      </trkpt>
      <trkpt lat="43.75849" lon="5.95033">
        <ele>412.2</ele>
      </trkpt>
      <trkpt lat="43.7585" lon="5.95015">
        <ele>414.8</ele>
      </trkpt>
      <trkpt lat="43.75851" lon="5.95012">
        <ele>415.4</ele>
      </trkpt>
      <trkpt lat="43.75854" lon="5.95006">
        <ele>417.3</ele>
      </trkpt>
      <trkpt lat="43.75857" lon="5.94997">
        <ele>419.1</ele>
      </trkpt>
      <trkpt lat="43.75861" lon="5.94988">
        <ele>421.4</ele>
      </trkpt>
      <trkpt lat="43.75863" lon="5.94982">
        <ele>422.7</ele>
      </trkpt>
      <trkpt lat="43.75863" lon="5.94974">
        <ele>423.3</ele>
      </trkpt>
      <trkpt lat="43.7586" lon="5.94961">
        <ele>423.7</ele>
      </trkpt>
      <trkpt lat="43.75859" lon="5.9495">
        <ele>424.5</ele>
      </trkpt>
      <trkpt lat="43.75858" lon="5.94946">
        <ele>424.4</ele>
      </trkpt>
      <trkpt lat="43.75856" lon="5.94941">
        <ele>424.3</ele>
      </trkpt>
      <trkpt lat="43.75853" lon="5.94924">
        <ele>425.1</ele>
      </trkpt>
      <trkpt lat="43.75853" lon="5.94919">
        <ele>425.5</ele>
      </trkpt>
      <trkpt lat="43.75846" lon="5.94906">
        <ele>424.5</ele>
      </trkpt>
      <trkpt lat="43.75839" lon="5.94897">
        <ele>423</ele>
      </trkpt>
      <trkpt lat="43.75828" lon="5.94892">
        <ele>420.5</ele>
      </trkpt>
      <trkpt lat="43.7582" lon="5.94884">
        <ele>419.5</ele>
      </trkpt>
      <trkpt lat="43.7582" lon="5.9488">
        <ele>419.7</ele>
      </trkpt>
      <trkpt lat="43.7582" lon="5.94879">
        <ele>419.9</ele>
      </trkpt>
      <trkpt lat="43.75822" lon="5.94877">
        <ele>420.6</ele>
      </trkpt>
      <trkpt lat="43.75823" lon="5.94871">
        <ele>421.3</ele>
      </trkpt>
      <trkpt lat="43.75824" lon="5.9487">
        <ele>421.5</ele>
      </trkpt>
      <trkpt lat="43.75816" lon="5.94863">
        <ele>420.6</ele>
      </trkpt>
      <trkpt lat="43.75802" lon="5.9485">
        <ele>419.7</ele>
      </trkpt>
      <trkpt lat="43.75794" lon="5.94827">
        <ele>421.7</ele>
      </trkpt>
      <trkpt lat="43.75784" lon="5.94791">
        <ele>426.5</ele>
      </trkpt>
      <trkpt lat="43.75776" lon="5.9476">
        <ele>430.9</ele>
      </trkpt>
      <trkpt lat="43.75764" lon="5.94717">
        <ele>433.2</ele>
      </trkpt>
      <trkpt lat="43.7576" lon="5.94687">
        <ele>433.9</ele>
      </trkpt>
      <trkpt lat="43.75765" lon="5.94664">
        <ele>435.9</ele>
      </trkpt>
      <trkpt lat="43.75778" lon="5.94637">
        <ele>438.3</ele>
      </trkpt>
      <trkpt lat="43.75779" lon="5.94612">
        <ele>438.5</ele>
      </trkpt>
      <trkpt lat="43.75771" lon="5.94596">
        <ele>437.1</ele>
      </trkpt>
      <trkpt lat="43.75759" lon="5.94587">
        <ele>434.8</ele>
      </trkpt>
      <trkpt lat="43.75743" lon="5.94579">
        <ele>432.6</ele>
      </trkpt>
      <trkpt lat="43.75725" lon="5.94563">
        <ele>432.6</ele>
      </trkpt>
      <trkpt lat="43.75714" lon="5.94532">
        <ele>436.1</ele>
      </trkpt>
      <trkpt lat="43.75708" lon="5.94491">
        <ele>440.2</ele>
      </trkpt>
      <trkpt lat="43.75715" lon="5.94468">
        <ele>442.2</ele>
      </trkpt>
      <trkpt lat="43.7573" lon="5.94444">
        <ele>446.1</ele>
      </trkpt>
      <trkpt lat="43.75733" lon="5.94439">
        <ele>446.8</ele>
      </trkpt>
      <trkpt lat="43.75748" lon="5.94421">
        <ele>450.5</ele>
      </trkpt>
      <trkpt lat="43.75746" lon="5.94409">
        <ele>450.4</ele>
      </trkpt>
      <trkpt lat="43.75756" lon="5.9439">
        <ele>453.6</ele>
      </trkpt>
      <trkpt lat="43.75778" lon="5.94388">
        <ele>459.3</ele>
      </trkpt>
      <trkpt lat="43.75773" lon="5.94415">
        <ele>457</ele>
      </trkpt>
      <trkpt lat="43.75766" lon="5.94462">
        <ele>453</ele>
      </trkpt>
      <trkpt lat="43.75768" lon="5.94491">
        <ele>451.8</ele>
      </trkpt>
      <trkpt lat="43.7579" lon="5.94493">
        <ele>453.6</ele>
      </trkpt>
      <trkpt lat="43.7583" lon="5.94481">
        <ele>459.3</ele>
      </trkpt>
      <trkpt lat="43.75854" lon="5.94477">
        <ele>465.6</ele>
      </trkpt>
      <trkpt lat="43.7588" lon="5.94455">
        <ele>475.8</ele>
      </trkpt>
      <trkpt lat="43.75908" lon="5.9444">
        <ele>484.9</ele>
      </trkpt>
      <trkpt lat="43.75926" lon="5.94406">
        <ele>489.1</ele>
      </trkpt>
      <trkpt lat="43.75938" lon="5.94353">
        <ele>486.9</ele>
      </trkpt>
      <trkpt lat="43.75943" lon="5.94314">
        <ele>482.7</ele>
      </trkpt>
      <trkpt lat="43.7595" lon="5.94283">
        <ele>477</ele>
      </trkpt>
      <trkpt lat="43.75927" lon="5.94248">
        <ele>472.1</ele>
      </trkpt>
      <trkpt lat="43.75892" lon="5.94197">
        <ele>470.7</ele>
      </trkpt>
      <trkpt lat="43.75863" lon="5.9413">
        <ele>474.9</ele>
      </trkpt>
      <trkpt lat="43.75852" lon="5.94062">
        <ele>477.6</ele>
      </trkpt>
      <trkpt lat="43.75834" lon="5.93995">
        <ele>485.8</ele>
      </trkpt>
      <trkpt lat="43.75811" lon="5.93934">
        <ele>491.7</ele>
      </trkpt>
      <trkpt lat="43.75782" lon="5.93875">
        <ele>494.2</ele>
      </trkpt>
      <trkpt lat="43.75775" lon="5.93809">
        <ele>490.6</ele>
      </trkpt>
      <trkpt lat="43.75778" lon="5.93737">
        <ele>483.5</ele>
      </trkpt>
      <trkpt lat="43.75778" lon="5.93689">
        <ele>478.3</ele>
      </trkpt>
      <trkpt lat="43.75773" lon="5.93645">
        <ele>476</ele>
      </trkpt>
      <trkpt lat="43.75759" lon="5.93615">
        <ele>478.9</ele>
      </trkpt>
      <trkpt lat="43.75732" lon="5.93608">
        <ele>483.5</ele>
      </trkpt>
      <trkpt lat="43.75708" lon="5.93594">
        <ele>485.5</ele>
      </trkpt>
      <trkpt lat="43.75684" lon="5.9356">
        <ele>484.7</ele>
      </trkpt>
      <trkpt lat="43.75663" lon="5.93518">
        <ele>480.8</ele>
      </trkpt>
      <trkpt lat="43.7564" lon="5.93483">
        <ele>477.7</ele>
      </trkpt>
      <trkpt lat="43.7563" lon="5.93432">
        <ele>472.2</ele>
      </trkpt>
      <trkpt lat="43.75622" lon="5.93376">
        <ele>466.9</ele>
      </trkpt>
      <trkpt lat="43.75612" lon="5.93309">
        <ele>462.1</ele>
      </trkpt>
      <trkpt lat="43.7561" lon="5.93267">
        <ele>459</ele>
      </trkpt>
      <trkpt lat="43.75582" lon="5.93259">
        <ele>465.6</ele>
      </trkpt>
      <trkpt lat="43.75538" lon="5.93248">
        <ele>468.1</ele>
      </trkpt>
      <trkpt lat="43.75502" lon="5.93229">
        <ele>469</ele>
      </trkpt>
      <trkpt lat="43.75475" lon="5.93211">
        <ele>463.2</ele>
      </trkpt>
      <trkpt lat="43.7545" lon="5.93197">
        <ele>457.7</ele>
      </trkpt>
      <trkpt lat="43.75438" lon="5.93171">
        <ele>453.9</ele>
      </trkpt>
      <trkpt lat="43.75443" lon="5.93166">
        <ele>454.2</ele>
      </trkpt>
      <trkpt lat="43.75444" lon="5.93166">
        <ele>454.4</ele>
      </trkpt>
      <trkpt lat="43.75443" lon="5.93166">
        <ele>454.2</ele>
      </trkpt>
      <trkpt lat="43.75451" lon="5.9316">
        <ele>455</ele>
      </trkpt>
      <trkpt lat="43.75463" lon="5.93151">
        <ele>456.2</ele>
      </trkpt>
      <trkpt lat="43.75477" lon="5.93139">
        <ele>457.3</ele>
      </trkpt>
      <trkpt lat="43.75498" lon="5.93123">
        <ele>460</ele>
      </trkpt>
      <trkpt lat="43.7551" lon="5.9311">
        <ele>458.7</ele>
      </trkpt>
      <trkpt lat="43.75525" lon="5.93077">
        <ele>454.4</ele>
      </trkpt>
      <trkpt lat="43.75534" lon="5.93058">
        <ele>450.3</ele>
      </trkpt>
      <trkpt lat="43.7556" lon="5.93019">
        <ele>440.1</ele>
      </trkpt>
      <trkpt lat="43.75584" lon="5.92987">
        <ele>429.7</ele>
      </trkpt>
      <trkpt lat="43.75605" lon="5.92981">
        <ele>428</ele>
      </trkpt>
      <trkpt lat="43.75626" lon="5.92998">
        <ele>431.9</ele>
      </trkpt>
      <trkpt lat="43.75646" lon="5.9302">
        <ele>434.4</ele>
      </trkpt>
      <trkpt lat="43.75666" lon="5.93034">
        <ele>434.4</ele>
      </trkpt>
      <trkpt lat="43.75697" lon="5.9304">
        <ele>431.1</ele>
      </trkpt>
      <trkpt lat="43.75721" lon="5.93038">
        <ele>428.2</ele>
      </trkpt>
      <trkpt lat="43.75741" lon="5.93025">
        <ele>426.5</ele>
      </trkpt>
      <trkpt lat="43.75748" lon="5.93001">
        <ele>427.1</ele>
      </trkpt>
      <trkpt lat="43.75762" lon="5.92979">
        <ele>423.9</ele>
      </trkpt>
      <trkpt lat="43.75779" lon="5.92964">
        <ele>420.8</ele>
      </trkpt>
      <trkpt lat="43.75819" lon="5.92932">
        <ele>416.4</ele>
      </trkpt>
      <trkpt lat="43.75825" lon="5.92927">
        <ele>416.1</ele>
      </trkpt>
      <trkpt lat="43.7584" lon="5.92906">
        <ele>415</ele>
      </trkpt>
      <trkpt lat="43.75841" lon="5.92897">
        <ele>415</ele>
      </trkpt>
      <trkpt lat="43.75844" lon="5.92871">
        <ele>415.3</ele>
      </trkpt>
      <trkpt lat="43.75844" lon="5.92846">
        <ele>416.3</ele>
      </trkpt>
      <trkpt lat="43.75842" lon="5.9282">
        <ele>416</ele>
      </trkpt>
      <trkpt lat="43.75849" lon="5.92792">
        <ele>410.2</ele>
      </trkpt>
      <trkpt lat="43.75864" lon="5.92755">
        <ele>398.5</ele>
      </trkpt>
      <trkpt lat="43.75874" lon="5.92715">
        <ele>384.9</ele>
      </trkpt>
      <trkpt lat="43.75872" lon="5.92679">
        <ele>378.8</ele>
      </trkpt>
      <trkpt lat="43.7587" lon="5.9266">
        <ele>376.6</ele>
      </trkpt>
      <trkpt lat="43.75872" lon="5.92641">
        <ele>371</ele>
      </trkpt>
      <trkpt lat="43.75881" lon="5.92641">
        <ele>365.5</ele>
      </trkpt>
      <trkpt lat="43.75897" lon="5.92658">
        <ele>358.4</ele>
      </trkpt>
      <trkpt lat="43.75926" lon="5.92696">
        <ele>352.2</ele>
      </trkpt>
      <trkpt lat="43.75931" lon="5.92703">
        <ele>352.2</ele>
      </trkpt>
      <trkpt lat="43.75946" lon="5.92736">
        <ele>353.5</ele>
      </trkpt>
      <trkpt lat="43.75947" lon="5.92745">
        <ele>354.7</ele>
      </trkpt>
      <trkpt lat="43.75947" lon="5.92782">
        <ele>364.4</ele>
      </trkpt>
      <trkpt lat="43.7595" lon="5.92809">
        <ele>370.1</ele>
      </trkpt>
      <trkpt lat="43.75952" lon="5.92833">
        <ele>375.5</ele>
      </trkpt>
      <trkpt lat="43.75957" lon="5.92871">
        <ele>377.6</ele>
      </trkpt>
      <trkpt lat="43.7596" lon="5.92888">
        <ele>378</ele>
      </trkpt>
      <trkpt lat="43.75956" lon="5.92912">
        <ele>382.4</ele>
      </trkpt>
      <trkpt lat="43.75952" lon="5.92917">
        <ele>384.3</ele>
      </trkpt>
      <trkpt lat="43.75922" lon="5.92945">
        <ele>392.8</ele>
      </trkpt>
      <trkpt lat="43.75905" lon="5.92962">
        <ele>396</ele>
      </trkpt>
      <trkpt lat="43.75895" lon="5.9298">
        <ele>396.9</ele>
      </trkpt>
      <trkpt lat="43.75889" lon="5.93">
        <ele>396.7</ele>
      </trkpt>
      <trkpt lat="43.75895" lon="5.93025">
        <ele>396.8</ele>
      </trkpt>
      <trkpt lat="43.75914" lon="5.93027">
        <ele>392.2</ele>
      </trkpt>
      <trkpt lat="43.75928" lon="5.93035">
        <ele>389.5</ele>
      </trkpt>
      <trkpt lat="43.75932" lon="5.93038">
        <ele>388.9</ele>
      </trkpt>
      <trkpt lat="43.75951" lon="5.9307">
        <ele>387.8</ele>
      </trkpt>
      <trkpt lat="43.75952" lon="5.93094">
        <ele>391</ele>
      </trkpt>
      <trkpt lat="43.75949" lon="5.93115">
        <ele>395.2</ele>
      </trkpt>
      <trkpt lat="43.7595" lon="5.93164">
        <ele>404.2</ele>
      </trkpt>
      <trkpt lat="43.7595" lon="5.93172">
        <ele>405.3</ele>
      </trkpt>
      <trkpt lat="43.75964" lon="5.93194">
        <ele>407.8</ele>
      </trkpt>
      <trkpt lat="43.75973" lon="5.93187">
        <ele>406.1</ele>
      </trkpt>
      <trkpt lat="43.75982" lon="5.93177">
        <ele>404.1</ele>
      </trkpt>
      <trkpt lat="43.75992" lon="5.93164">
        <ele>400.7</ele>
      </trkpt>
      <trkpt lat="43.76" lon="5.93155">
        <ele>398.2</ele>
      </trkpt>
      <trkpt lat="43.76032" lon="5.93138">
        <ele>390.9</ele>
      </trkpt>
      <trkpt lat="43.76059" lon="5.93136">
        <ele>388.3</ele>
      </trkpt>
      <trkpt lat="43.76095" lon="5.93151">
        <ele>386.3</ele>
      </trkpt>
      <trkpt lat="43.76121" lon="5.93169">
        <ele>384.8</ele>
      </trkpt>
      <trkpt lat="43.76143" lon="5.93202">
        <ele>382.3</ele>
      </trkpt>
      <trkpt lat="43.76161" lon="5.9323">
        <ele>379.6</ele>
      </trkpt>
      <trkpt lat="43.76174" lon="5.93264">
        <ele>376.7</ele>
      </trkpt>
      <trkpt lat="43.76174" lon="5.93275">
        <ele>376.7</ele>
      </trkpt>
      <trkpt lat="43.76183" lon="5.93338">
        <ele>376.2</ele>
      </trkpt>
      <trkpt lat="43.76191" lon="5.93386">
        <ele>374.5</ele>
      </trkpt>
      <trkpt lat="43.76191" lon="5.93418">
        <ele>375.3</ele>
      </trkpt>
      <trkpt lat="43.76191" lon="5.93428">
        <ele>375.3</ele>
      </trkpt>
      <trkpt lat="43.76194" lon="5.93488">
        <ele>375</ele>
      </trkpt>
      <trkpt lat="43.762" lon="5.93516">
        <ele>374.3</ele>
      </trkpt>
      <trkpt lat="43.76213" lon="5.93525">
        <ele>371.7</ele>
      </trkpt>
      <trkpt lat="43.76234" lon="5.93546">
        <ele>368</ele>
      </trkpt>
      <trkpt lat="43.76228" lon="5.93563">
        <ele>370.5</ele>
      </trkpt>
      <trkpt lat="43.7622" lon="5.93598">
        <ele>374.2</ele>
      </trkpt>
      <trkpt lat="43.76229" lon="5.9362">
        <ele>373.1</ele>
      </trkpt>
      <trkpt lat="43.76234" lon="5.93642">
        <ele>373.3</ele>
      </trkpt>
      <trkpt lat="43.76233" lon="5.9367">
        <ele>374.8</ele>
      </trkpt>
      <trkpt lat="43.7624" lon="5.93716">
        <ele>374.1</ele>
      </trkpt>
      <trkpt lat="43.76253" lon="5.93737">
        <ele>372.6</ele>
      </trkpt>
      <trkpt lat="43.76258" lon="5.93758">
        <ele>373.8</ele>
      </trkpt>
      <trkpt lat="43.7625" lon="5.93773">
        <ele>376.1</ele>
      </trkpt>
      <trkpt lat="43.76246" lon="5.93778">
        <ele>377.2</ele>
      </trkpt>
      <trkpt lat="43.76229" lon="5.93801">
        <ele>382.2</ele>
      </trkpt>
      <trkpt lat="43.76225" lon="5.93831">
        <ele>385.9</ele>
      </trkpt>
      <trkpt lat="43.76233" lon="5.93833">
        <ele>385.3</ele>
      </trkpt>
      <trkpt lat="43.76251" lon="5.93829">
        <ele>383.2</ele>
      </trkpt>
      <trkpt lat="43.76278" lon="5.93833">
        <ele>382</ele>
      </trkpt>
      <trkpt lat="43.76313" lon="5.93847">
        <ele>380.7</ele>
      </trkpt>
      <trkpt lat="43.76327" lon="5.93864">
        <ele>381</ele>
      </trkpt>
      <trkpt lat="43.7633" lon="5.93874">
        <ele>381.7</ele>
      </trkpt>
      <trkpt lat="43.76336" lon="5.93898">
        <ele>382.9</ele>
      </trkpt>
      <trkpt lat="43.76354" lon="5.93942">
        <ele>382.7</ele>
      </trkpt>
      <trkpt lat="43.76362" lon="5.93962">
        <ele>382.3</ele>
      </trkpt>
      <trkpt lat="43.7638" lon="5.93979">
        <ele>379.9</ele>
      </trkpt>
      <trkpt lat="43.76396" lon="5.93994">
        <ele>377.6</ele>
      </trkpt>
      <trkpt lat="43.7642" lon="5.9404">
        <ele>375.1</ele>
      </trkpt>
      <trkpt lat="43.76434" lon="5.9407">
        <ele>374.3</ele>
      </trkpt>
      <trkpt lat="43.76445" lon="5.94115">
        <ele>376.6</ele>
      </trkpt>
      <trkpt lat="43.76448" lon="5.94126">
        <ele>377.3</ele>
      </trkpt>
      <trkpt lat="43.76471" lon="5.94162">
        <ele>378.8</ele>
      </trkpt>
      <trkpt lat="43.76475" lon="5.94169">
        <ele>379.1</ele>
      </trkpt>
      <trkpt lat="43.76492" lon="5.94196">
        <ele>378.8</ele>
      </trkpt>
      <trkpt lat="43.76507" lon="5.94212">
        <ele>377.3</ele>
      </trkpt>
      <trkpt lat="43.76516" lon="5.94222">
        <ele>376.3</ele>
      </trkpt>
      <trkpt lat="43.76543" lon="5.94257">
        <ele>373.7</ele>
      </trkpt>
      <trkpt lat="43.76555" lon="5.9427">
        <ele>373</ele>
      </trkpt>
      <trkpt lat="43.76562" lon="5.94295">
        <ele>374.3</ele>
      </trkpt>
      <trkpt lat="43.76548" lon="5.94328">
        <ele>377.8</ele>
      </trkpt>
      <trkpt lat="43.76539" lon="5.94348">
        <ele>379.1</ele>
      </trkpt>
      <trkpt lat="43.76531" lon="5.9437">
        <ele>379.9</ele>
      </trkpt>
      <trkpt lat="43.76528" lon="5.94405">
        <ele>380.7</ele>
      </trkpt>
      <trkpt lat="43.76539" lon="5.94424">
        <ele>381.5</ele>
      </trkpt>
      <trkpt lat="43.76551" lon="5.94445">
        <ele>382.2</ele>
      </trkpt>
      <trkpt lat="43.76553" lon="5.94463">
        <ele>382.6</ele>
      </trkpt>
      <trkpt lat="43.76547" lon="5.94534">
        <ele>386.5</ele>
      </trkpt>
      <trkpt lat="43.76539" lon="5.94586">
        <ele>391.5</ele>
      </trkpt>
      <trkpt lat="43.76545" lon="5.94608">
        <ele>395.8</ele>
      </trkpt>
      <trkpt lat="43.7656" lon="5.94607">
        <ele>397.1</ele>
      </trkpt>
      <trkpt lat="43.76565" lon="5.94605">
        <ele>397.1</ele>
      </trkpt>
      <trkpt lat="43.76574" lon="5.946">
        <ele>396.9</ele>
      </trkpt>
      <trkpt lat="43.76591" lon="5.94587">
        <ele>395.5</ele>
      </trkpt>
      <trkpt lat="43.76599" lon="5.94583">
        <ele>394.5</ele>
      </trkpt>
      <trkpt lat="43.76621" lon="5.94567">
        <ele>392.5</ele>
      </trkpt>
      <trkpt lat="43.76634" lon="5.94565">
        <ele>392.3</ele>
      </trkpt>
      <trkpt lat="43.76663" lon="5.94556">
        <ele>391.3</ele>
      </trkpt>
      <trkpt lat="43.76685" lon="5.94538">
        <ele>384.8</ele>
      </trkpt>
      <trkpt lat="43.76697" lon="5.94526">
        <ele>381</ele>
      </trkpt>
      <trkpt lat="43.76708" lon="5.9453">
        <ele>378.1</ele>
      </trkpt>
      <trkpt lat="43.76716" lon="5.94551">
        <ele>377.2</ele>
      </trkpt>
      <trkpt lat="43.76726" lon="5.94578">
        <ele>376.3</ele>
      </trkpt>
      <trkpt lat="43.76737" lon="5.94591">
        <ele>373.8</ele>
      </trkpt>
      <trkpt lat="43.76749" lon="5.94611">
        <ele>371.9</ele>
      </trkpt>
      <trkpt lat="43.76754" lon="5.94631">
        <ele>372.1</ele>
      </trkpt>
      <trkpt lat="43.76772" lon="5.9467">
        <ele>370.9</ele>
      </trkpt>
      <trkpt lat="43.76798" lon="5.94712">
        <ele>367.3</ele>
      </trkpt>
      <trkpt lat="43.76806" lon="5.94725">
        <ele>365.8</ele>
      </trkpt>
      <trkpt lat="43.76817" lon="5.94765">
        <ele>364.4</ele>
      </trkpt>
      <trkpt lat="43.76817" lon="5.94774">
        <ele>364.8</ele>
      </trkpt>
      <trkpt lat="43.76817" lon="5.94792">
        <ele>365.9</ele>
      </trkpt>
      <trkpt lat="43.76827" lon="5.94828">
        <ele>364.6</ele>
      </trkpt>
      <trkpt lat="43.76838" lon="5.94841">
        <ele>363.4</ele>
      </trkpt>
      <trkpt lat="43.7685" lon="5.94855">
        <ele>363.8</ele>
      </trkpt>
      <trkpt lat="43.76873" lon="5.94901">
        <ele>363.6</ele>
      </trkpt>
      <trkpt lat="43.76891" lon="5.94966">
        <ele>362.3</ele>
      </trkpt>
      <trkpt lat="43.76896" lon="5.94989">
        <ele>361.6</ele>
      </trkpt>
      <trkpt lat="43.76914" lon="5.95058">
        <ele>360.7</ele>
      </trkpt>
      <trkpt lat="43.76923" lon="5.95107">
        <ele>362</ele>
      </trkpt>
      <trkpt lat="43.76925" lon="5.95117">
        <ele>362.4</ele>
      </trkpt>
      <trkpt lat="43.76935" lon="5.95145">
        <ele>363.1</ele>
      </trkpt>
      <trkpt lat="43.76945" lon="5.95145">
        <ele>362.7</ele>
      </trkpt>
      <trkpt lat="43.76949" lon="5.95139">
        <ele>362.4</ele>
      </trkpt>
      <trkpt lat="43.76951" lon="5.95124">
        <ele>361.9</ele>
      </trkpt>
      <trkpt lat="43.76944" lon="5.951">
        <ele>361.4</ele>
      </trkpt>
      <trkpt lat="43.76927" lon="5.95047">
        <ele>359.8</ele>
      </trkpt>
      <trkpt lat="43.76923" lon="5.9503">
        <ele>359.2</ele>
      </trkpt>
      <trkpt lat="43.76919" lon="5.94978">
        <ele>358.4</ele>
      </trkpt>
      <trkpt lat="43.76921" lon="5.94917">
        <ele>359.4</ele>
      </trkpt>
      <trkpt lat="43.76918" lon="5.9485">
        <ele>362.3</ele>
      </trkpt>
      <trkpt lat="43.76917" lon="5.9484">
        <ele>362.8</ele>
      </trkpt>
      <trkpt lat="43.76911" lon="5.94803">
        <ele>364.9</ele>
      </trkpt>
      <trkpt lat="43.76918" lon="5.94775">
        <ele>367.4</ele>
      </trkpt>
      <trkpt lat="43.76923" lon="5.94771">
        <ele>368.3</ele>
      </trkpt>
      <trkpt lat="43.76946" lon="5.94751">
        <ele>372.9</ele>
      </trkpt>
      <trkpt lat="43.76943" lon="5.94731">
        <ele>372.7</ele>
      </trkpt>
      <trkpt lat="43.76937" lon="5.9472">
        <ele>372.1</ele>
      </trkpt>
      <trkpt lat="43.76931" lon="5.94707">
        <ele>371.6</ele>
      </trkpt>
      <trkpt lat="43.76928" lon="5.94666">
        <ele>371.6</ele>
      </trkpt>
      <trkpt lat="43.7693" lon="5.94659">
        <ele>371.7</ele>
      </trkpt>
      <trkpt lat="43.76935" lon="5.94637">
        <ele>372</ele>
      </trkpt>
      <trkpt lat="43.76934" lon="5.94615">
        <ele>371.1</ele>
      </trkpt>
      <trkpt lat="43.7694" lon="5.94591">
        <ele>371.6</ele>
      </trkpt>
      <trkpt lat="43.76947" lon="5.94565">
        <ele>372.3</ele>
      </trkpt>
      <trkpt lat="43.76958" lon="5.9454">
        <ele>373.2</ele>
      </trkpt>
      <trkpt lat="43.76965" lon="5.94517">
        <ele>373.2</ele>
      </trkpt>
      <trkpt lat="43.76969" lon="5.94499">
        <ele>372.7</ele>
      </trkpt>
      <trkpt lat="43.76974" lon="5.94492">
        <ele>372.4</ele>
      </trkpt>
      <trkpt lat="43.76979" lon="5.94492">
        <ele>373.2</ele>
      </trkpt>
      <trkpt lat="43.7698" lon="5.94494">
        <ele>373.5</ele>
      </trkpt>
      <trkpt lat="43.76981" lon="5.94499">
        <ele>374.4</ele>
      </trkpt>
      <trkpt lat="43.76986" lon="5.94493">
        <ele>374.2</ele>
      </trkpt>
      <trkpt lat="43.76992" lon="5.94478">
        <ele>372.9</ele>
      </trkpt>
      <trkpt lat="43.76995" lon="5.94468">
        <ele>371.8</ele>
      </trkpt>
      <trkpt lat="43.77003" lon="5.94451">
        <ele>369.8</ele>
      </trkpt>
      <trkpt lat="43.77016" lon="5.94425">
        <ele>365.9</ele>
      </trkpt>
      <trkpt lat="43.77028" lon="5.94416">
        <ele>364.6</ele>
      </trkpt>
      <trkpt lat="43.77031" lon="5.94414">
        <ele>364.5</ele>
      </trkpt>
      <trkpt lat="43.77031" lon="5.94403">
        <ele>363.8</ele>
      </trkpt>
      <trkpt lat="43.77035" lon="5.94388">
        <ele>363</ele>
      </trkpt>
      <trkpt lat="43.77026" lon="5.94381">
        <ele>362.5</ele>
      </trkpt>
      <trkpt lat="43.77017" lon="5.9438">
        <ele>362.4</ele>
      </trkpt>
      <trkpt lat="43.76992" lon="5.94372">
        <ele>361.3</ele>
      </trkpt>
      <trkpt lat="43.76979" lon="5.94354">
        <ele>359.4</ele>
      </trkpt>
      <trkpt lat="43.7697" lon="5.94325">
        <ele>357.6</ele>
      </trkpt>
      <trkpt lat="43.76962" lon="5.94297">
        <ele>357.6</ele>
      </trkpt>
      <trkpt lat="43.76958" lon="5.94277">
        <ele>357.7</ele>
      </trkpt>
      <trkpt lat="43.76953" lon="5.94254">
        <ele>357.8</ele>
      </trkpt>
      <trkpt lat="43.76946" lon="5.94233">
        <ele>359.2</ele>
      </trkpt>
      <trkpt lat="43.76948" lon="5.94221">
        <ele>360.5</ele>
      </trkpt>
      <trkpt lat="43.76948" lon="5.94211">
        <ele>361.3</ele>
      </trkpt>
      <trkpt lat="43.76948" lon="5.94186">
        <ele>363.6</ele>
      </trkpt>
      <trkpt lat="43.76947" lon="5.94165">
        <ele>365.6</ele>
      </trkpt>
      <trkpt lat="43.76948" lon="5.94145">
        <ele>367.4</ele>
      </trkpt>
      <trkpt lat="43.76948" lon="5.94139">
        <ele>368</ele>
      </trkpt>
      <trkpt lat="43.76947" lon="5.94114">
        <ele>370.4</ele>
      </trkpt>
      <trkpt lat="43.76945" lon="5.94093">
        <ele>372.4</ele>
      </trkpt>
      <trkpt lat="43.76945" lon="5.94085">
        <ele>373.2</ele>
      </trkpt>
      <trkpt lat="43.76944" lon="5.9407">
        <ele>374.2</ele>
      </trkpt>
      <trkpt lat="43.76945" lon="5.94054">
        <ele>375.1</ele>
      </trkpt>
      <trkpt lat="43.76948" lon="5.94032">
        <ele>376.2</ele>
      </trkpt>
      <trkpt lat="43.7695" lon="5.9401">
        <ele>377.3</ele>
      </trkpt>
      <trkpt lat="43.76951" lon="5.94005">
        <ele>377.7</ele>
      </trkpt>
      <trkpt lat="43.76944" lon="5.94001">
        <ele>378.3</ele>
      </trkpt>
      <trkpt lat="43.76939" lon="5.94003">
        <ele>378.5</ele>
      </trkpt>
      <trkpt lat="43.76925" lon="5.94003">
        <ele>379.3</ele>
      </trkpt>
      <trkpt lat="43.76918" lon="5.93984">
        <ele>381</ele>
      </trkpt>
      <trkpt lat="43.76912" lon="5.93952">
        <ele>382.8</ele>
      </trkpt>
      <trkpt lat="43.76908" lon="5.93921">
        <ele>384.4</ele>
      </trkpt>
      <trkpt lat="43.76901" lon="5.93884">
        <ele>386.8</ele>
      </trkpt>
      <trkpt lat="43.76889" lon="5.93885">
        <ele>386</ele>
      </trkpt>
      <trkpt lat="43.76866" lon="5.9391">
        <ele>383.1</ele>
      </trkpt>
      <trkpt lat="43.76862" lon="5.93914">
        <ele>382.5</ele>
      </trkpt>
      <trkpt lat="43.76852" lon="5.93907">
        <ele>382.5</ele>
      </trkpt>
      <trkpt lat="43.76839" lon="5.93892">
        <ele>382.6</ele>
      </trkpt>
      <trkpt lat="43.76823" lon="5.93869">
        <ele>382.5</ele>
      </trkpt>
      <trkpt lat="43.76814" lon="5.93848">
        <ele>382.8</ele>
      </trkpt>
      <trkpt lat="43.76812" lon="5.9383">
        <ele>383.8</ele>
      </trkpt>
      <trkpt lat="43.76812" lon="5.93815">
        <ele>385.2</ele>
      </trkpt>
      <trkpt lat="43.76815" lon="5.93789">
        <ele>388.3</ele>
      </trkpt>
      <trkpt lat="43.76817" lon="5.93775">
        <ele>389.9</ele>
      </trkpt>
      <trkpt lat="43.76822" lon="5.93763">
        <ele>391.9</ele>
      </trkpt>
      <trkpt lat="43.76824" lon="5.93749">
        <ele>393.7</ele>
      </trkpt>
      <trkpt lat="43.76824" lon="5.93719">
        <ele>398.6</ele>
      </trkpt>
      <trkpt lat="43.76816" lon="5.93693">
        <ele>400.9</ele>
      </trkpt>
      <trkpt lat="43.76808" lon="5.93673">
        <ele>402.1</ele>
      </trkpt>
      <trkpt lat="43.76803" lon="5.93651">
        <ele>402.2</ele>
      </trkpt>
      <trkpt lat="43.76806" lon="5.93622">
        <ele>404</ele>
      </trkpt>
      <trkpt lat="43.76808" lon="5.93605">
        <ele>405.1</ele>
      </trkpt>
      <trkpt lat="43.768" lon="5.93569">
        <ele>402.8</ele>
      </trkpt>
      <trkpt lat="43.76789" lon="5.93557">
        <ele>399</ele>
      </trkpt>
      <trkpt lat="43.76758" lon="5.93531">
        <ele>390.4</ele>
      </trkpt>
      <trkpt lat="43.76751" lon="5.93527">
        <ele>388.5</ele>
      </trkpt>
      <trkpt lat="43.76749" lon="5.93526">
        <ele>388.2</ele>
      </trkpt>
      <trkpt lat="43.76751" lon="5.93528">
        <ele>388.7</ele>
      </trkpt>
      <trkpt lat="43.76748" lon="5.93527">
        <ele>388</ele>
      </trkpt>
      <trkpt lat="43.76748" lon="5.93526">
        <ele>387.9</ele>
      </trkpt>
      <trkpt lat="43.76738" lon="5.93515">
        <ele>386.7</ele>
      </trkpt>
      <trkpt lat="43.76725" lon="5.93501">
        <ele>385.4</ele>
      </trkpt>
      <trkpt lat="43.76713" lon="5.93479">
        <ele>386.8</ele>
      </trkpt>
      <trkpt lat="43.76706" lon="5.93446">
        <ele>390.4</ele>
      </trkpt>
      <trkpt lat="43.76707" lon="5.93413">
        <ele>394.9</ele>
      </trkpt>
      <trkpt lat="43.76708" lon="5.93392">
        <ele>396.6</ele>
      </trkpt>
      <trkpt lat="43.76704" lon="5.93359">
        <ele>397.4</ele>
      </trkpt>
      <trkpt lat="43.76694" lon="5.9335">
        <ele>395.2</ele>
      </trkpt>
      <trkpt lat="43.76673" lon="5.93348">
        <ele>389.9</ele>
      </trkpt>
      <trkpt lat="43.76661" lon="5.93345">
        <ele>387.8</ele>
      </trkpt>
      <trkpt lat="43.76644" lon="5.93343">
        <ele>386.1</ele>
      </trkpt>
      <trkpt lat="43.76627" lon="5.93342">
        <ele>384.3</ele>
      </trkpt>
      <trkpt lat="43.76611" lon="5.93338">
        <ele>383.2</ele>
      </trkpt>
      <trkpt lat="43.76604" lon="5.93335">
        <ele>382.8</ele>
      </trkpt>
      <trkpt lat="43.76594" lon="5.9332">
        <ele>383.5</ele>
      </trkpt>
      <trkpt lat="43.76587" lon="5.93297">
        <ele>385.4</ele>
      </trkpt>
      <trkpt lat="43.7659" lon="5.93273">
        <ele>388</ele>
      </trkpt>
      <trkpt lat="43.76605" lon="5.93238">
        <ele>391.9</ele>
      </trkpt>
      <trkpt lat="43.76613" lon="5.93214">
        <ele>393.3</ele>
      </trkpt>
      <trkpt lat="43.76608" lon="5.93199">
        <ele>393.3</ele>
      </trkpt>
      <trkpt lat="43.76588" lon="5.93164">
        <ele>392</ele>
      </trkpt>
      <trkpt lat="43.76574" lon="5.93134">
        <ele>395.6</ele>
      </trkpt>
      <trkpt lat="43.76554" lon="5.93111">
        <ele>396.4</ele>
      </trkpt>
      <trkpt lat="43.76524" lon="5.93081">
        <ele>395.6</ele>
      </trkpt>
      <trkpt lat="43.7652" lon="5.93076">
        <ele>395.4</ele>
      </trkpt>
      <trkpt lat="43.7651" lon="5.93042">
        <ele>397.2</ele>
      </trkpt>
      <trkpt lat="43.76511" lon="5.93025">
        <ele>399.1</ele>
      </trkpt>
      <trkpt lat="43.76517" lon="5.92983">
        <ele>404.1</ele>
      </trkpt>
      <trkpt lat="43.76508" lon="5.92955">
        <ele>403.9</ele>
      </trkpt>
      <trkpt lat="43.76504" lon="5.92951">
        <ele>403</ele>
      </trkpt>
      <trkpt lat="43.76469" lon="5.92917">
        <ele>396.6</ele>
      </trkpt>
      <trkpt lat="43.76465" lon="5.92912">
        <ele>396.1</ele>
      </trkpt>
      <trkpt lat="43.76453" lon="5.92882">
        <ele>395.8</ele>
      </trkpt>
      <trkpt lat="43.76448" lon="5.92847">
        <ele>397.6</ele>
      </trkpt>
      <trkpt lat="43.76448" lon="5.92831">
        <ele>398.8</ele>
      </trkpt>
      <trkpt lat="43.76455" lon="5.92782">
        <ele>401.8</ele>
      </trkpt>
      <trkpt lat="43.76447" lon="5.92762">
        <ele>400.6</ele>
      </trkpt>
      <trkpt lat="43.76434" lon="5.92766">
        <ele>397.7</ele>
      </trkpt>
      <trkpt lat="43.76422" lon="5.92773">
        <ele>394.6</ele>
      </trkpt>
      <trkpt lat="43.76397" lon="5.92779">
        <ele>390.4</ele>
      </trkpt>
      <trkpt lat="43.76377" lon="5.92781">
        <ele>387.1</ele>
      </trkpt>
      <trkpt lat="43.76361" lon="5.9278">
        <ele>384.7</ele>
      </trkpt>
      <trkpt lat="43.76344" lon="5.92768">
        <ele>384.5</ele>
      </trkpt>
      <trkpt lat="43.76338" lon="5.92753">
        <ele>386.9</ele>
      </trkpt>
      <trkpt lat="43.7633" lon="5.92733">
        <ele>390.7</ele>
      </trkpt>
      <trkpt lat="43.76322" lon="5.92718">
        <ele>393</ele>
      </trkpt>
      <trkpt lat="43.76301" lon="5.92686">
        <ele>396.5</ele>
      </trkpt>
      <trkpt lat="43.7629" lon="5.92651">
        <ele>400.6</ele>
      </trkpt>
      <trkpt lat="43.76283" lon="5.92599">
        <ele>405.7</ele>
      </trkpt>
      <trkpt lat="43.76278" lon="5.92575">
        <ele>406.7</ele>
      </trkpt>
      <trkpt lat="43.76276" lon="5.92573">
        <ele>406.4</ele>
      </trkpt>
      <trkpt lat="43.76276" lon="5.92578">
        <ele>406.1</ele>
      </trkpt>
      <trkpt lat="43.76272" lon="5.92575">
        <ele>405.3</ele>
      </trkpt>
      <trkpt lat="43.7627" lon="5.92571">
        <ele>404.8</ele>
      </trkpt>
      <trkpt lat="43.76257" lon="5.92562">
        <ele>402</ele>
      </trkpt>
      <trkpt lat="43.76256" lon="5.92549">
        <ele>402.2</ele>
      </trkpt>
      <trkpt lat="43.76261" lon="5.9254">
        <ele>404</ele>
      </trkpt>
      <trkpt lat="43.76267" lon="5.92535">
        <ele>405.7</ele>
      </trkpt>
      <trkpt lat="43.76274" lon="5.92522">
        <ele>408.2</ele>
      </trkpt>
      <trkpt lat="43.76277" lon="5.92518">
        <ele>409.1</ele>
      </trkpt>
      <trkpt lat="43.76278" lon="5.92509">
        <ele>409.7</ele>
      </trkpt>
      <trkpt lat="43.76275" lon="5.92495">
        <ele>409.7</ele>
      </trkpt>
      <trkpt lat="43.76278" lon="5.9248">
        <ele>411.3</ele>
      </trkpt>
      <trkpt lat="43.76278" lon="5.92478">
        <ele>411.6</ele>
      </trkpt>
      <trkpt lat="43.76277" lon="5.92459">
        <ele>412.6</ele>
      </trkpt>
      <trkpt lat="43.76275" lon="5.92438">
        <ele>413.4</ele>
      </trkpt>
      <trkpt lat="43.76269" lon="5.92413">
        <ele>414.1</ele>
      </trkpt>
      <trkpt lat="43.76257" lon="5.92403">
        <ele>412.7</ele>
      </trkpt>
      <trkpt lat="43.7624" lon="5.924">
        <ele>410.2</ele>
      </trkpt>
      <trkpt lat="43.7623" lon="5.9239">
        <ele>409.5</ele>
      </trkpt>
      <trkpt lat="43.76224" lon="5.92374">
        <ele>410.1</ele>
      </trkpt>
      <trkpt lat="43.76224" lon="5.92356">
        <ele>411.8</ele>
      </trkpt>
      <trkpt lat="43.76224" lon="5.92334">
        <ele>413.9</ele>
      </trkpt>
      <trkpt lat="43.76221" lon="5.92311">
        <ele>415.5</ele>
      </trkpt>
      <trkpt lat="43.7622" lon="5.92286">
        <ele>417.6</ele>
      </trkpt>
      <trkpt lat="43.76222" lon="5.92263">
        <ele>419.8</ele>
      </trkpt>
      <trkpt lat="43.76228" lon="5.92236">
        <ele>424.1</ele>
      </trkpt>
      <trkpt lat="43.76231" lon="5.92222">
        <ele>426.5</ele>
      </trkpt>
      <trkpt lat="43.76225" lon="5.9221">
        <ele>427.2</ele>
      </trkpt>
      <trkpt lat="43.76223" lon="5.92209">
        <ele>426.9</ele>
      </trkpt>
      <trkpt lat="43.762" lon="5.92204">
        <ele>423.9</ele>
      </trkpt>
      <trkpt lat="43.76184" lon="5.92189">
        <ele>423.3</ele>
      </trkpt>
      <trkpt lat="43.76172" lon="5.92167">
        <ele>424.8</ele>
      </trkpt>
      <trkpt lat="43.76165" lon="5.92146">
        <ele>427.3</ele>
      </trkpt>
      <trkpt lat="43.76159" lon="5.92121">
        <ele>429.9</ele>
      </trkpt>
      <trkpt lat="43.76155" lon="5.92101">
        <ele>431.9</ele>
      </trkpt>
      <trkpt lat="43.76147" lon="5.92062">
        <ele>429.3</ele>
      </trkpt>
      <trkpt lat="43.76144" lon="5.92034">
        <ele>424.9</ele>
      </trkpt>
      <trkpt lat="43.76137" lon="5.92016">
        <ele>421.1</ele>
      </trkpt>
      <trkpt lat="43.76128" lon="5.92003">
        <ele>417.7</ele>
      </trkpt>
      <trkpt lat="43.76115" lon="5.91995">
        <ele>413.9</ele>
      </trkpt>
      <trkpt lat="43.76103" lon="5.91989">
        <ele>410</ele>
      </trkpt>
      <trkpt lat="43.76101" lon="5.91987">
        <ele>409.1</ele>
      </trkpt>
      <trkpt lat="43.76097" lon="5.91984">
        <ele>407.7</ele>
      </trkpt>
      <trkpt lat="43.76096" lon="5.91983">
        <ele>407.6</ele>
      </trkpt>
      <trkpt lat="43.7609" lon="5.91982">
        <ele>406.3</ele>
      </trkpt>
      <trkpt lat="43.76088" lon="5.91981">
        <ele>405.7</ele>
      </trkpt>
      <trkpt lat="43.76089" lon="5.91981">
        <ele>405.8</ele>
      </trkpt>
      <trkpt lat="43.76084" lon="5.91977">
        <ele>404</ele>
      </trkpt>
      <trkpt lat="43.76075" lon="5.91972">
        <ele>401.9</ele>
      </trkpt>
      <trkpt lat="43.76073" lon="5.91971">
        <ele>401.7</ele>
      </trkpt>
      <trkpt lat="43.76069" lon="5.91971">
        <ele>401.1</ele>
      </trkpt>
      <trkpt lat="43.76065" lon="5.91971">
        <ele>400.9</ele>
      </trkpt>
      <trkpt lat="43.76058" lon="5.91972">
        <ele>400.7</ele>
      </trkpt>
      <trkpt lat="43.76057" lon="5.91973">
        <ele>401</ele>
      </trkpt>
      <trkpt lat="43.76052" lon="5.91968">
        <ele>399.5</ele>
      </trkpt>
      <trkpt lat="43.7605" lon="5.91967">
        <ele>399.1</ele>
      </trkpt>
      <trkpt lat="43.76048" lon="5.91965">
        <ele>398.7</ele>
      </trkpt>
      <trkpt lat="43.76033" lon="5.91958">
        <ele>396.6</ele>
      </trkpt>
      <trkpt lat="43.76024" lon="5.91955">
        <ele>395.5</ele>
      </trkpt>
      <trkpt lat="43.7602" lon="5.91954">
        <ele>395.3</ele>
      </trkpt>
      <trkpt lat="43.76002" lon="5.91955">
        <ele>394.5</ele>
      </trkpt>
      <trkpt lat="43.75997" lon="5.91955">
        <ele>393.8</ele>
      </trkpt>
      <trkpt lat="43.75986" lon="5.91952">
        <ele>391.2</ele>
      </trkpt>
      <trkpt lat="43.75972" lon="5.91951">
        <ele>388.2</ele>
      </trkpt>
      <trkpt lat="43.75957" lon="5.91948">
        <ele>384.8</ele>
      </trkpt>
      <trkpt lat="43.75944" lon="5.91946">
        <ele>382</ele>
      </trkpt>
      <trkpt lat="43.75925" lon="5.91941">
        <ele>378.3</ele>
      </trkpt>
      <trkpt lat="43.75909" lon="5.91935">
        <ele>375.4</ele>
      </trkpt>
      <trkpt lat="43.75895" lon="5.9192">
        <ele>373.9</ele>
      </trkpt>
      <trkpt lat="43.75884" lon="5.91923">
        <ele>372.7</ele>
      </trkpt>
      <trkpt lat="43.75878" lon="5.91926">
        <ele>371.9</ele>
      </trkpt>
      <trkpt lat="43.7586" lon="5.91927">
        <ele>369.8</ele>
      </trkpt>
      <trkpt lat="43.75851" lon="5.91934">
        <ele>368.1</ele>
      </trkpt>
      <trkpt lat="43.75837" lon="5.91936">
        <ele>366.3</ele>
      </trkpt>
      <trkpt lat="43.75826" lon="5.91938">
        <ele>364.6</ele>
      </trkpt>
      <trkpt lat="43.75818" lon="5.91943">
        <ele>363</ele>
      </trkpt>
      <trkpt lat="43.75804" lon="5.91935">
        <ele>362.2</ele>
      </trkpt>
      <trkpt lat="43.75795" lon="5.91924">
        <ele>362.6</ele>
      </trkpt>
      <trkpt lat="43.75792" lon="5.9192">
        <ele>362.7</ele>
      </trkpt>
      <trkpt lat="43.75787" lon="5.91919">
        <ele>362.1</ele>
      </trkpt>
      <trkpt lat="43.75779" lon="5.91915">
        <ele>361.2</ele>
      </trkpt>
      <trkpt lat="43.7577" lon="5.91912">
        <ele>359.9</ele>
      </trkpt>
      <trkpt lat="43.75759" lon="5.91917">
        <ele>359</ele>
      </trkpt>
      <trkpt lat="43.75755" lon="5.91929">
        <ele>357.1</ele>
      </trkpt>
      <trkpt lat="43.75747" lon="5.91942">
        <ele>354.1</ele>
      </trkpt>
      <trkpt lat="43.75732" lon="5.91941">
        <ele>351.2</ele>
      </trkpt>
      <trkpt lat="43.75726" lon="5.91923">
        <ele>351.8</ele>
      </trkpt>
      <trkpt lat="43.75732" lon="5.91894">
        <ele>351.9</ele>
      </trkpt>
      <trkpt lat="43.75731" lon="5.91871">
        <ele>349.7</ele>
      </trkpt>
      <trkpt lat="43.75718" lon="5.91852">
        <ele>346.4</ele>
      </trkpt>
      <trkpt lat="43.75713" lon="5.9185">
        <ele>345.6</ele>
      </trkpt>
      <trkpt lat="43.75698" lon="5.91857">
        <ele>343.7</ele>
      </trkpt>
      <trkpt lat="43.75677" lon="5.91867">
        <ele>340.7</ele>
      </trkpt>
      <trkpt lat="43.75665" lon="5.91856">
        <ele>338.8</ele>
      </trkpt>
      <trkpt lat="43.75637" lon="5.91813">
        <ele>339.4</ele>
      </trkpt>
      <trkpt lat="43.75628" lon="5.91796">
        <ele>340.8</ele>
      </trkpt>
      <trkpt lat="43.75624" lon="5.91786">
        <ele>341.8</ele>
      </trkpt>
      <trkpt lat="43.75616" lon="5.91743">
        <ele>345.4</ele>
      </trkpt>
      <trkpt lat="43.75619" lon="5.91699">
        <ele>347.6</ele>
      </trkpt>
      <trkpt lat="43.75639" lon="5.91614">
        <ele>347.7</ele>
      </trkpt>
      <trkpt lat="43.75657" lon="5.91541">
        <ele>343.4</ele>
      </trkpt>
      <trkpt lat="43.75669" lon="5.91484">
        <ele>340</ele>
      </trkpt>
      <trkpt lat="43.75677" lon="5.91452">
        <ele>338.3</ele>
      </trkpt>
      <trkpt lat="43.75668" lon="5.91432">
        <ele>335.5</ele>
      </trkpt>
      <trkpt lat="43.75657" lon="5.91433">
        <ele>333.8</ele>
      </trkpt>
      <trkpt lat="43.75646" lon="5.91437">
        <ele>332.3</ele>
      </trkpt>
      <trkpt lat="43.75626" lon="5.91448">
        <ele>329.8</ele>
      </trkpt>
      <trkpt lat="43.7562" lon="5.91464">
        <ele>329.7</ele>
      </trkpt>
      <trkpt lat="43.75599" lon="5.91514">
        <ele>329.1</ele>
      </trkpt>
      <trkpt lat="43.75577" lon="5.91528">
        <ele>325.9</ele>
      </trkpt>
      <trkpt lat="43.75548" lon="5.91532">
        <ele>322.8</ele>
      </trkpt>
      <trkpt lat="43.75514" lon="5.91537">
        <ele>319.1</ele>
      </trkpt>
      <trkpt lat="43.75502" lon="5.9154">
        <ele>317.7</ele>
      </trkpt>
      <trkpt lat="43.75449" lon="5.91551">
        <ele>313.9</ele>
      </trkpt>
      <trkpt lat="43.75426" lon="5.91557">
        <ele>312.4</ele>
      </trkpt>
      <trkpt lat="43.75413" lon="5.9155">
        <ele>311.5</ele>
      </trkpt>
      <trkpt lat="43.75406" lon="5.9153">
        <ele>311</ele>
      </trkpt>
      <trkpt lat="43.7539" lon="5.91488">
        <ele>310.1</ele>
      </trkpt>
      <trkpt lat="43.75377" lon="5.91437">
        <ele>311</ele>
      </trkpt>
      <trkpt lat="43.75376" lon="5.9143">
        <ele>311.2</ele>
      </trkpt>
      <trkpt lat="43.75368" lon="5.91392">
        <ele>310.9</ele>
      </trkpt>
      <trkpt lat="43.75363" lon="5.9136">
        <ele>310.3</ele>
      </trkpt>
      <trkpt lat="43.75357" lon="5.91323">
        <ele>309.9</ele>
      </trkpt>
      <trkpt lat="43.75353" lon="5.91276">
        <ele>310.2</ele>
      </trkpt>
      <trkpt lat="43.75357" lon="5.91239">
        <ele>310.3</ele>
      </trkpt>
      <trkpt lat="43.75356" lon="5.91176">
        <ele>309</ele>
      </trkpt>
      <trkpt lat="43.75358" lon="5.91132">
        <ele>308.9</ele>
      </trkpt>
      <trkpt lat="43.75362" lon="5.91067">
        <ele>308.9</ele>
      </trkpt>
      <trkpt lat="43.75363" lon="5.91051">
        <ele>308.9</ele>
      </trkpt>
      <trkpt lat="43.75368" lon="5.90992">
        <ele>308.5</ele>
      </trkpt>
      <trkpt lat="43.75378" lon="5.90942">
        <ele>307.8</ele>
      </trkpt>
      <trkpt lat="43.75395" lon="5.90888">
        <ele>307.4</ele>
      </trkpt>
      <trkpt lat="43.75409" lon="5.90851">
        <ele>307.7</ele>
      </trkpt>
      <trkpt lat="43.7542" lon="5.90814">
        <ele>308.2</ele>
      </trkpt>
      <trkpt lat="43.7543" lon="5.90768">
        <ele>308.7</ele>
      </trkpt>
      <trkpt lat="43.75434" lon="5.90738">
        <ele>308.7</ele>
      </trkpt>
      <trkpt lat="43.75434" lon="5.90678">
        <ele>308</ele>
      </trkpt>
      <trkpt lat="43.75434" lon="5.90643">
        <ele>307.8</ele>
      </trkpt>
      <trkpt lat="43.75439" lon="5.90584">
        <ele>308.1</ele>
      </trkpt>
      <trkpt lat="43.75441" lon="5.90571">
        <ele>308.6</ele>
      </trkpt>
      <trkpt lat="43.75445" lon="5.90558">
        <ele>309.2</ele>
      </trkpt>
      <trkpt lat="43.75451" lon="5.90517">
        <ele>310.7</ele>
      </trkpt>
      <trkpt lat="43.75448" lon="5.90464">
        <ele>311.3</ele>
      </trkpt>
      <trkpt lat="43.75441" lon="5.90417">
        <ele>311.2</ele>
      </trkpt>
      <trkpt lat="43.7544" lon="5.90371">
        <ele>310.7</ele>
      </trkpt>
      <trkpt lat="43.75436" lon="5.90322">
        <ele>310.5</ele>
      </trkpt>
      <trkpt lat="43.75431" lon="5.90263">
        <ele>312.3</ele>
      </trkpt>
      <trkpt lat="43.75425" lon="5.90235">
        <ele>312.7</ele>
      </trkpt>
      <trkpt lat="43.75418" lon="5.90218">
        <ele>312.7</ele>
      </trkpt>
      <trkpt lat="43.75406" lon="5.9018">
        <ele>313.8</ele>
      </trkpt>
      <trkpt lat="43.754" lon="5.90139">
        <ele>315.2</ele>
      </trkpt>
      <trkpt lat="43.75396" lon="5.90078">
        <ele>317</ele>
      </trkpt>
      <trkpt lat="43.75391" lon="5.90052">
        <ele>317</ele>
      </trkpt>
      <trkpt lat="43.75375" lon="5.90002">
        <ele>315.4</ele>
      </trkpt>
      <trkpt lat="43.75371" lon="5.89991">
        <ele>315.1</ele>
      </trkpt>
      <trkpt lat="43.75365" lon="5.8995">
        <ele>315.3</ele>
      </trkpt>
      <trkpt lat="43.75362" lon="5.89904">
        <ele>315.5</ele>
      </trkpt>
      <trkpt lat="43.75359" lon="5.8985">
        <ele>314.4</ele>
      </trkpt>
      <trkpt lat="43.75361" lon="5.89774">
        <ele>313.2</ele>
      </trkpt>
      <trkpt lat="43.75361" lon="5.89758">
        <ele>312.9</ele>
      </trkpt>
      <trkpt lat="43.75367" lon="5.89698">
        <ele>312.5</ele>
      </trkpt>
      <trkpt lat="43.75373" lon="5.89611">
        <ele>312.8</ele>
      </trkpt>
      <trkpt lat="43.75377" lon="5.89549">
        <ele>311.8</ele>
      </trkpt>
      <trkpt lat="43.75382" lon="5.89496">
        <ele>310.4</ele>
      </trkpt>
      <trkpt lat="43.75388" lon="5.89447">
        <ele>309.1</ele>
      </trkpt>
      <trkpt lat="43.7539" lon="5.89397">
        <ele>308.2</ele>
      </trkpt>
      <trkpt lat="43.75396" lon="5.89338">
        <ele>309.2</ele>
      </trkpt>
      <trkpt lat="43.75398" lon="5.89323">
        <ele>309.7</ele>
      </trkpt>
      <trkpt lat="43.75394" lon="5.89257">
        <ele>311.1</ele>
      </trkpt>
      <trkpt lat="43.75395" lon="5.89229">
        <ele>311.5</ele>
      </trkpt>
      <trkpt lat="43.75407" lon="5.89219">
        <ele>312.9</ele>
      </trkpt>
      <trkpt lat="43.75418" lon="5.89212">
        <ele>314</ele>
      </trkpt>
      <trkpt lat="43.7544" lon="5.89187">
        <ele>312.9</ele>
      </trkpt>
      <trkpt lat="43.7547" lon="5.89169">
        <ele>311.4</ele>
      </trkpt>
      <trkpt lat="43.75482" lon="5.89163">
        <ele>311</ele>
      </trkpt>
      <trkpt lat="43.75491" lon="5.89161">
        <ele>310.7</ele>
      </trkpt>
      <trkpt lat="43.75531" lon="5.89145">
        <ele>311.3</ele>
      </trkpt>
      <trkpt lat="43.7554" lon="5.89142">
        <ele>311.5</ele>
      </trkpt>
      <trkpt lat="43.75549" lon="5.8914">
        <ele>311.7</ele>
      </trkpt>
      <trkpt lat="43.75568" lon="5.89133">
        <ele>312.1</ele>
      </trkpt>
      <trkpt lat="43.75586" lon="5.8912">
        <ele>312.9</ele>
      </trkpt>
      <trkpt lat="43.75617" lon="5.89088">
        <ele>316.7</ele>
      </trkpt>
      <trkpt lat="43.75636" lon="5.89063">
        <ele>319.6</ele>
      </trkpt>
      <trkpt lat="43.75644" lon="5.8905">
        <ele>320.7</ele>
      </trkpt>
      <trkpt lat="43.75668" lon="5.89013">
        <ele>322.8</ele>
      </trkpt>
      <trkpt lat="43.75677" lon="5.88986">
        <ele>324.1</ele>
      </trkpt>
      <trkpt lat="43.75706" lon="5.88946">
        <ele>326.9</ele>
      </trkpt>
      <trkpt lat="43.75722" lon="5.8892">
        <ele>328.2</ele>
      </trkpt>
      <trkpt lat="43.75734" lon="5.88887">
        <ele>329.9</ele>
      </trkpt>
      <trkpt lat="43.75744" lon="5.88845">
        <ele>331.6</ele>
      </trkpt>
      <trkpt lat="43.75768" lon="5.88808">
        <ele>334</ele>
      </trkpt>
      <trkpt lat="43.75788" lon="5.88786">
        <ele>336.2</ele>
      </trkpt>
      <trkpt lat="43.75788" lon="5.88786">
        <ele>336.2</ele>
      </trkpt>
      <trkpt lat="43.75794" lon="5.88784">
        <ele>336.6</ele>
      </trkpt>
      <trkpt lat="43.75794" lon="5.88784">
        <ele>335</ele>
      </trkpt>
      <trkpt lat="43.758" lon="5.88784">
        <ele>335</ele>
      </trkpt>
      <trkpt lat="43.75809" lon="5.88791">
        <ele>334</ele>
      </trkpt>
      <trkpt lat="43.75808" lon="5.888">
        <ele>334</ele>
      </trkpt>
      <trkpt lat="43.75807" lon="5.88804">
        <ele>334</ele>
      </trkpt>
      <trkpt lat="43.75807" lon="5.88806">
        <ele>334</ele>
      </trkpt>
      <trkpt lat="43.75807" lon="5.88808">
        <ele>334</ele>
      </trkpt>
      <trkpt lat="43.75818" lon="5.88802">
        <ele>334</ele>
      </trkpt>
      <trkpt lat="43.75828" lon="5.88805">
        <ele>334</ele>
      </trkpt>
      <trkpt lat="43.75841" lon="5.8881">
        <ele>334</ele>
      </trkpt>
      <trkpt lat="43.75859" lon="5.88811">
        <ele>335</ele>
      </trkpt>
      <trkpt lat="43.75885" lon="5.88807">
        <ele>336</ele>
      </trkpt>
      <trkpt lat="43.75894" lon="5.88807">
        <ele>336</ele>
      </trkpt>
      <trkpt lat="43.75904" lon="5.88806">
        <ele>336</ele>
      </trkpt>
      <trkpt lat="43.75915" lon="5.88805">
        <ele>336</ele>
      </trkpt>
      <trkpt lat="43.75926" lon="5.88804">
        <ele>340</ele>
      </trkpt>
      <trkpt lat="43.75943" lon="5.88798">
        <ele>341</ele>
      </trkpt>
      <trkpt lat="43.75959" lon="5.88789">
        <ele>343</ele>
      </trkpt>
      <trkpt lat="43.75972" lon="5.88772">
        <ele>344</ele>
      </trkpt>
      <trkpt lat="43.75985" lon="5.88754">
        <ele>348</ele>
      </trkpt>
      <trkpt lat="43.75996" lon="5.88733">
        <ele>350</ele>
      </trkpt>
      <trkpt lat="43.76005" lon="5.88718">
        <ele>355</ele>
      </trkpt>
      <trkpt lat="43.76012" lon="5.88704">
        <ele>355</ele>
      </trkpt>
      <trkpt lat="43.76016" lon="5.88679">
        <ele>356</ele>
      </trkpt>
      <trkpt lat="43.76029" lon="5.88654">
        <ele>358</ele>
      </trkpt>
      <trkpt lat="43.7605" lon="5.8861">
        <ele>359</ele>
      </trkpt>
      <trkpt lat="43.76056" lon="5.88577">
        <ele>363</ele>
      </trkpt>
      <trkpt lat="43.76058" lon="5.88559">
        <ele>363</ele>
      </trkpt>
      <trkpt lat="43.76061" lon="5.88557">
        <ele>363</ele>
      </trkpt>
      <trkpt lat="43.76061" lon="5.8855">
        <ele>364</ele>
      </trkpt>
      <trkpt lat="43.76061" lon="5.88549">
        <ele>364</ele>
      </trkpt>
      <trkpt lat="43.76054" lon="5.88535">
        <ele>364</ele>
      </trkpt>
      <trkpt lat="43.76052" lon="5.88528">
        <ele>365</ele>
      </trkpt>
      <trkpt lat="43.7605" lon="5.88517">
        <ele>365</ele>
      </trkpt>
      <trkpt lat="43.76045" lon="5.88502">
        <ele>365</ele>
      </trkpt>
      <trkpt lat="43.76042" lon="5.88488">
        <ele>372</ele>
      </trkpt>
      <trkpt lat="43.76043" lon="5.88481">
        <ele>373</ele>
      </trkpt>
      <trkpt lat="43.76043" lon="5.88478">
        <ele>373</ele>
      </trkpt>
      <trkpt lat="43.76045" lon="5.88474">
        <ele>373</ele>
      </trkpt>
      <trkpt lat="43.76049" lon="5.88469">
        <ele>373</ele>
      </trkpt>
      <trkpt lat="43.76052" lon="5.88464">
        <ele>374</ele>
      </trkpt>
      <trkpt lat="43.76054" lon="5.88462">
        <ele>374</ele>
      </trkpt>
      <trkpt lat="43.76056" lon="5.88457">
        <ele>374</ele>
      </trkpt>
      <trkpt lat="43.7606" lon="5.88451">
        <ele>374</ele>
      </trkpt>
      <trkpt lat="43.76068" lon="5.88439">
        <ele>375</ele>
      </trkpt>
      <trkpt lat="43.76074" lon="5.88428">
        <ele>376</ele>
      </trkpt>
      <trkpt lat="43.76088" lon="5.88403">
        <ele>377</ele>
      </trkpt>
      <trkpt lat="43.76103" lon="5.88381">
        <ele>377</ele>
      </trkpt>
      <trkpt lat="43.76102" lon="5.88366">
        <ele>378</ele>
      </trkpt>
      <trkpt lat="43.76107" lon="5.8836">
        <ele>378</ele>
      </trkpt>
      <trkpt lat="43.76155" lon="5.88338">
        <ele>380</ele>
      </trkpt>
      <trkpt lat="43.76166" lon="5.88328">
        <ele>382</ele>
      </trkpt>
      <trkpt lat="43.76167" lon="5.88313">
        <ele>383</ele>
      </trkpt>
      <trkpt lat="43.76173" lon="5.88292">
        <ele>383</ele>
      </trkpt>
      <trkpt lat="43.76184" lon="5.88281">
        <ele>384</ele>
      </trkpt>
      <trkpt lat="43.76197" lon="5.88269">
        <ele>384</ele>
      </trkpt>
      <trkpt lat="43.76211" lon="5.88256">
        <ele>385</ele>
      </trkpt>
      <trkpt lat="43.76221" lon="5.88247">
        <ele>389</ele>
      </trkpt>
      <trkpt lat="43.7623" lon="5.88233">
        <ele>389</ele>
      </trkpt>
      <trkpt lat="43.76237" lon="5.88228">
        <ele>389</ele>
      </trkpt>
      <trkpt lat="43.76256" lon="5.88218">
        <ele>393</ele>
      </trkpt>
      <trkpt lat="43.76272" lon="5.88211">
        <ele>394</ele>
      </trkpt>
      <trkpt lat="43.76282" lon="5.88205">
        <ele>394</ele>
      </trkpt>
      <trkpt lat="43.76285" lon="5.88203">
        <ele>395</ele>
      </trkpt>
      <trkpt lat="43.76286" lon="5.88203">
        <ele>395</ele>
      </trkpt>
      <trkpt lat="43.76292" lon="5.88199">
        <ele>395</ele>
      </trkpt>
      <trkpt lat="43.76294" lon="5.88199">
        <ele>395</ele>
      </trkpt>
      <trkpt lat="43.76306" lon="5.88188">
        <ele>397</ele>
      </trkpt>
      <trkpt lat="43.76319" lon="5.88175">
        <ele>400</ele>
      </trkpt>
      <trkpt lat="43.76328" lon="5.88167">
        <ele>403</ele>
      </trkpt>
      <trkpt lat="43.76346" lon="5.88158">
        <ele>409</ele>
      </trkpt>
      <trkpt lat="43.76364" lon="5.88149">
        <ele>412</ele>
      </trkpt>
      <trkpt lat="43.76375" lon="5.88144">
        <ele>413</ele>
      </trkpt>
      <trkpt lat="43.76386" lon="5.88139">
        <ele>414</ele>
      </trkpt>
      <trkpt lat="43.76392" lon="5.88136">
        <ele>415</ele>
      </trkpt>
      <trkpt lat="43.76404" lon="5.88131">
        <ele>416</ele>
      </trkpt>
      <trkpt lat="43.76413" lon="5.88127">
        <ele>416</ele>
      </trkpt>
      <trkpt lat="43.76415" lon="5.88124">
        <ele>417</ele>
      </trkpt>
      <trkpt lat="43.76421" lon="5.88123">
        <ele>421</ele>
      </trkpt>
      <trkpt lat="43.76423" lon="5.88122">
        <ele>421</ele>
      </trkpt>
      <trkpt lat="43.76431" lon="5.88118">
        <ele>422</ele>
      </trkpt>
      <trkpt lat="43.76431" lon="5.88118">
        <ele>422</ele>
      </trkpt>
      <trkpt lat="43.76438" lon="5.88108">
        <ele>423</ele>
      </trkpt>
      <trkpt lat="43.76444" lon="5.88101">
        <ele>423</ele>
      </trkpt>
      <trkpt lat="43.7645" lon="5.88094">
        <ele>424</ele>
      </trkpt>
      <trkpt lat="43.76459" lon="5.88086">
        <ele>424</ele>
      </trkpt>
      <trkpt lat="43.76462" lon="5.88082">
        <ele>433</ele>
      </trkpt>
      <trkpt lat="43.7647" lon="5.88074">
        <ele>434</ele>
      </trkpt>
      <trkpt lat="43.76477" lon="5.88068">
        <ele>434</ele>
      </trkpt>
      <trkpt lat="43.76478" lon="5.88068">
        <ele>434</ele>
      </trkpt>
      <trkpt lat="43.76487" lon="5.88064">
        <ele>434</ele>
      </trkpt>
      <trkpt lat="43.76488" lon="5.88064">
        <ele>434</ele>
      </trkpt>
      <trkpt lat="43.76496" lon="5.8806">
        <ele>434</ele>
      </trkpt>
      <trkpt lat="43.76503" lon="5.88051">
        <ele>430</ele>
      </trkpt>
      <trkpt lat="43.76505" lon="5.88038">
        <ele>431</ele>
      </trkpt>
      <trkpt lat="43.76502" lon="5.88026">
        <ele>433</ele>
      </trkpt>
      <trkpt lat="43.765" lon="5.88013">
        <ele>439</ele>
      </trkpt>
      <trkpt lat="43.76498" lon="5.87991">
        <ele>443</ele>
      </trkpt>
      <trkpt lat="43.76496" lon="5.87973">
        <ele>444</ele>
      </trkpt>
      <trkpt lat="43.76489" lon="5.87947">
        <ele>445</ele>
      </trkpt>
      <trkpt lat="43.76482" lon="5.87923">
        <ele>446</ele>
      </trkpt>
      <trkpt lat="43.76481" lon="5.87895">
        <ele>448</ele>
      </trkpt>
      <trkpt lat="43.76483" lon="5.87875">
        <ele>449</ele>
      </trkpt>
      <trkpt lat="43.76485" lon="5.87849">
        <ele>449</ele>
      </trkpt>
      <trkpt lat="43.76488" lon="5.87802">
        <ele>447</ele>
      </trkpt>
      <trkpt lat="43.7649" lon="5.87784">
        <ele>446</ele>
      </trkpt>
      <trkpt lat="43.76504" lon="5.87755">
        <ele>446</ele>
      </trkpt>
      <trkpt lat="43.76517" lon="5.87729">
        <ele>448</ele>
      </trkpt>
      <trkpt lat="43.76532" lon="5.87696">
        <ele>449</ele>
      </trkpt>
      <trkpt lat="43.76543" lon="5.87672">
        <ele>450</ele>
      </trkpt>
      <trkpt lat="43.76555" lon="5.87653">
        <ele>456</ele>
      </trkpt>
      <trkpt lat="43.76566" lon="5.8764">
        <ele>456</ele>
      </trkpt>
      <trkpt lat="43.76581" lon="5.87627">
        <ele>457</ele>
      </trkpt>
      <trkpt lat="43.76593" lon="5.87615">
        <ele>457</ele>
      </trkpt>
      <trkpt lat="43.76605" lon="5.87598">
        <ele>457</ele>
      </trkpt>
      <trkpt lat="43.76616" lon="5.87582">
        <ele>464</ele>
      </trkpt>
      <trkpt lat="43.7663" lon="5.87563">
        <ele>464</ele>
      </trkpt>
      <trkpt lat="43.76644" lon="5.87546">
        <ele>465</ele>
      </trkpt>
      <trkpt lat="43.7666" lon="5.87517">
        <ele>468</ele>
      </trkpt>
      <trkpt lat="43.76665" lon="5.87492">
        <ele>473</ele>
      </trkpt>
      <trkpt lat="43.76665" lon="5.87459">
        <ele>477</ele>
      </trkpt>
      <trkpt lat="43.76672" lon="5.87432">
        <ele>477</ele>
      </trkpt>
      <trkpt lat="43.76687" lon="5.87405">
        <ele>480</ele>
      </trkpt>
      <trkpt lat="43.76705" lon="5.87389">
        <ele>479</ele>
      </trkpt>
      <trkpt lat="43.76726" lon="5.87383">
        <ele>479</ele>
      </trkpt>
      <trkpt lat="43.76745" lon="5.87386">
        <ele>478</ele>
      </trkpt>
      <trkpt lat="43.76748" lon="5.87387">
        <ele>478</ele>
      </trkpt>
      <trkpt lat="43.76762" lon="5.87383">
        <ele>478</ele>
      </trkpt>
      <trkpt lat="43.76775" lon="5.87376">
        <ele>479</ele>
      </trkpt>
      <trkpt lat="43.7679" lon="5.87372">
        <ele>479</ele>
      </trkpt>
      <trkpt lat="43.76807" lon="5.87372">
        <ele>479</ele>
      </trkpt>
      <trkpt lat="43.76829" lon="5.87379">
        <ele>479</ele>
      </trkpt>
      <trkpt lat="43.76863" lon="5.87399">
        <ele>480</ele>
      </trkpt>
      <trkpt lat="43.76882" lon="5.87413">
        <ele>481</ele>
      </trkpt>
      <trkpt lat="43.76896" lon="5.87431">
        <ele>481</ele>
      </trkpt>
      <trkpt lat="43.76906" lon="5.87442">
        <ele>481</ele>
      </trkpt>
      <trkpt lat="43.7692" lon="5.87459">
        <ele>482</ele>
      </trkpt>
      <trkpt lat="43.76931" lon="5.87477">
        <ele>482</ele>
      </trkpt>
      <trkpt lat="43.76942" lon="5.87497">
        <ele>481</ele>
      </trkpt>
      <trkpt lat="43.76962" lon="5.87529">
        <ele>483</ele>
      </trkpt>
      <trkpt lat="43.76969" lon="5.87543">
        <ele>483</ele>
      </trkpt>
      <trkpt lat="43.76987" lon="5.87569">
        <ele>485</ele>
      </trkpt>
      <trkpt lat="43.77008" lon="5.87578">
        <ele>486</ele>
      </trkpt>
      <trkpt lat="43.77036" lon="5.87576">
        <ele>486</ele>
      </trkpt>
      <trkpt lat="43.77057" lon="5.87572">
        <ele>486</ele>
      </trkpt>
      <trkpt lat="43.7708" lon="5.87575">
        <ele>488</ele>
      </trkpt>
      <trkpt lat="43.77123" lon="5.87594">
        <ele>489</ele>
      </trkpt>
      <trkpt lat="43.77151" lon="5.87607">
        <ele>489</ele>
      </trkpt>
      <trkpt lat="43.77173" lon="5.87609">
        <ele>489</ele>
      </trkpt>
      <trkpt lat="43.77183" lon="5.87611">
        <ele>489</ele>
      </trkpt>
      <trkpt lat="43.7722" lon="5.87611">
        <ele>490</ele>
      </trkpt>
      <trkpt lat="43.77257" lon="5.87616">
        <ele>490</ele>
      </trkpt>
      <trkpt lat="43.77266" lon="5.87617">
        <ele>490</ele>
      </trkpt>
      <trkpt lat="43.77301" lon="5.87611">
        <ele>491</ele>
      </trkpt>
      <trkpt lat="43.77306" lon="5.87609">
        <ele>491</ele>
      </trkpt>
      <trkpt lat="43.77332" lon="5.87586">
        <ele>493</ele>
      </trkpt>
      <trkpt lat="43.77342" lon="5.87584">
        <ele>492</ele>
      </trkpt>
      <trkpt lat="43.77355" lon="5.87577">
        <ele>492</ele>
      </trkpt>
      <trkpt lat="43.77359" lon="5.87573">
        <ele>492</ele>
      </trkpt>
      <trkpt lat="43.77367" lon="5.87564">
        <ele>492</ele>
      </trkpt>
      <trkpt lat="43.77404" lon="5.87523">
        <ele>492</ele>
      </trkpt>
      <trkpt lat="43.77461" lon="5.87479">
        <ele>493</ele>
      </trkpt>
      <trkpt lat="43.77507" lon="5.87443">
        <ele>495</ele>
      </trkpt>
      <trkpt lat="43.7757" lon="5.87398">
        <ele>495</ele>
      </trkpt>
      <trkpt lat="43.77593" lon="5.87388">
        <ele>496</ele>
      </trkpt>
      <trkpt lat="43.77646" lon="5.87372">
        <ele>496</ele>
      </trkpt>
      <trkpt lat="43.77706" lon="5.87354">
        <ele>497</ele>
      </trkpt>
      <trkpt lat="43.77752" lon="5.87338">
        <ele>498</ele>
      </trkpt>
      <trkpt lat="43.77786" lon="5.87303">
        <ele>497</ele>
      </trkpt>
      <trkpt lat="43.77815" lon="5.87254">
        <ele>496</ele>
      </trkpt>
      <trkpt lat="43.77864" lon="5.87167">
        <ele>494</ele>
      </trkpt>
      <trkpt lat="43.77908" lon="5.87105">
        <ele>495</ele>
      </trkpt>
      <trkpt lat="43.77951" lon="5.87044">
        <ele>495</ele>
      </trkpt>
      <trkpt lat="43.77956" lon="5.87036">
        <ele>495</ele>
      </trkpt>
      <trkpt lat="43.77968" lon="5.87011">
        <ele>495</ele>
      </trkpt>
      <trkpt lat="43.77985" lon="5.86979">
        <ele>493</ele>
      </trkpt>
      <trkpt lat="43.77997" lon="5.86946">
        <ele>492</ele>
      </trkpt>
      <trkpt lat="43.78001" lon="5.8694">
        <ele>492</ele>
      </trkpt>
      <trkpt lat="43.78016" lon="5.86917">
        <ele>491</ele>
      </trkpt>
      <trkpt lat="43.78052" lon="5.86865">
        <ele>490</ele>
      </trkpt>
      <trkpt lat="43.78064" lon="5.86852">
        <ele>489</ele>
      </trkpt>
      <trkpt lat="43.78073" lon="5.86838">
        <ele>489</ele>
      </trkpt>
      <trkpt lat="43.78082" lon="5.86822">
        <ele>488</ele>
      </trkpt>
      <trkpt lat="43.78094" lon="5.868">
        <ele>486</ele>
      </trkpt>
      <trkpt lat="43.78103" lon="5.86785">
        <ele>486</ele>
      </trkpt>
      <trkpt lat="43.78112" lon="5.86767">
        <ele>485</ele>
      </trkpt>
      <trkpt lat="43.78126" lon="5.8674">
        <ele>483</ele>
      </trkpt>
      <trkpt lat="43.78151" lon="5.86708">
        <ele>481</ele>
      </trkpt>
      <trkpt lat="43.78175" lon="5.86669">
        <ele>478</ele>
      </trkpt>
      <trkpt lat="43.78188" lon="5.86634">
        <ele>478</ele>
      </trkpt>
      <trkpt lat="43.78197" lon="5.86589">
        <ele>477</ele>
      </trkpt>
      <trkpt lat="43.782" lon="5.86577">
        <ele>475</ele>
      </trkpt>
      <trkpt lat="43.78212" lon="5.86544">
        <ele>473</ele>
      </trkpt>
      <trkpt lat="43.78215" lon="5.86533">
        <ele>473</ele>
      </trkpt>
      <trkpt lat="43.78221" lon="5.86508">
        <ele>471</ele>
      </trkpt>
      <trkpt lat="43.78228" lon="5.86484">
        <ele>468</ele>
      </trkpt>
      <trkpt lat="43.78235" lon="5.8646">
        <ele>467</ele>
      </trkpt>
      <trkpt lat="43.78259" lon="5.86419">
        <ele>462</ele>
      </trkpt>
      <trkpt lat="43.78276" lon="5.86404">
        <ele>461</ele>
      </trkpt>
      <trkpt lat="43.78301" lon="5.86379">
        <ele>461</ele>
      </trkpt>
      <trkpt lat="43.78357" lon="5.86319">
        <ele>453</ele>
      </trkpt>
      <trkpt lat="43.78387" lon="5.86285">
        <ele>452</ele>
      </trkpt>
      <trkpt lat="43.78411" lon="5.86263">
        <ele>448</ele>
      </trkpt>
      <trkpt lat="43.78433" lon="5.86242">
        <ele>444</ele>
      </trkpt>
      <trkpt lat="43.78456" lon="5.86224">
        <ele>444</ele>
      </trkpt>
      <trkpt lat="43.7849" lon="5.86201">
        <ele>443</ele>
      </trkpt>
      <trkpt lat="43.78518" lon="5.86176">
        <ele>439</ele>
      </trkpt>
      <trkpt lat="43.78547" lon="5.86134">
        <ele>439</ele>
      </trkpt>
      <trkpt lat="43.78575" lon="5.86092">
        <ele>439</ele>
      </trkpt>
      <trkpt lat="43.78589" lon="5.86061">
        <ele>436</ele>
      </trkpt>
      <trkpt lat="43.78593" lon="5.8603">
        <ele>437</ele>
      </trkpt>
      <trkpt lat="43.78595" lon="5.86017">
        <ele>438</ele>
      </trkpt>
      <trkpt lat="43.78616" lon="5.85972">
        <ele>436</ele>
      </trkpt>
      <trkpt lat="43.78638" lon="5.85934">
        <ele>435</ele>
      </trkpt>
      <trkpt lat="43.78655" lon="5.85894">
        <ele>434</ele>
      </trkpt>
      <trkpt lat="43.78661" lon="5.85875">
        <ele>434</ele>
      </trkpt>
      <trkpt lat="43.78674" lon="5.85833">
        <ele>432</ele>
      </trkpt>
      <trkpt lat="43.78692" lon="5.85798">
        <ele>429</ele>
      </trkpt>
      <trkpt lat="43.78698" lon="5.85791">
        <ele>428</ele>
      </trkpt>
      <trkpt lat="43.78722" lon="5.8576">
        <ele>426</ele>
      </trkpt>
      <trkpt lat="43.78769" lon="5.85704">
        <ele>420</ele>
      </trkpt>
      <trkpt lat="43.78775" lon="5.85695">
        <ele>420</ele>
      </trkpt>
      <trkpt lat="43.78802" lon="5.85652">
        <ele>418</ele>
      </trkpt>
      <trkpt lat="43.78816" lon="5.85607">
        <ele>417</ele>
      </trkpt>
      <trkpt lat="43.78828" lon="5.85555">
        <ele>414</ele>
      </trkpt>
      <trkpt lat="43.78839" lon="5.85516">
        <ele>408</ele>
      </trkpt>
      <trkpt lat="43.78864" lon="5.85474">
        <ele>402</ele>
      </trkpt>
      <trkpt lat="43.78875" lon="5.85456">
        <ele>400</ele>
      </trkpt>
      <trkpt lat="43.78906" lon="5.85414">
        <ele>395</ele>
      </trkpt>
      <trkpt lat="43.78917" lon="5.854">
        <ele>391</ele>
      </trkpt>
      <trkpt lat="43.78936" lon="5.85384">
        <ele>389</ele>
      </trkpt>
      <trkpt lat="43.78957" lon="5.85371">
        <ele>387</ele>
      </trkpt>
      <trkpt lat="43.78964" lon="5.85364">
        <ele>386</ele>
      </trkpt>
      <trkpt lat="43.78976" lon="5.85348">
        <ele>385</ele>
      </trkpt>
      <trkpt lat="43.79012" lon="5.85279">
        <ele>379</ele>
      </trkpt>
      <trkpt lat="43.79025" lon="5.85248">
        <ele>378</ele>
      </trkpt>
      <trkpt lat="43.79058" lon="5.85183">
        <ele>375</ele>
      </trkpt>
      <trkpt lat="43.79066" lon="5.85164">
        <ele>373</ele>
      </trkpt>
      <trkpt lat="43.79085" lon="5.85129">
        <ele>370</ele>
      </trkpt>
      <trkpt lat="43.79126" lon="5.85052">
        <ele>365</ele>
      </trkpt>
      <trkpt lat="43.79145" lon="5.85008">
        <ele>364</ele>
      </trkpt>
      <trkpt lat="43.79166" lon="5.84944">
        <ele>357</ele>
      </trkpt>
      <trkpt lat="43.79176" lon="5.84903">
        <ele>351</ele>
      </trkpt>
      <trkpt lat="43.79179" lon="5.84889">
        <ele>349</ele>
      </trkpt>
      <trkpt lat="43.79186" lon="5.84874">
        <ele>349</ele>
      </trkpt>
      <trkpt lat="43.79189" lon="5.8487">
        <ele>348</ele>
      </trkpt>
      <trkpt lat="43.79189" lon="5.84871">
        <ele>348</ele>
      </trkpt>
      <trkpt lat="43.79198" lon="5.84876">
        <ele>348</ele>
      </trkpt>
      <trkpt lat="43.79201" lon="5.8488">
        <ele>348</ele>
      </trkpt>
      <trkpt lat="43.79218" lon="5.84907">
        <ele>348</ele>
      </trkpt>
      <trkpt lat="43.79229" lon="5.84922">
        <ele>350</ele>
      </trkpt>
      <trkpt lat="43.79242" lon="5.84925">
        <ele>348</ele>
      </trkpt>
      <trkpt lat="43.79245" lon="5.84922">
        <ele>348</ele>
      </trkpt>
      <trkpt lat="43.79247" lon="5.84916">
        <ele>346</ele>
      </trkpt>
      <trkpt lat="43.79251" lon="5.84888">
        <ele>350</ele>
      </trkpt>
      <trkpt lat="43.79252" lon="5.84856">
        <ele>349</ele>
      </trkpt>
      <trkpt lat="43.79258" lon="5.84835">
        <ele>347</ele>
      </trkpt>
      <trkpt lat="43.79266" lon="5.8479">
        <ele>350</ele>
      </trkpt>
      <trkpt lat="43.79267" lon="5.84764">
        <ele>349</ele>
      </trkpt>
      <trkpt lat="43.79267" lon="5.84744">
        <ele>349</ele>
      </trkpt>
      <trkpt lat="43.7927" lon="5.84732">
        <ele>350</ele>
      </trkpt>
      <trkpt lat="43.79276" lon="5.8471">
        <ele>351</ele>
      </trkpt>
      <trkpt lat="43.79282" lon="5.84697">
        <ele>352</ele>
      </trkpt>
      <trkpt lat="43.7929" lon="5.84673">
        <ele>353</ele>
      </trkpt>
      <trkpt lat="43.79301" lon="5.84647">
        <ele>356</ele>
      </trkpt>
      <trkpt lat="43.79311" lon="5.84623">
        <ele>357</ele>
      </trkpt>
      <trkpt lat="43.79314" lon="5.84615">
        <ele>357</ele>
      </trkpt>
      <trkpt lat="43.79326" lon="5.84585">
        <ele>362</ele>
      </trkpt>
      <trkpt lat="43.79338" lon="5.84572">
        <ele>365</ele>
      </trkpt>
      <trkpt lat="43.7934" lon="5.84559">
        <ele>365</ele>
      </trkpt>
      <trkpt lat="43.79332" lon="5.84529">
        <ele>360</ele>
      </trkpt>
      <trkpt lat="43.79331" lon="5.84511">
        <ele>362</ele>
      </trkpt>
      <trkpt lat="43.79341" lon="5.84498">
        <ele>364</ele>
      </trkpt>
      <trkpt lat="43.79378" lon="5.84472">
        <ele>363</ele>
      </trkpt>
      <trkpt lat="43.7941" lon="5.84451">
        <ele>363</ele>
      </trkpt>
      <trkpt lat="43.79431" lon="5.84437">
        <ele>361</ele>
      </trkpt>
      <trkpt lat="43.79455" lon="5.84421">
        <ele>360</ele>
      </trkpt>
      <trkpt lat="43.79473" lon="5.84411">
        <ele>358</ele>
      </trkpt>
      <trkpt lat="43.79502" lon="5.84394">
        <ele>354</ele>
      </trkpt>
      <trkpt lat="43.79509" lon="5.84389">
        <ele>354</ele>
      </trkpt>
      <trkpt lat="43.79524" lon="5.84377">
        <ele>353</ele>
      </trkpt>
      <trkpt lat="43.79548" lon="5.84361">
        <ele>352</ele>
      </trkpt>
      <trkpt lat="43.79562" lon="5.84353">
        <ele>351</ele>
      </trkpt>
      <trkpt lat="43.79577" lon="5.84335">
        <ele>349</ele>
      </trkpt>
      <trkpt lat="43.79587" lon="5.84317">
        <ele>346</ele>
      </trkpt>
      <trkpt lat="43.79611" lon="5.84283">
        <ele>344</ele>
      </trkpt>
      <trkpt lat="43.79635" lon="5.84241">
        <ele>343</ele>
      </trkpt>
      <trkpt lat="43.79668" lon="5.84181">
        <ele>335</ele>
      </trkpt>
      <trkpt lat="43.7968" lon="5.84162">
        <ele>335</ele>
      </trkpt>
      <trkpt lat="43.79693" lon="5.84118">
        <ele>332</ele>
      </trkpt>
      <trkpt lat="43.79699" lon="5.84093">
        <ele>332</ele>
      </trkpt>
      <trkpt lat="43.79728" lon="5.84026">
        <ele>329</ele>
      </trkpt>
      <trkpt lat="43.79746" lon="5.83993">
        <ele>326</ele>
      </trkpt>
      <trkpt lat="43.79754" lon="5.83979">
        <ele>319</ele>
      </trkpt>
      <trkpt lat="43.79783" lon="5.83941">
        <ele>317</ele>
      </trkpt>
      <trkpt lat="43.79807" lon="5.83913">
        <ele>311</ele>
      </trkpt>
      <trkpt lat="43.79818" lon="5.83904">
        <ele>310</ele>
      </trkpt>
      <trkpt lat="43.79829" lon="5.83899">
        <ele>309</ele>
      </trkpt>
      <trkpt lat="43.79838" lon="5.83891">
        <ele>304</ele>
      </trkpt>
      <trkpt lat="43.7985" lon="5.83861">
        <ele>302</ele>
      </trkpt>
      <trkpt lat="43.79869" lon="5.8381">
        <ele>297</ele>
      </trkpt>
      <trkpt lat="43.79898" lon="5.83731">
        <ele>295</ele>
      </trkpt>
      <trkpt lat="43.79929" lon="5.83648">
        <ele>294</ele>
      </trkpt>
      <trkpt lat="43.79963" lon="5.83558">
        <ele>293</ele>
      </trkpt>
      <trkpt lat="43.80009" lon="5.83432">
        <ele>293</ele>
      </trkpt>
      <trkpt lat="43.80023" lon="5.83387">
        <ele>294</ele>
      </trkpt>
      <trkpt lat="43.80042" lon="5.8335">
        <ele>294</ele>
      </trkpt>
      <trkpt lat="43.80053" lon="5.83319">
        <ele>294</ele>
      </trkpt>
      <trkpt lat="43.80081" lon="5.83258">
        <ele>295</ele>
      </trkpt>
      <trkpt lat="43.80126" lon="5.83155">
        <ele>293</ele>
      </trkpt>
      <trkpt lat="43.80179" lon="5.83039">
        <ele>292</ele>
      </trkpt>
      <trkpt lat="43.80221" lon="5.82945">
        <ele>293</ele>
      </trkpt>
      <trkpt lat="43.80264" lon="5.82849">
        <ele>293</ele>
      </trkpt>
      <trkpt lat="43.80303" lon="5.82763">
        <ele>293</ele>
      </trkpt>
      <trkpt lat="43.8035" lon="5.8266">
        <ele>295</ele>
      </trkpt>
      <trkpt lat="43.804" lon="5.82548">
        <ele>292</ele>
      </trkpt>
      <trkpt lat="43.80451" lon="5.82433">
        <ele>288</ele>
      </trkpt>
      <trkpt lat="43.8046" lon="5.82414">
        <ele>289</ele>
      </trkpt>
      <trkpt lat="43.80508" lon="5.82308">
        <ele>294</ele>
      </trkpt>
      <trkpt lat="43.80565" lon="5.82182">
        <ele>297</ele>
      </trkpt>
      <trkpt lat="43.80616" lon="5.8207">
        <ele>294</ele>
      </trkpt>
      <trkpt lat="43.80651" lon="5.81987">
        <ele>294</ele>
      </trkpt>
      <trkpt lat="43.80656" lon="5.81979">
        <ele>294</ele>
      </trkpt>
      <trkpt lat="43.8068" lon="5.81945">
        <ele>294</ele>
      </trkpt>
      <trkpt lat="43.80681" lon="5.81927">
        <ele>294</ele>
      </trkpt>
      <trkpt lat="43.8069" lon="5.81883">
        <ele>294</ele>
      </trkpt>
      <trkpt lat="43.80721" lon="5.81798">
        <ele>294</ele>
      </trkpt>
      <trkpt lat="43.80752" lon="5.81722">
        <ele>294</ele>
      </trkpt>
      <trkpt lat="43.80796" lon="5.81631">
        <ele>294</ele>
      </trkpt>
      <trkpt lat="43.80835" lon="5.81558">
        <ele>294</ele>
      </trkpt>
      <trkpt lat="43.80876" lon="5.81483">
        <ele>295</ele>
      </trkpt>
      <trkpt lat="43.80924" lon="5.81394">
        <ele>295</ele>
      </trkpt>
      <trkpt lat="43.80966" lon="5.81313">
        <ele>295</ele>
      </trkpt>
      <trkpt lat="43.80989" lon="5.81258">
        <ele>296</ele>
      </trkpt>
      <trkpt lat="43.80991" lon="5.81249">
        <ele>296</ele>
      </trkpt>
      <trkpt lat="43.81006" lon="5.81209">
        <ele>296</ele>
      </trkpt>
      <trkpt lat="43.81023" lon="5.81179">
        <ele>295</ele>
      </trkpt>
      <trkpt lat="43.81063" lon="5.81118">
        <ele>295</ele>
      </trkpt>
      <trkpt lat="43.81107" lon="5.81034">
        <ele>296</ele>
      </trkpt>
      <trkpt lat="43.81136" lon="5.8098">
        <ele>297</ele>
      </trkpt>
      <trkpt lat="43.81167" lon="5.80917">
        <ele>298</ele>
      </trkpt>
      <trkpt lat="43.812" lon="5.8085">
        <ele>298</ele>
      </trkpt>
      <trkpt lat="43.81214" lon="5.80825">
        <ele>299</ele>
      </trkpt>
      <trkpt lat="43.81242" lon="5.80754">
        <ele>300</ele>
      </trkpt>
      <trkpt lat="43.81271" lon="5.80676">
        <ele>300</ele>
      </trkpt>
      <trkpt lat="43.81302" lon="5.80591">
        <ele>300</ele>
      </trkpt>
      <trkpt lat="43.81335" lon="5.80495">
        <ele>302</ele>
      </trkpt>
      <trkpt lat="43.8136" lon="5.80427">
        <ele>303</ele>
      </trkpt>
      <trkpt lat="43.81389" lon="5.80359">
        <ele>303</ele>
      </trkpt>
      <trkpt lat="43.81391" lon="5.80375">
        <ele>303</ele>
      </trkpt>
      <trkpt lat="43.81395" lon="5.80389">
        <ele>303</ele>
      </trkpt>
      <trkpt lat="43.81416" lon="5.80419">
        <ele>304</ele>
      </trkpt>
      <trkpt lat="43.81448" lon="5.80457">
        <ele>303</ele>
      </trkpt>
      <trkpt lat="43.81484" lon="5.80496">
        <ele>302</ele>
      </trkpt>
      <trkpt lat="43.81521" lon="5.80531">
        <ele>301</ele>
      </trkpt>
      <trkpt lat="43.81544" lon="5.80549">
        <ele>301</ele>
      </trkpt>
      <trkpt lat="43.81594" lon="5.80589">
        <ele>300</ele>
      </trkpt>
      <trkpt lat="43.81609" lon="5.8061">
        <ele>300</ele>
      </trkpt>
      <trkpt lat="43.81638" lon="5.8059">
        <ele>301.6</ele>
      </trkpt>
      <trkpt lat="43.81658" lon="5.8056">
        <ele>302.7</ele>
      </trkpt>
      <trkpt lat="43.81661" lon="5.80565">
        <ele>302.6</ele>
        <time>2020-03-04T13:47:06Z</time>
      </trkpt>
      <trkpt lat="43.81686" lon="5.80509">
        <ele>304.5</ele>
        <time>2020-03-04T13:47:06Z</time>
      </trkpt>
      <trkpt lat="43.81721" lon="5.80304">
        <ele>306.1</ele>
        <time>2020-03-04T13:47:06Z</time>
      </trkpt>
      <trkpt lat="43.8189" lon="5.80147">
        <ele>312.8</ele>
        <time>2020-03-04T13:47:06Z</time>
      </trkpt>
      <trkpt lat="43.81896" lon="5.80109">
        <ele>315.1</ele>
        <time>2020-03-04T13:47:06Z</time>
      </trkpt>
      <trkpt lat="43.82086" lon="5.80091">
        <ele>313.8</ele>
        <time>2020-03-04T13:47:06Z</time>
      </trkpt>
      <trkpt lat="43.82354" lon="5.80299">
        <ele>311.1</ele>
        <time>2020-03-04T13:47:06Z</time>
      </trkpt>
      <trkpt lat="43.82221" lon="5.80583">
        <ele>306.7</ele>
        <time>2020-03-04T13:47:06Z</time>
      </trkpt>
      <trkpt lat="43.82112" lon="5.80479">
        <ele>308.7</ele>
        <time>2020-03-04T13:47:06Z</time>
      </trkpt>
      <trkpt lat="43.82063" lon="5.80574">
        <ele>305.1</ele>
        <time>2020-03-04T13:47:06Z</time>
      </trkpt>
      <trkpt lat="43.82024" lon="5.80583">
        <ele>304.3</ele>
        <time>2020-03-04T13:47:06Z</time>
      </trkpt>
    </trkseg>
  </trk>
</gpx>